[[{"header":{"parameterUnit":"m.s-1","parameterCategory":1,"la1":31.0,"la2":29.5877,"lo1":-88.7671,"lo2":-86.6584,"dy":0.0162,"dx":0.0185,"nx":115,"ny":88,"refTime":"2023-10-20T06:00:00:Z","depth":0,"parameterNumber":2,"parameterNumberName":"U-component_of_WINDS"},"data":[0.0,0.0,0.0,0.0,0.0,0.0,0.0,0.0,0.0,0.0,0.0,0.0,0.0,0.0,0.0,0.0,0.0,0.0,0.0,0.0,0.0,0.0,0.0,0.0,0.0,0.0,0.0,0.0,0.0,0.0,0.0,0.0,0.0,0.0,0.0,0.0,0.0,0.0,0.0,0.0,0.0,0.0,0.0,0.0,0.0,0.0,0.0,0.0,0.0,0.0,0.0,0.0,0.0,0.0,0.0,0.0,0.0,0.0,0.0,0.0,0.0,0.0,0.0,0.0,0.0,0.0,0.0,0.0,0.0,0.0,0.0,0.0,0.0,0.0,0.0,0.0,0.0,0.0,0.0,0.0,0.0,0.0,0.0,0.0,0.0,0.0,0.0,0.0,0.0,0.0,0.0,0.0,0.0,0.0,0.0,0.0,0.0,0.0,0.0,0.0,0.0,0.0,0.0,0.0,0.0,0.0,0.0,0.0,0.0,0.0,0.0,0.0,0.0,0.0,0.0,0.0,0.0,0.0,0.0,0.0,0.0,0.0,0.0,0.0,0.0,0.0,0.0,0.0,0.0,0.0,0.0,0.0,0.0,0.0,0.0,0.0,0.0,0.0,0.0,0.0,0.0,0.0,0.0,0.0,0.0,0.0,0.0,0.0,0.0,0.0,0.0,0.0,0.0,0.0,0.0,0.0,0.0,0.0,0.0,0.0,0.0,0.0,0.0,0.0,0.0,0.0,0.0,0.0,0.0,0.0,0.0,0.0,0.0,0.0,0.0,0.0,0.0,0.0,0.0,0.0,0.0,0.0,0.0,0.0,0.0,0.0,0.0,0.0,0.0,0.0,0.0,0.0,0.0,0.0,0.0,0.0,0.0,0.0,0.0,0.0,0.0,0.0,0.0,0.0,0.0,0.0,0.0,0.0,0.0,0.0,0.0,0.0,0.0,0.0,0.0,0.0,0.0,0.0,0.0,0.0,0.0,0.0,0.0,0.0,0.0,0.0,0.0,0.0,0.0,0.0,0.0,0.0,0.0,0.0,0.0,0.0,0.0,0.0,0.0,0.0,0.0,0.0,0.0,0.0,0.0,0.0,0.0,0.0,0.0,0.0,0.0,0.0,0.0,0.0,0.0,0.0,0.0,0.0,0.0,0.0,0.0,0.0,0.0,0.0,0.0,0.0,0.0,0.0,0.0,0.0,0.0,0.0,0.0,0.0,0.0,0.0,0.0,0.0,0.0,0.0,0.0,0.0,0.0,0.0,0.0,0.0,0.0,0.0,0.0,0.0,0.0,0.0,0.0,0.0,0.0,0.0,0.0,0.0,0.0,0.0,0.0,0.0,0.0,0.0,0.0,0.0,0.0,0.0,0.0,0.0,0.0,0.0,0.0,0.0,0.0,0.0,0.0,0.0,0.0,0.0,0.0,0.0,0.0,0.0,0.0,0.0,0.0,0.0,0.0,0.0,0.0,0.0,0.0,0.0,0.0,0.0,0.0,0.0,0.0,0.0,0.0,0.0,0.0,0.0,0.0,0.0,0.0,0.0,0.0,0.0,0.0,0.0,0.0,0.0,0.0,0.0,0.0,0.0,0.0,0.0,0.0,0.0,0.0,0.0,0.0,0.0,0.0,0.0,0.0,0.0,0.0,0.0,0.0,0.0,0.0,0.0,0.0,0.0,0.0,0.0,0.0,0.0,0.0,0.0,0.0,0.0,0.0,0.0,0.0,0.0,0.0,0.0,0.0,0.0,0.0,0.0,0.0,0.0,0.0,0.0,0.0,0.0,0.0,0.0,0.0,0.0,0.0,0.0,0.0,0.0,0.0,0.0,0.0,0.0,0.0,0.0,0.0,0.0,0.0,0.0,0.0,0.0,0.0,0.0,0.0,0.0,0.0,0.0,0.0,0.0,0.0,0.0,0.0,0.0,0.0,0.0,0.0,0.0,0.0,0.0,0.0,0.0,0.0,0.0,0.0,0.0,0.0,0.0,0.0,0.0,0.0,0.0,0.0,0.0,0.0,0.0,0.0,0.0,0.0,0.0,0.0,0.0,0.0,0.0,0.0,0.0,0.0,0.0,0.0,0.0,0.0,0.0,0.0,0.0,0.0,0.0,0.0,0.0,0.0,0.0,0.0,0.0,0.0,0.0,0.0,0.0,0.0,0.0,0.0,0.0,0.0,0.0,0.0,0.0,0.0,0.0,0.0,0.0,0.0,0.0,0.0,0.0,0.0,0.0,0.0,0.0,0.0,0.0,0.0,0.0,0.0,0.0,0.0,0.0,0.0,0.0,0.0,0.0,0.0,0.0,0.0,0.0,0.0,0.0,0.0,0.0,0.0,0.0,0.0,0.0,0.0,0.0,0.0,0.0,0.0,0.0,0.0,0.0,0.0,0.0,0.0,0.0,0.0,0.0,0.0,0.0,0.0,0.0,0.0,0.0,0.0,0.0,0.0,0.0,0.0,0.0,0.0,0.0,0.0,0.0,0.0,0.0,0.0,0.0,0.0,0.0,0.0,0.0,0.0,0.0,0.0,0.0,0.0,0.0,0.0,0.0,0.0,0.0,0.0,0.0,0.0,0.0,0.0,0.0,0.0,0.0,0.0,0.0,0.0,0.0,0.0,0.0,0.0,0.0,0.0,0.0,0.0,0.0,0.0,0.0,0.0,0.0,0.0,0.0,0.0,0.0,0.0,0.0,0.0,0.0,0.0,0.0,0.0,0.0,0.0,0.0,0.0,0.0,0.0,0.0,0.0,0.0,0.0,0.0,0.0,0.0,0.0,0.0,0.0,0.0,0.0,0.0,0.0,0.0,0.0,0.0,0.0,0.0,0.0,0.0,0.0,0.0,0.0,0.0,0.0,0.0,0.0,0.0,0.0,0.0,0.0,0.0,0.0,0.0,0.0,0.0,0.0,0.0,0.0,0.0,0.0,0.0,0.0,0.0,0.0,0.0,0.0,0.0,0.0,0.0,0.0,0.0,0.0,0.0,0.0,0.0,0.0,0.0,0.0,0.0,0.0,0.0,0.0,0.0,0.0,0.0,0.0,0.0,0.0,0.0,0.0,0.0,0.0,0.0,0.0,0.0,0.0,0.0,0.0,0.0,0.0,0.0,0.0,0.0,0.0,0.0,0.0,0.0,0.0,0.0,0.0,0.0,0.0,0.0,0.0,0.0,0.0,0.0,0.0,0.0,0.0,0.0,0.0,0.0,0.0,0.0,0.0,0.0,0.0,0.0,0.0,0.0,0.0,0.0,0.0,0.0,0.0,0.0,0.0,0.0,0.0,0.0,0.0,0.0,0.0,0.0,0.0,0.0,0.0,0.0,0.0,0.0,0.0,0.0,0.0,0.0,0.0,0.0,0.0,0.0,0.0,0.0,0.0,0.0,0.0,0.0,0.0,0.0,0.0,0.0,0.0,0.0,0.0,0.0,0.0,0.0,0.0,0.0,0.0,0.0,0.0,0.0,0.0,0.0,0.0,0.0,0.0,0.0,0.0,0.0,0.0,0.0,0.0,0.0,0.0,0.0,0.0,0.0,0.0,0.0,0.0,0.0,0.0,0.0,0.0,0.0,0.0,0.0,0.0,0.0,0.0,0.0,0.0,0.0,0.0,0.0,0.0,0.0,0.0,0.0,0.0,0.0,0.0,0.0,0.0,0.0,0.0,0.0,0.0,0.0,0.0,0.0,0.0,0.0,0.0,0.0,0.0,0.0,0.0,0.0,0.0,0.0,0.0,0.0,0.0,0.0,0.0,0.0,0.0,0.0,0.0,0.0,0.0,0.0,0.0,0.0,0.0,0.0,0.0,0.0,0.0,0.0,0.0,0.0,0.0,0.0,0.0,0.0,0.0,0.0,0.0,0.0,0.0,0.0,0.0,0.0,0.0,0.0,0.0,0.0,0.0,0.0,0.0,0.0,0.0,0.0,0.0,0.0,0.0,0.0,0.0,0.0,0.0,0.0,0.0,0.0,0.0,0.0,0.0,0.0,0.0,0.0,0.0,0.0,0.0,0.0,0.0,0.0,0.0,0.0,0.0,0.0,0.0,0.0,0.0,0.0,0.0,0.0,0.0,0.0,0.0,0.0,0.0,0.0,0.0,0.0,0.0,0.0,0.0,0.0,0.0,0.0,0.0,0.0,0.0,0.0,0.0,0.0,0.0,0.0,0.0,0.0,0.0,0.0,0.0,0.0,0.0,0.0,0.0,0.0,0.0,0.0,0.0,0.0,0.0,0.0,0.0,0.0,0.0,0.0,0.0,0.0,0.0,0.0,0.0,0.0,-0.5992,0.0,0.0,0.0,0.0,0.0,0.0,0.0,0.0,0.0,0.0,0.0,0.0,0.0,0.0,0.0,0.0,0.0,0.0,0.0,0.0,0.0,0.0,0.0,0.0,0.0,0.0,0.0,0.0,0.0,0.0,0.0,0.0,0.0,0.0,0.0,0.0,0.0,0.0,0.0,0.0,0.0,0.0,0.0,0.0,0.0,0.0,0.0,0.0,0.0,0.0,0.0,0.0,0.0,0.0,0.0,0.0,0.0,0.0,0.0,0.0,0.0,0.0,0.0,0.0,0.0,0.0,0.0,0.0,0.0,0.0,0.0,0.0,0.0,0.0,0.0,0.0,0.0,0.0,0.0,0.0,0.0,0.0,0.0,0.0,0.0,0.0,0.0,0.0,0.0,0.0,0.0,0.0,0.0,0.0,0.0,0.0,0.0,0.0,0.0,0.0,0.0,0.0,0.0,0.0,0.0,0.0,0.0,0.0,0.0,0.0,-0.5035,-0.516,-0.519,-0.5315,-0.5566,0.0,0.0,0.0,0.0,0.0,0.0,0.0,0.0,0.0,0.0,0.0,0.0,0.0,0.0,0.0,0.0,0.0,0.0,0.0,0.0,0.0,0.0,0.0,0.0,0.0,0.0,0.0,0.0,0.0,0.0,0.0,0.0,0.0,0.0,0.0,0.0,0.0,0.0,0.0,0.0,0.0,0.0,0.0,0.0,0.0,0.0,0.0,0.0,0.0,0.0,0.0,0.0,0.0,0.0,0.0,0.0,0.0,0.0,0.0,0.0,0.0,0.0,0.0,0.0,0.0,0.0,0.0,0.0,0.0,0.0,0.0,0.0,0.0,0.0,0.0,0.0,0.0,0.0,0.0,0.0,0.0,0.0,0.0,0.0,0.0,0.0,0.0,0.0,0.0,0.0,0.0,0.0,0.0,0.0,0.0,0.0,0.0,0.0,0.0,0.0,0.0,0.0,0.0,0.0,0.0,0.0,0.0,0.0,0.0,0.0,0.0,0.0,-0.4985,-0.514,-0.5215,0.0,0.0,0.0,0.0,0.0,0.0,0.0,0.0,0.0,0.0,0.0,0.0,0.0,0.0,0.0,0.0,0.0,0.0,0.0,0.0,0.0,0.0,0.0,0.0,0.0,0.0,0.0,0.0,0.0,0.0,0.0,0.0,0.0,0.0,0.0,0.0,0.0,0.0,0.0,0.0,0.0,0.0,0.0,0.0,0.0,0.0,0.0,0.0,0.0,0.0,0.0,0.0,0.0,0.0,0.0,0.0,0.0,0.0,0.0,0.0,0.0,0.0,0.0,0.0,0.0,0.0,0.0,0.0,0.0,0.0,0.0,0.0,0.0,0.0,0.0,0.0,0.0,0.0,0.0,0.0,0.0,0.0,0.0,0.0,0.0,0.0,0.0,0.0,0.0,0.0,0.0,0.0,0.0,0.0,0.0,0.0,0.0,0.0,0.0,0.0,0.0,0.0,0.0,0.0,0.0,0.0,0.0,0.0,0.0,0.0,-0.4784,-0.4784,-0.4834,0.0,-0.519,0.0,0.0,0.0,0.0,0.0,0.0,0.0,0.0,0.0,0.0,0.0,0.0,0.0,0.0,0.0,0.0,0.0,0.0,0.0,0.0,0.0,0.0,0.0,0.0,0.0,0.0,0.0,0.0,0.0,0.0,0.0,0.0,0.0,0.0,0.0,0.0,0.0,0.0,0.0,0.0,0.0,0.0,0.0,0.0,0.0,0.0,0.0,0.0,0.0,0.0,0.0,0.0,0.0,0.0,0.0,0.0,0.0,0.0,0.0,0.0,0.0,0.0,0.0,0.0,0.0,0.0,0.0,0.0,0.0,0.0,0.0,0.0,0.0,0.0,0.0,0.0,0.0,0.0,0.0,0.0,0.0,0.0,0.0,0.0,0.0,0.0,0.0,0.0,0.0,0.0,0.0,0.0,0.0,0.0,0.0,0.0,0.0,0.0,0.0,0.0,0.0,0.0,0.0,0.0,0.0,0.0,0.0,0.0,0.0,0.0,-0.4784,-0.4784,-0.4784,-0.4935,0.0,0.0,0.0,0.0,0.0,0.0,0.0,0.0,0.0,0.0,0.0,0.0,0.0,0.0,0.0,0.0,0.0,0.0,0.0,0.0,0.0,0.0,0.0,0.0,0.0,0.0,0.0,0.0,0.0,0.0,0.0,0.0,0.0,0.0,0.0,0.0,0.0,0.0,0.0,0.0,0.0,0.0,0.0,0.0,0.0,0.0,0.0,0.0,0.0,0.0,0.0,0.0,0.0,0.0,0.0,0.0,0.0,0.0,0.0,0.0,0.0,0.0,0.0,0.0,0.0,0.0,0.0,0.0,0.0,0.0,0.0,0.0,0.0,0.0,0.0,0.0,0.0,0.0,0.0,0.0,0.0,0.0,0.0,0.0,0.0,0.0,0.0,0.0,0.0,0.0,0.0,0.0,0.0,0.0,0.0,0.0,0.0,0.0,0.0,0.0,0.0,0.0,0.0,0.0,0.0,0.0,0.0,0.0,0.0,0.0,-0.4882,-0.4874,-0.4846,-0.4822,-0.4897,-0.5149,0.0,0.0,0.0,0.0,0.0,0.0,0.0,0.0,0.0,0.0,0.0,0.0,0.0,0.0,0.0,0.0,0.0,0.0,0.0,0.0,0.0,0.0,0.0,0.0,0.0,0.0,0.0,0.0,0.0,0.0,0.0,0.0,0.0,0.0,0.0,0.0,0.0,0.0,0.0,0.0,0.0,0.0,0.0,0.0,0.0,0.0,0.0,0.0,0.0,0.0,0.0,0.0,0.0,0.0,0.0,0.0,0.0,0.0,0.0,0.0,0.0,0.0,0.0,0.0,0.0,0.0,0.0,0.0,0.0,0.0,0.0,0.0,0.0,0.0,0.0,0.0,0.0,0.0,0.0,0.0,0.0,0.0,0.0,0.0,0.0,0.0,0.0,0.0,0.0,0.0,0.0,0.0,0.0,0.0,0.0,0.0,0.0,0.0,0.0,0.0,0.0,0.0,0.0,0.0,0.0,0.0,0.0,0.0,-0.5092,-0.5092,-0.5055,-0.4995,-0.4854,-0.4875,0.0,0.0,0.0,0.0,0.0,0.0,0.0,0.0,0.0,0.0,0.0,0.0,0.0,0.0,0.0,0.0,0.0,0.0,0.0,0.0,0.0,0.0,0.0,0.0,0.0,0.0,0.0,0.0,0.0,0.0,0.0,0.0,0.0,0.0,0.0,0.0,0.0,0.0,0.0,0.0,0.0,0.0,0.0,0.0,0.0,0.0,0.0,0.0,0.0,0.0,0.0,0.0,0.0,0.0,0.0,0.0,0.0,0.0,0.0,0.0,0.0,0.0,0.0,0.0,0.0,0.0,0.0,0.0,0.0,0.0,0.0,0.0,0.0,0.0,0.0,0.0,0.0,0.0,0.0,0.0,0.0,0.0,0.0,0.0,0.0,0.0,0.0,0.0,0.0,0.0,0.0,0.0,0.0,0.0,0.0,0.0,0.0,0.0,0.0,0.0,0.0,0.0,0.0,0.0,0.0,0.0,0.0,0.0,0.0,-0.5108,-0.5108,-0.5092,-0.5059,-0.5026,-0.5,0.0,0.0,0.0,0.0,0.0,0.0,0.0,0.0,0.0,0.0,0.0,0.0,0.0,0.0,0.0,0.0,0.0,0.0,0.0,0.0,0.0,0.0,0.0,0.0,0.0,0.0,0.0,0.0,0.0,0.0,0.0,0.0,0.0,0.0,0.0,0.0,0.0,0.0,0.0,0.0,0.0,0.0,0.0,0.0,0.0,0.0,0.0,0.0,0.0,0.0,0.0,0.0,0.0,0.0,0.0,0.0,0.0,0.0,0.0,0.0,0.0,0.0,0.0,0.0,0.0,0.0,0.0,0.0,0.0,0.0,0.0,0.0,0.0,0.0,0.0,0.0,0.0,0.0,0.0,0.0,0.0,0.0,0.0,0.0,0.0,0.0,0.0,0.0,0.0,0.0,0.0,0.0,0.0,0.0,0.0,0.0,0.0,0.0,0.0,0.0,0.0,0.0,0.0,0.0,0.0,0.0,0.0,0.0,0.0,-0.5194,0.0,-0.5122,-0.5122,-0.5124,-0.5098,0.0,0.0,0.0,0.0,0.0,0.0,0.0,0.0,0.0,0.0,0.0,0.0,0.0,0.0,0.0,0.0,0.0,0.0,0.0,0.0,0.0,0.0,0.0,0.0,0.0,0.0,0.0,0.0,0.0,0.0,0.0,0.0,0.0,0.0,0.0,0.0,0.0,0.0,0.0,0.0,0.0,0.0,0.0,0.0,0.0,0.0,0.0,0.0,0.0,0.0,0.0,0.0,0.0,0.0,0.0,0.0,0.0,0.0,0.0,0.0,0.0,0.0,0.0,0.0,0.0,0.0,0.0,0.0,0.0,0.0,0.0,0.0,0.0,0.0,0.0,0.0,0.0,0.0,0.0,0.0,0.0,0.0,0.0,0.0,0.0,0.0,0.0,0.0,0.0,0.0,0.0,0.0,0.0,0.0,0.0,0.0,0.0,0.0,0.0,0.0,0.0,0.0,0.0,0.0,0.0,0.0,0.0,0.0,-0.5405,-0.5401,-0.5292,-0.5192,-0.5188,-0.5138,-0.513,0.0,0.0,0.0,0.0,0.0,0.0,0.0,0.0,0.0,0.0,0.0,0.0,0.0,0.0,0.0,0.0,0.0,0.0,0.0,0.0,0.0,0.0,0.0,0.0,0.0,0.0,0.0,0.0,0.0,0.0,0.0,0.0,0.0,0.0,0.0,0.0,0.0,0.0,0.0,0.0,0.0,0.0,0.0,0.0,0.0,0.0,0.0,0.0,0.0,0.0,0.0,0.0,0.0,0.0,0.0,0.0,0.0,0.0,0.0,0.0,0.0,0.0,0.0,0.0,0.0,0.0,0.0,0.0,0.0,0.0,0.0,0.0,0.0,0.0,0.0,0.0,0.0,0.0,0.0,0.0,0.0,0.0,0.0,0.0,0.0,0.0,0.0,0.0,0.0,0.0,0.0,0.0,0.0,0.0,0.0,0.0,0.0,0.0,0.0,0.0,0.0,0.0,0.0,0.0,0.0,0.0,0.0,0.0,0.0,-0.5409,-0.5353,-0.5341,-0.5337,-0.5312,-0.5308,0.0,0.0,0.0,0.0,0.0,0.0,0.0,0.0,0.0,0.0,0.0,0.0,0.0,0.0,0.0,0.0,0.0,0.0,0.0,0.0,0.0,0.0,0.0,0.0,0.0,0.0,0.0,0.0,0.0,0.0,0.0,0.0,0.0,0.0,0.0,0.0,0.0,0.0,0.0,0.0,0.0,0.0,0.0,0.0,0.0,0.0,0.0,0.0,0.0,0.0,0.0,0.0,0.0,0.0,0.0,0.0,0.0,0.0,0.0,0.0,0.0,0.0,0.0,0.0,0.0,0.0,0.0,0.0,0.0,0.0,0.0,0.0,0.0,0.0,0.0,0.0,0.0,0.0,0.0,0.0,0.0,0.0,0.0,0.0,0.0,0.0,0.0,0.0,0.0,0.0,0.0,0.0,0.0,0.0,0.0,0.0,0.0,0.0,0.0,0.0,0.0,0.0,0.0,0.0,0.0,0.0,0.0,0.0,0.0,-0.5426,-0.5398,-0.5409,-0.5409,-0.5409,-0.5409,-0.5409,0.0,0.0,0.0,0.0,0.0,0.0,0.0,0.0,0.0,0.0,0.0,0.0,0.0,0.0,0.0,0.0,0.0,0.0,0.0,0.0,0.0,0.0,0.0,0.0,0.0,0.0,0.0,0.0,0.0,0.0,0.0,0.0,0.0,0.0,0.0,0.0,0.0,0.0,0.0,0.0,0.0,0.0,0.0,0.0,0.0,0.0,0.0,0.0,0.0,0.0,0.0,0.0,0.0,0.0,0.0,0.0,0.0,0.0,0.0,0.0,0.0,0.0,0.0,0.0,0.0,0.0,0.0,0.0,0.0,0.0,0.0,0.0,0.0,0.0,0.0,0.0,0.0,0.0,0.0,0.0,0.0,0.0,0.0,0.0,0.0,0.0,0.0,0.0,0.0,0.0,0.0,0.0,0.0,0.0,0.0,0.0,0.0,0.0,0.0,0.0,0.0,0.0,0.0,0.0,0.0,0.0,0.0,0.0,-0.5516,-0.5439,-0.5394,-0.5409,-0.5409,-0.5409,0.0,0.0,0.0,0.0,0.0,0.0,0.0,0.0,0.0,0.0,0.0,0.0,0.0,0.0,0.0,0.0,0.0,0.0,0.0,0.0,0.0,0.0,0.0,0.0,0.0,0.0,0.0,0.0,0.0,0.0,0.0,0.0,0.0,0.0,0.0,0.0,0.0,0.0,0.0,0.0,0.0,0.0,0.0,0.0,0.0,0.0,0.0,0.0,0.0,0.0,0.0,0.0,0.0,0.0,0.0,0.0,0.0,0.0,0.0,0.0,0.0,0.0,0.0,0.0,0.0,0.0,0.0,0.0,0.0,0.0,0.0,0.0,0.0,0.0,0.0,0.0,0.0,0.0,0.0,0.0,0.0,0.0,0.0,0.0,0.0,0.0,0.0,0.0,0.0,0.0,0.0,0.0,0.0,0.0,0.0,0.0,0.0,0.0,0.0,0.0,0.0,0.0,0.0,0.0,0.0,0.0,0.0,0.0,0.0,-0.5577,-0.5557,-0.5484,-0.5418,-0.5409,-0.5409,0.0,0.0,0.0,0.0,0.0,0.0,0.0,0.0,0.0,0.0,0.0,0.0,0.0,0.0,0.0,0.0,0.0,0.0,0.0,0.0,0.0,0.0,0.0,0.0,0.0,0.0,0.0,0.0,0.0,0.0,0.0,0.0,0.0,0.0,0.0,0.0,0.0,0.0,0.0,0.0,0.0,0.0,0.0,0.0,0.0,0.0,0.0,0.0,0.0,0.0,0.0,0.0,0.0,0.0,0.0,0.0,0.0,0.0,0.0,0.0,0.0,0.0,0.0,0.0,0.0,0.0,0.0,0.0,0.0,0.0,0.0,0.0,0.0,0.0,0.0,0.0,0.0,0.0,0.0,0.0,0.0,0.0,0.0,0.0,0.0,0.0,0.0,0.0,0.0,0.0,0.0,0.0,0.0,0.0,0.0,0.0,0.0,0.0,0.0,0.0,0.0,0.0,0.0,0.0,0.0,0.0,0.0,0.0,-0.567,-0.5675,-0.567,-0.5635,-0.5496,-0.5492,-0.5492,0.0,0.0,0.0,0.0,0.0,0.0,0.0,0.0,0.0,0.0,0.0,0.0,0.0,0.0,0.0,0.0,0.0,0.0,0.0,0.0,0.0,0.0,0.0,0.0,0.0,0.0,0.0,0.0,0.0,0.0,0.0,0.0,0.0,0.0,0.0,0.0,0.0,0.0,0.0,0.0,0.0,0.0,0.0,0.0,0.0,0.0,0.0,0.0,0.0,0.0,0.0,0.0,0.0,0.0,0.0,0.0,0.0,0.0,0.0,0.0,0.0,0.0,0.0,0.0,0.0,0.0,0.0,0.0,0.0,0.0,0.0,0.0,0.0,0.0,0.0,0.0,0.0,0.0,0.0,0.0,0.0,0.0,0.0,0.0,0.0,0.0,0.0,0.0,0.0,0.0,0.0,0.0,0.0,0.0,0.0,0.0,0.0,0.0,0.0,0.0,0.0,0.0,0.0,0.0,0.0,0.0,0.0,0.0,-0.5794,-0.5794,-0.5794,-0.5753,-0.5646,-0.5626,-0.5584,0.0,0.0,0.0,0.0,0.0,0.0,0.0,0.0,0.0,0.0,0.0,0.0,0.0,0.0,0.0,0.0,0.0,0.0,0.0,0.0,0.0,0.0,0.0,0.0,0.0,0.0,0.0,0.0,0.0,0.0,0.0,0.0,0.0,0.0,0.0,0.0,0.0,0.0,0.0,0.0,0.0,0.0,0.0,0.0,0.0,0.0,0.0,0.0,0.0,0.0,0.0,0.0,0.0,0.0,0.0,0.0,0.0,0.0,0.0,0.0,0.0,0.0,0.0,0.0,0.0,0.0,0.0,0.0,0.0,0.0,0.0,0.0,0.0,0.0,0.0,0.0,0.0,0.0,0.0,0.0,0.0,0.0,0.0,0.0,0.0,0.0,0.0,0.0,0.0,0.0,0.0,0.0,0.0,0.0,0.0,0.0,0.0,0.0,0.0,0.0,0.0,0.0,0.0,0.0,0.0,0.0,0.0,0.0,-0.5888,-0.5888,-0.5888,-0.5849,-0.5859,-0.5661,-0.5584,0.0,0.0,0.0,0.0,0.0,0.0,0.0,0.0,0.0,0.0,0.0,0.0,0.0,0.0,0.0,0.0,0.0,0.0,0.0,0.0,0.0,0.0,0.0,0.0,0.0,0.0,0.0,0.0,0.0,0.0,0.0,0.0,0.0,0.0,0.0,0.0,0.0,0.0,0.0,0.0,0.0,0.0,0.0,0.0,0.0,0.0,0.0,0.0,-0.5409,0.0,0.0,0.0,0.0,0.0,0.0,0.0,0.0,0.0,0.0,0.0,0.0,0.0,0.0,0.0,0.0,0.0,0.0,0.0,0.0,0.0,0.0,0.0,0.0,0.0,0.0,0.0,0.0,0.0,0.0,0.0,0.0,0.0,0.0,0.0,0.0,0.0,0.0,0.0,0.0,0.0,0.0,0.0,0.0,0.0,0.0,0.0,0.0,0.0,0.0,0.0,0.0,0.0,0.0,0.0,0.0,0.0,0.0,0.0,-0.5886,-0.5886,-0.5886,-0.5886,-0.5882,-0.5792,-0.5744,0.0,0.0,0.0,0.0,0.0,0.0,0.0,0.0,0.0,0.0,0.0,0.0,0.0,0.0,0.0,0.0,0.0,0.0,0.0,0.0,0.0,0.0,0.0,0.0,0.0,0.0,0.0,0.0,0.0,0.0,0.0,0.0,0.0,0.0,0.0,0.0,0.0,0.0,0.0,0.0,0.0,0.0,0.0,0.0,0.0,0.0,0.0,0.0,0.0,0.0,0.0,0.0,0.0,0.0,0.0,0.0,0.0,0.0,0.0,0.0,0.0,0.0,0.0,0.0,0.0,0.0,0.0,0.0,0.0,0.0,0.0,0.0,0.0,0.0,0.0,0.0,0.0,0.0,0.0,0.0,0.0,0.0,0.0,0.0,0.0,0.0,0.0,0.0,0.0,0.0,0.0,0.0,0.0,0.0,0.0,0.0,0.0,0.0,0.0,0.0,0.0,0.0,0.0,0.0,0.0,0.0,0.0,-0.5922,-0.5957,-0.5957,-0.5957,-0.5957,-0.5926,-0.5945,-0.5914,-0.5926,0.0,0.0,0.0,0.0,0.0,0.0,0.0,0.0,0.0,0.0,0.0,0.0,0.0,0.0,0.0,0.0,0.0,0.0,0.0,0.0,0.0,0.0,0.0,0.0,0.0,0.0,0.0,0.0,0.0,0.0,0.0,0.0,0.0,0.0,0.0,0.0,0.0,0.0,-0.5398,-0.5414,0.0,0.0,0.0,0.0,0.0,0.0,0.0,0.0,-0.5467,0.0,0.0,0.0,0.0,0.0,0.0,0.0,0.0,0.0,0.0,0.0,0.0,0.0,0.0,0.0,0.0,0.0,0.0,0.0,0.0,0.0,0.0,0.0,0.0,0.0,0.0,0.0,0.0,0.0,0.0,0.0,0.0,0.0,0.0,0.0,0.0,0.0,0.0,0.0,0.0,0.0,0.0,0.0,0.0,0.0,0.0,0.0,0.0,0.0,0.0,0.0,0.0,0.0,0.0,0.0,0.0,-0.5968,-0.61,-0.6137,-0.6137,-0.6137,-0.6137,-0.6133,-0.6036,-0.6032,-0.6125,0.0,0.0,0.0,0.0,0.0,0.0,0.0,0.0,0.0,0.0,0.0,0.0,0.0,0.0,0.0,0.0,0.0,0.0,0.0,0.0,0.0,0.0,0.0,0.0,0.0,0.0,0.0,0.0,0.0,0.0,0.0,0.0,0.0,0.0,0.0,0.0,0.0,0.0,0.0,-0.5524,-0.5573,0.0,0.0,0.0,0.0,0.0,0.0,0.0,0.0,-0.5569,0.0,0.0,0.0,0.0,0.0,0.0,0.0,0.0,0.0,0.0,0.0,0.0,0.0,0.0,0.0,0.0,0.0,0.0,0.0,0.0,0.0,0.0,0.0,0.0,0.0,0.0,0.0,0.0,0.0,0.0,0.0,0.0,0.0,0.0,0.0,0.0,0.0,0.0,0.0,0.0,0.0,0.0,0.0,0.0,0.0,0.0,0.0,0.0,0.0,0.0,0.0,0.0,0.0,0.0,0.0,-0.6121,-0.6161,-0.6182,-0.6182,-0.6182,-0.6182,-0.6182,-0.6141,-0.6137,0.0,0.0,0.0,0.0,0.0,0.0,0.0,0.0,0.0,0.0,0.0,0.0,0.0,0.0,0.0,0.0,0.0,0.0,0.0,0.0,0.0,0.0,0.0,0.0,0.0,0.0,0.0,0.0,0.0,0.0,0.0,0.0,0.0,0.0,0.0,0.0,0.0,0.0,0.0,0.0,-0.5585,-0.5676,-0.5823,0.0,0.0,0.0,0.0,0.0,0.0,-0.5646,-0.56,0.0,0.0,0.0,0.0,0.0,0.0,0.0,0.0,0.0,0.0,0.0,0.0,0.0,0.0,0.0,0.0,0.0,0.0,0.0,0.0,0.0,0.0,0.0,0.0,0.0,0.0,0.0,0.0,0.0,0.0,0.0,0.0,0.0,0.0,0.0,0.0,0.0,0.0,0.0,0.0,0.0,0.0,0.0,0.0,0.0,0.0,0.0,0.0,0.0,0.0,0.0,0.0,0.0,0.0,0.0,-0.6239,-0.6259,-0.6267,-0.6267,-0.6267,-0.6267,-0.6267,-0.6219,-0.6251,0.0,0.0,0.0,0.0,0.0,0.0,0.0,0.0,0.0,0.0,0.0,0.0,0.0,0.0,0.0,0.0,0.0,0.0,0.0,0.0,0.0,0.0,0.0,0.0,0.0,0.0,0.0,0.0,0.0,0.0,0.0,0.0,0.0,0.0,0.0,0.0,0.0,0.0,0.0,0.0,0.0,-0.5789,-0.6118,-0.5877,0.0,0.0,0.0,0.0,-0.5798,-0.5715,0.0,0.0,0.0,0.0,0.0,0.0,0.0,0.0,0.0,0.0,0.0,0.0,0.0,0.0,0.0,0.0,0.0,0.0,0.0,0.0,0.0,0.0,0.0,0.0,0.0,0.0,0.0,0.0,0.0,0.0,0.0,0.0,0.0,0.0,0.0,0.0,0.0,0.0,0.0,0.0,0.0,0.0,0.0,0.0,0.0,0.0,0.0,0.0,0.0,0.0,0.0,0.0,0.0,0.0,0.0,0.0,-0.6272,-0.6415,-0.6456,-0.6456,-0.6489,-0.6456,-0.6456,-0.6345,-0.637,0.0,0.0,0.0,0.0,0.0,0.0,0.0,0.0,0.0,0.0,0.0,0.0,0.0,0.0,0.0,0.0,0.0,0.0,0.0,0.0,0.0,0.0,0.0,0.0,0.0,0.0,0.0,0.0,0.0,0.0,0.0,0.0,0.0,0.0,0.0,0.0,0.0,0.0,0.0,0.0,0.0,-0.5975,-0.6311,-0.6067,-0.5975,0.0,0.0,-0.5857,-0.59,-0.5892,0.0,0.0,0.0,0.0,0.0,0.0,0.0,0.0,0.0,0.0,0.0,0.0,0.0,0.0,0.0,0.0,0.0,0.0,0.0,0.0,0.0,0.0,0.0,0.0,0.0,0.0,0.0,0.0,0.0,0.0,0.0,0.0,0.0,0.0,0.0,0.0,0.0,0.0,0.0,0.0,0.0,0.0,0.0,0.0,0.0,0.0,0.0,0.0,0.0,0.0,0.0,0.0,0.0,0.0,0.0,-0.6394,-0.6394,-0.6464,-0.6489,-0.6489,-0.6489,-0.6489,-0.6489,-0.6448,-0.6448,0.0,0.0,0.0,0.0,0.0,0.0,0.0,0.0,0.0,0.0,0.0,0.0,0.0,0.0,0.0,0.0,0.0,0.0,0.0,0.0,0.0,0.0,0.0,0.0,0.0,0.0,0.0,0.0,0.0,0.0,0.0,0.0,0.0,0.0,0.0,0.0,0.0,0.0,0.0,0.0,0.0,0.0,-0.6653,-0.6421,0.0,0.0,0.0,-0.6131,-0.6324,0.0,0.0,0.0,0.0,0.0,0.0,0.0,0.0,0.0,0.0,0.0,0.0,0.0,0.0,0.0,0.0,0.0,0.0,0.0,0.0,0.0,0.0,0.0,0.0,0.0,0.0,0.0,0.0,0.0,0.0,0.0,0.0,0.0,0.0,0.0,0.0,0.0,0.0,0.0,0.0,0.0,0.0,0.0,0.0,0.0,0.0,0.0,0.0,0.0,0.0,0.0,0.0,0.0,0.0,0.0,0.0,0.0,-0.6489,-0.6509,-0.6522,-0.6522,-0.6542,-0.6555,-0.6555,-0.6555,0.0,0.0,0.0,0.0,0.0,0.0,0.0,0.0,0.0,0.0,0.0,0.0,0.0,0.0,0.0,0.0,0.0,0.0,0.0,0.0,0.0,0.0,0.0,0.0,0.0,0.0,0.0,-0.5814,0.0,0.0,0.0,0.0,0.0,0.0,0.0,0.0,0.0,0.0,0.0,0.0,0.0,0.0,-0.6633,-0.7036,-0.6853,-0.6899,0.0,0.0,-0.6567,-0.6796,-0.6631,-0.6438,0.0,0.0,0.0,0.0,0.0,0.0,0.0,0.0,0.0,0.0,0.0,0.0,0.0,0.0,0.0,0.0,0.0,0.0,0.0,0.0,0.0,0.0,0.0,0.0,0.0,0.0,0.0,0.0,0.0,0.0,0.0,0.0,0.0,0.0,0.0,0.0,0.0,0.0,0.0,0.0,0.0,0.0,0.0,0.0,0.0,0.0,0.0,0.0,0.0,0.0,0.0,0.0,0.0,0.0,-0.6489,-0.6489,-0.6571,-0.6582,-0.6582,-0.6664,-0.6674,-0.6674,-0.6674,-0.6705,0.0,0.0,0.0,0.0,0.0,0.0,0.0,0.0,0.0,0.0,0.0,0.0,0.0,0.0,0.0,0.0,0.0,0.0,0.0,0.0,0.0,0.0,0.0,0.0,0.0,0.0,0.0,0.0,0.0,0.0,0.0,0.0,0.0,0.0,0.0,0.0,0.0,0.0,0.0,0.0,0.0,-0.6933,-0.7566,-0.7412,-0.7358,0.0,-0.7427,-0.7239,-0.7276,-0.7244,-0.7111,-0.6731,0.0,0.0,0.0,0.0,0.0,0.0,0.0,0.0,0.0,0.0,0.0,0.0,0.0,0.0,0.0,0.0,0.0,0.0,0.0,0.0,0.0,0.0,0.0,0.0,0.0,0.0,0.0,0.0,0.0,0.0,0.0,0.0,0.0,0.0,0.0,0.0,0.0,0.0,0.0,0.0,0.0,0.0,0.0,0.0,0.0,0.0,0.0,0.0,0.0,0.0,0.0,0.0,0.0,-0.6623,-0.6623,-0.6656,-0.6637,-0.6641,-0.6674,-0.6725,-0.6725,-0.6725,-0.6725,0.0,0.0,0.0,0.0,0.0,0.0,0.0,0.0,0.0,0.0,0.0,0.0,0.0,0.0,0.0,0.0,0.0,0.0,0.0,0.0,0.0,0.0,0.0,0.0,0.0,0.0,0.0,0.0,-0.6778,-0.7023,-0.7023,0.0,0.0,0.0,0.0,0.0,0.0,0.0,0.0,0.0,0.0,-0.753,-0.7789,-0.7845,0.0,0.0,-0.7952,-0.7762,-0.7964,-0.7795,-0.7627,-0.7463,-0.6648,0.0,0.0,0.0,0.0,0.0,0.0,0.0,0.0,0.0,0.0,0.0,0.0,0.0,0.0,0.0,0.0,0.0,0.0,0.0,0.0,0.0,0.0,0.0,0.0,0.0,0.0,0.0,0.0,0.0,0.0,0.0,0.0,0.0,0.0,0.0,0.0,0.0,0.0,0.0,0.0,0.0,0.0,0.0,0.0,0.0,0.0,0.0,0.0,0.0,0.0,0.0,0.0,-0.6453,-0.6023,-0.6504,-0.6766,-0.6762,-0.679,-0.6771,-0.6807,-0.6807,-0.6842,0.0,0.0,0.0,0.0,0.0,0.0,0.0,0.0,0.0,0.0,0.0,0.0,0.0,0.0,0.0,0.0,0.0,0.0,0.0,0.0,0.0,0.0,0.0,0.0,0.0,0.0,0.0,0.0,-0.7236,-0.7513,-0.7609,0.0,0.0,0.0,0.0,0.0,0.0,0.0,0.0,0.0,0.0,-0.8102,-0.8174,-0.8314,-0.8515,-0.8789,-0.848,-0.8288,-0.8531,-0.8358,-0.8149,-0.8074,0.0,0.0,0.0,0.0,0.0,0.0,0.0,0.0,0.0,0.0,0.0,0.0,0.0,0.0,0.0,0.0,0.0,0.0,0.0,0.0,0.0,0.0,0.0,0.0,0.0,0.0,0.0,-0.1796,0.0,0.0,-0.1998,0.0,0.0,0.0,0.0,0.0,0.0,0.0,0.0,0.0,0.0,0.0,0.0,0.0,0.0,0.0,0.0,0.0,0.0,0.0,0.0,0.0,0.0,-0.5877,-0.4512,-0.6061,-0.6887,-0.6927,-0.6973,-0.7014,-0.7014,-0.7018,-0.72,-0.7557,0.0,0.0,0.0,0.0,0.0,0.0,0.0,0.0,0.0,0.0,0.0,0.0,0.0,0.0,0.0,0.0,0.0,0.0,0.0,0.0,0.0,0.0,0.0,0.0,0.0,0.0,-0.7318,-0.7659,-0.8018,0.0,0.0,0.0,0.0,0.0,0.0,0.0,0.0,0.0,-0.8669,-0.8547,-0.8516,-0.8833,-0.8874,-0.8884,-0.8884,-0.8884,-0.8884,-0.889,-0.885,-0.8775,0.0,0.0,0.0,0.0,0.0,0.0,0.0,0.0,0.0,0.0,0.0,0.0,0.0,0.0,0.0,0.0,0.0,0.0,0.0,0.0,0.0,0.0,0.0,0.0,0.0,0.0,0.0,-0.2288,-0.1847,0.0,0.0,0.0,0.0,0.0,0.0,0.0,0.0,0.0,0.0,0.0,0.2095,0.2147,0.0,0.0,0.0,0.0,0.0,0.0,0.0,0.0,0.0,0.0,0.0,0.0,-0.4399,-0.4952,-0.5731,-0.6649,-0.7666,-0.7734,-0.7752,-0.7715,-0.7715,-0.7788,-0.7933,0.0,0.0,0.0,0.0,0.0,0.0,0.0,0.0,0.0,0.0,0.0,0.0,0.0,0.0,0.0,0.0,0.0,0.0,0.0,0.0,0.0,0.0,0.0,0.0,0.0,-0.786,0.0,0.0,0.0,0.0,0.0,0.0,0.0,0.0,0.0,0.0,0.0,-0.8673,-0.8849,-0.8852,-0.8897,-0.9038,-0.9103,-0.9152,0.0,0.0,0.0,0.0,0.0,0.0,0.0,0.0,0.0,0.0,0.0,0.0,0.0,0.0,-0.1022,-0.0511,0.0411,0.1065,0.1065,0.0,0.0,0.0,0.0,0.0,0.0,0.0,0.0,0.0,0.0,0.0,0.0,0.0,0.0,-0.0975,-0.0508,-0.0508,0.0,0.0,0.0,0.0,0.0,0.0,0.0,0.0,0.1994,0.1906,0.1908,0.1832,0.1819,0.0,0.1696,0.1722,0.0,0.0,0.0,0.0,0.0,0.0,0.0,0.0,-0.3982,-0.4615,-0.5927,-0.7091,-0.8041,-0.8082,-0.8082,-0.8082,-0.8222,-0.83,-0.8295,-0.8295,-0.8203,0.0,0.0,0.0,0.0,0.0,0.0,0.0,0.0,0.0,0.0,0.0,0.0,0.0,0.0,0.0,0.0,0.0,0.0,0.0,0.0,0.0,0.0,0.0,-0.8391,0.0,0.0,0.0,0.0,0.0,0.0,0.0,0.0,0.0,-0.8979,-0.8979,-0.8995,-0.9033,-0.9141,-0.9258,-0.9258,0.0,0.0,0.0,0.0,0.0,0.0,0.0,-0.9432,-0.9432,-0.8585,-0.7568,-0.6446,-0.5417,-0.4379,-0.3254,0.0,0.0,-0.151,-0.0315,0.0736,0.0736,0.0696,0.0659,0.07,0.0697,0.0659,0.0,0.0,0.0,0.0,0.0,0.0,0.0,0.0,0.0161,0.0838,0.0,0.2001,0.0,0.0,0.0,0.0,0.2116,0.2144,0.0,0.0,0.1743,0.1582,0.1548,0.1254,0.1087,0.1123,0.1475,0.1439,0.1123,0.1088,0.0,0.0,0.0,0.0,0.0,0.0,-0.4487,-0.3669,-0.6475,-0.8078,-0.815,-0.815,-0.8155,-0.815,-0.8512,-0.8729,-0.8729,-0.8729,-0.8678,-0.8606,-0.8277,0.0,0.0,0.0,0.0,0.0,0.0,0.0,0.0,0.0,0.0,0.0,0.0,0.0,0.0,0.0,0.0,0.0,0.0,0.0,0.0,-0.8914,0.0,0.0,0.0,0.0,0.0,0.0,0.0,0.0,0.0,0.0,-0.9125,-0.9119,-0.9152,-0.9302,0.0,0.0,0.0,0.0,-0.9703,-0.9703,-0.9703,-0.9703,-0.9703,-0.9703,-0.9703,-0.9703,0.0,0.0,-0.5547,-0.4982,-0.4057,-0.0857,-0.052,-0.0625,-0.2017,-0.0985,0.0,0.0,0.0,0.0,0.0,0.0,0.0,0.0803,0.0,0.0,0.0,0.0,-0.0483,0.029,0.1516,0.1516,0.1719,0.2097,0.2097,0.0,0.0,0.0,0.0,0.0,0.0,0.156,0.1803,0.1427,0.1221,0.1255,0.1155,0.1092,0.1103,0.0925,0.0822,0.0721,0.0433,0.0647,0.1246,0.0,0.0,0.0,0.0,-0.3078,-0.3996,-0.6177,-0.7856,-0.8946,-0.8941,-0.8946,-0.8941,-0.9054,-0.9121,-0.9121,-0.9121,-0.9002,-0.8683,-0.8564,0.0,0.0,0.0,0.0,0.0,0.0,0.0,0.0,0.0,0.0,0.0,0.0,0.0,0.0,0.0,0.0,0.0,0.0,0.0,-0.8879,-0.8914,-0.8952,0.0,0.0,0.0,0.0,0.0,0.0,0.0,0.0,0.0,-0.9514,-0.9438,-0.9432,0.0,0.0,-0.9654,-0.9654,-0.9687,-0.9703,-0.9703,-0.9703,0.0,-0.9703,-0.9703,-0.9703,-0.9703,-0.9703,-0.9366,-0.8455,-0.8304,-0.7615,-0.5447,-0.4207,-0.322,-0.2336,-0.1058,0.0,0.0,0.0,0.0,0.0,0.0,0.0,0.1617,0.07,0.0,0.02,0.0934,0.0934,0.1368,0.2136,0.2136,0.2079,0.1961,0.2062,0.2071,0.1985,0.2003,0.0,0.0,0.0,0.1227,0.1439,0.1058,0.0884,0.0849,0.0711,0.068,0.0649,0.0577,0.0471,0.0365,0.0292,0.0363,0.0685,0.0,0.0,0.0875,-0.1455,-0.3199,-0.4397,-0.6684,-0.8357,-0.9266,-0.9351,-0.94,-0.9449,-0.9449,-0.9449,-0.9449,-0.9449,-0.9339,-0.9118,-0.9082,-0.8982,0.0,0.0,0.0,0.0,0.0,0.0,0.0,0.0,0.0,0.0,0.0,-0.8837,-0.9054,0.0,0.0,0.0,-0.9054,-0.9054,-0.9054,-0.9098,0.0,0.0,0.0,0.0,0.0,0.0,0.0,-0.9594,-0.9661,-0.9753,-0.9802,-0.9786,-0.9764,-0.9737,-0.9775,-0.9829,-0.9911,0.0,-0.9993,-0.9993,-0.9993,-0.9954,-0.9993,-0.9993,-0.9954,-0.9954,-0.9993,-0.9678,-0.9055,-0.8978,-0.8379,-0.6795,-0.5091,-0.3662,-0.2648,-0.1138,0.0,0.0,0.0,0.0,0.0,0.0,0.0,0.1865,0.1512,0.19,0.2109,0.2105,0.2105,0.2105,0.2105,0.2105,0.193,0.1684,0.1965,0.1931,0.1651,0.1616,0.0,0.1091,0.1021,0.1021,0.1056,0.0641,0.0466,0.043,0.0145,0.0,0.0,0.0401,0.0365,0.0036,0.0365,0.0365,0.0,0.0365,0.0548,0.0401,-0.2581,-0.4364,-0.4738,-0.7752,-0.9287,-0.9334,-0.9443,-0.9594,-0.9698,-0.9703,-0.9703,-0.9703,-0.9703,-0.9703,-0.9703,-0.9703,-0.9703,-0.9703,0.0,0.0,0.0,0.0,0.0,0.0,0.0,0.0,0.0,0.0,0.0,0.0,0.0,0.0,-0.9334,-0.9334,0.0,-0.9329,-0.9438,0.0,0.0,0.0,-0.9709,-0.972,-0.9693,-0.9704,-0.9709,0.0,0.0,-1.0036,-1.0144,-1.0139,-0.9883,-0.9943,-1.009,-1.0204,-1.0302,-1.0424,-1.0356,-1.0413,-1.0418,-1.0335,-1.0346,-1.038,-1.034,-1.0424,-0.9829,-0.8607,-0.8245,-0.7497,-0.6065,-0.427,-0.3143,-0.2952,-0.1571,0.0,0.0,0.0,0.0,0.0,0.0,0.0,0.0686,-0.0361,0.0903,0.143,0.1368,0.1368,0.1368,0.1368,0.1368,0.1298,0.1227,0.1333,0.1341,0.1211,0.0926,0.0931,0.1157,0.0542,0.0398,0.0687,0.0327,0.0145,0.0109,0.0036,0.0,0.0,0.0109,0.0109,0.0,0.0109,0.0073,0.0,0.0111,0.0147,0.0036,-0.2985,-0.4639,-0.4756,-0.7856,-0.9492,-0.9616,-0.9649,-0.9676,-0.9703,-0.9703,-0.9703,-0.9703,-0.9703,-0.9703,-0.9703,-0.9703,-0.9703,-0.9703,-0.9682,0.0,0.0,0.0,0.0,0.0,0.0,0.0,0.0,0.0,-0.9345,-0.9432,0.0,-0.9481,0.0,-0.9584,-0.9622,-0.9579,-0.9643,0.0,0.0,-0.9687,-0.9704,-0.9753,-0.9878,-0.997,-1.0068,-1.0182,-1.0264,-1.0297,-1.0324,-1.0356,-1.0418,-1.0335,-1.0313,-1.0346,-1.0362,-1.0424,-1.0435,-1.0405,-1.0424,-1.044,-1.0424,-1.0435,-1.0424,-1.0429,-1.0263,-0.9854,-0.9814,-0.9275,-0.7673,-0.6982,-0.6207,-0.4992,-0.3299,-0.218,-0.1977,-0.0985,0.0,0.0,0.0,0.0,0.0593,-0.0296,0.0593,0.0809,0.0617,0.1005,0.1143,0.1143,0.1143,0.1035,0.0857,0.0893,0.0896,0.0866,0.065,0.058,0.062,0.0182,0.011,0.0331,0.011,0.0,0.0,0.0,0.0,0.0,0.0,0.0,0.0,0.0,0.0,0.0,0.0,-0.0373,-0.1187,-0.3516,-0.4749,-0.4819,-0.7955,-0.9665,-0.9737,-0.9748,-0.9769,-0.9824,-0.9862,-0.9851,-0.9905,-0.9905,-0.9932,-0.9981,-0.9976,-0.9971,-0.9981,-0.9883,-0.9851,0.0,0.0,0.0,0.0,0.0,0.0,0.0,0.0,0.0,0.0,0.0,-0.9633,-0.9703,-0.9703,-0.9703,-0.9703,-0.9753,-0.9769,-0.9818,-0.9873,-0.9954,-1.0068,-1.0296,-1.0487,-1.0554,-1.0924,-1.1155,-1.1155,-1.1252,-1.1344,-1.1455,-1.1362,-1.118,-1.0722,-1.0666,-1.0704,-1.0704,-1.0704,-1.0704,-1.0704,-1.0704,-1.0704,-1.0704,-1.0704,-1.0704,-1.0704,-1.0704,-1.0408,-0.9484,-0.8694,-0.7853,-0.6853,-0.5202,-0.3783,-0.2859,-0.1959,-0.0966,0.0,0.0,0.0,0.0719,0.0265,0.0416,0.0303,0.0076,0.0777,0.1063,0.1063,0.1064,0.0843,0.0513,0.055,0.0513,0.0513,0.0513,0.033,0.0,0.0,0.0,0.0,0.0,0.0,0.0,0.0,0.0,0.0,0.0,0.0,0.0,0.0,0.0,0.0,-0.019,-0.1063,-0.2507,-0.4257,-0.5275,-0.5449,-0.8313,-0.9786,-0.9845,-0.9861,-0.9921,-1.0024,-1.0029,-1.0106,-1.0199,-1.0204,-1.0248,-1.0329,-1.0237,-1.0237,-1.0351,-1.0161,-1.0095,0.0,-1.0128,0.0,0.0,0.0,0.0,0.0,0.0,0.0,0.0,-0.9715,-0.9758,-0.9774,-0.9812,-0.9856,-0.9872,-0.9965,-1.0109,-1.023,-1.034,-1.0462,-1.0635,-1.0941,-1.119,-1.1201,-1.1771,-1.2165,-1.213,-1.2368,-1.2509,-1.2441,-1.2411,-1.2118,-1.1376,-1.1196,-1.1192,-1.1187,-1.1144,-1.1047,-1.1058,-1.1079,-1.1074,-1.109,-1.1069,-1.1107,-1.1079,-1.1079,-1.109,-1.0913,-0.9812,-0.8826,-0.8757,-0.7177,-0.5415,-0.4153,-0.3507,-0.245,0.0,0.0,0.0,-0.053,-0.1627,-0.0416,0.0076,0.0,0.0151,0.0226,0.0226,0.0226,0.0188,0.0113,0.0113,0.0113,0.0113,0.0113,0.0075,0.0,0.0,0.0,0.0,0.0,0.0,0.0,0.0,0.0,0.0,0.0,0.0,0.0,0.0,0.0,0.0,-0.1344,-0.2199,-0.2646,0.0,0.0,0.0,-0.9687,-1.0112,-1.0139,-1.0231,-1.0291,-1.0313,-1.0318,0.0,-1.021,-1.0204,-1.0166,-1.0095,-1.0068,0.0,0.0,0.0,0.0,0.0,0.0,0.0,0.0,0.0,0.0,0.0,-1.0112,-1.0057,-0.9965,-0.9954,-0.9992,-1.0129,-1.0459,-1.0695,-1.0759,-1.1106,-1.141,-1.1531,-1.1567,-1.1681,-1.1915,-1.1993,-1.2071,-1.2222,-1.2362,-1.2429,-1.2478,-1.2478,-1.2558,-1.2576,-1.2607,-1.2575,-1.2383,-1.1972,-1.1667,-1.1624,-1.1425,-1.1155,-1.1107,-1.1155,-1.1172,-1.1107,-1.1107,-1.1112,-1.1118,-1.1112,-1.1107,-1.1112,-1.0843,-1.0546,-1.0541,-0.9132,-0.7705,-0.7407,-0.6106,-0.4076,0.0,0.0,0.0,-0.2927,-0.354,-0.281,-0.2463,0.0,-0.1579,-0.1233,-0.1193,-0.0343,0.0,0.0,0.0,0.0,0.0,0.0,0.0,0.0,0.0,0.0,0.0,0.0,0.0,0.0,0.0,0.0,0.0,0.0,0.0,0.0,0.0,-0.0429,-0.1333,-0.2169,-0.3448,-0.5178,-0.7733,-0.9392,-1.0073,-1.0231,-1.0291,-1.0297,-1.0391,-1.0424,-1.0424,-1.0424,0.0,0.0,0.0,0.0,0.0,0.0,0.0,0.0,-1.0411,0.0,-1.0547,-1.0563,-1.0585,-1.0645,-1.0857,-1.0981,-1.0975,-1.1124,-1.0993,-1.0487,-1.0572,-1.0747,-1.1016,-1.1363,-1.155,-1.1616,-1.1826,-1.2004,-1.2086,-1.211,-1.219,-1.2374,-1.2581,-1.2783,-1.2889,-1.3087,-1.3305,-1.3262,-1.337,-1.3365,-1.3415,-1.3429,-1.3475,-1.3431,-1.2854,-1.2368,-1.2324,-1.215,-1.1981,-1.1975,-1.1756,-1.1625,-1.1625,-1.145,-1.1319,-1.1319,-1.1319,-1.1319,-1.1319,-1.1275,-1.1319,-1.1226,-1.0485,-0.9275,-0.7516,-0.6294,-0.4781,-0.2031,-0.1434,-0.1097,-0.5086,-0.5083,-0.5086,-0.5044,-0.4965,-0.3587,-0.2995,-0.2872,-0.0885,0.0,0.0,0.0,0.0,0.0,0.0,0.0,0.0,0.0,0.0,0.0,0.0,0.0,0.0,0.0,0.0,0.0,-0.0316,-0.0474,-0.0474,-0.0798,-0.1681,-0.3083,-0.3473,-0.5234,-0.8289,-0.9759,-1.0427,-1.0449,-1.0427,-1.0457,-1.0416,-1.0438,-1.0449,-1.0449,-1.0552,-1.0677,-1.0749,-1.0853,-1.0903,-1.0981,-1.0887,-1.0887,-1.0967,-1.0926,-1.0962,-1.0995,-1.1012,-1.1056,-1.1198,-1.1544,-1.1797,-1.1884,-1.2125,-1.1962,-1.12,-1.1341,-1.1587,-1.1934,-1.221,-1.2368,-1.2393,-1.2435,-1.2533,-1.2586,-1.2599,-1.2697,-1.2816,-1.3143,-1.3415,-1.3458,-1.3824,-1.4159,-1.4116,-1.4167,-1.4299,-1.4299,-1.4197,-1.4299,-1.421,-1.3527,-1.2939,-1.2851,-1.275,-1.2863,-1.2825,-1.2547,-1.2343,-1.2275,-1.2021,-1.1766,-1.1766,-1.1677,-1.1632,-1.166,-1.1588,-1.1488,-1.1488,-1.1323,-1.0293,-0.7329,-0.6315,-0.5519,-0.3893,-0.3116,-0.2371,-0.5365,-0.5327,-0.5368,-0.5368,-0.5327,-0.5083,-0.5002,-0.4713,-0.1459,0.0,0.0,0.0,0.0,0.0,0.0,0.0,0.0,0.0,0.0,0.0,0.0,0.0,0.0,0.0,0.0,0.0,-0.1576,-0.2303,-0.2465,-0.3882,-0.4773,-0.5177,-0.6438,-0.8184,-1.0065,-1.0449,-1.062,-1.0641,-1.0585,-1.0571,-1.0577,-1.0634,-1.0647,-1.0693,-1.1162,-1.1389,-1.1297,-1.1777,-1.2047,-1.1992,-1.1973,-1.2022,-1.2065,-1.2053,-1.2107,-1.2228,-1.224,-1.2252,-1.2264,-1.2356,-1.2313,-1.2271,-1.2289,-1.224,-1.2131,-1.2087,-1.2135,-1.2245,-1.2667,-1.2929,-1.3075,-1.335,-1.3581,-1.3807,-1.3834,-1.3894,-1.394,-1.4041,-1.4085,-1.4079,-1.4207,-1.4258,-1.4258,-1.4278,-1.4299,-1.4299,-1.4299,-1.4299,-1.421,-1.3856,-1.3363,-1.3008,-1.292,-1.292,-1.3008,-1.2875,-1.2787,-1.2787,-1.2698,-1.2609,-1.2565,-1.2299,-1.2121,-1.2121,-1.1855,-1.1588,-1.1588,-1.1488,-1.1062,-1.0071,-0.8913,-0.7399,-0.562,-0.4204,-0.2912,-0.811,-0.811,-0.8105,-0.811,-0.8069,-0.7132,-0.624,-0.5307,-0.3651,-0.2917,-0.2915,-0.2915,-0.2915,-0.2915,-0.2917,-0.2915,-0.2915,-0.2915,-0.2955,-0.2957,-0.2931,-0.294,-0.294,-0.2956,-0.2923,-0.3004,-0.3732,-0.4178,-0.4261,-0.5221,-0.6217,-0.724,-0.9212,-1.059,-1.1352,-1.1511,-1.1533,-1.1549,-1.1214,-1.1056,-1.1129,-1.1395,-1.1578,-1.1648,-1.1967,-1.2052,-1.1992,-1.2259,-1.2392,-1.2373,-1.2367,-1.2367,-1.2319,-1.2313,-1.2343,-1.2398,-1.2405,-1.2466,-1.2613,-1.291,-1.3191,-1.335,-1.3387,-1.3387,-1.3387,-1.3079,-1.2979,-1.3264,-1.3551,-1.371,-1.3777,-1.3958,-1.4116,-1.4227,-1.4197,-1.4224,-1.4285,-1.4299,-1.4299,-1.4299,-1.4299,-1.4299,-1.4299,-1.4299,-1.4299,-1.4299,-1.4299,-1.4299,-1.4299,-1.4122,-1.3901,-1.3679,-1.3679,-1.3679,-1.3635,-1.3413,-1.3318,-1.3274,-1.3053,-1.292,-1.292,-1.2698,-1.2615,-1.2565,-1.2387,-1.2299,-1.2254,-1.2032,-1.1538,-1.0327,-0.9482,-0.8186,-0.7246,-0.5772,-0.385,-1.0465,-1.0465,-1.0465,-1.0465,-1.0343,-0.9068,-0.7799,-0.6618,-0.6618,-0.6577,-0.6489,-0.5813,-0.539,-0.539,-0.539,-0.539,-0.539,-0.539,-0.539,-0.5393,-0.5407,-0.5413,-0.5416,-0.5465,-0.5514,-0.5637,-0.6044,-0.6289,-0.6377,-0.7002,-0.8074,-0.9555,-1.1309,-1.2172,-1.2202,-1.2306,-1.2362,-1.2313,-1.2005,-1.1831,-1.1804,-1.2149,-1.2411,-1.2503,-1.2625,-1.2681,-1.2687,-1.2804,-1.2903,-1.2903,-1.2903,-1.2859,-1.2765,-1.2753,-1.2753,-1.2753,-1.2753,-1.2841,-1.3048,-1.3482,-1.3901,-1.4255,-1.4299,-1.4299,-1.4292,-1.3883,-1.3729,-1.4092,-1.4217,-1.4285,-1.4285,-1.4292,-1.4299,-1.4299,-1.4299,-1.4292,-1.4299,-1.4299,-1.4299,-1.4299,-1.4299,-1.4299,-1.4299,-1.4299,-1.4299,-1.4299,-1.4299,-1.4299,-1.4299,-1.4299,-1.4299,-1.4299,-1.4299,-1.4255,-1.4299,-1.3989,-1.3768,-1.3768,-1.3496,-1.3318,-1.3274,-1.3186,-1.3053,-1.3053,-1.292,-1.2831,-1.2831,-1.2609,-1.1866,-1.0763,-0.984,-0.8851,-0.7982,-0.6771,-0.4769,-1.0699,-1.0704,-1.0652,-1.0663,-1.0652,-1.0444,-1.0232,-1.0107,-1.0159,-1.02,-0.975,-0.6833,-0.5518,-0.539,-0.5518,-0.5602,-0.5561,-0.5434,-0.5518,-0.5564,-0.5409,-0.5437,-0.5687,-0.5861,-0.5933,-0.6346,-0.8049,-0.8962,-0.9054,-1.0621,-1.1605,-1.1969,-1.221,-1.2398,-1.2454,-1.2527,-1.249,-1.249,-1.2863,-1.2821,-1.2448,-1.249,-1.2497,-1.2509,-1.3021,-1.3309,-1.3352,-1.3832,-1.4126,-1.4126,-1.4112,-1.4112,-1.4092,-1.4099,-1.4099,-1.4092,-1.4092,-1.4126,-1.4139,-1.4204,-1.4255,-1.4299,-1.4299,-1.4299,-1.4299,-1.4241,-1.4234,-1.4278,-1.4285,-1.4299,-1.4299,-1.4299,-1.4299,-1.4299,-1.4299,-1.4299,-1.4299,-1.4299,-1.4299,-1.4299,-1.4299,-1.4299,-1.4299,-1.4299,-1.4299,-1.4299,-1.4299,-1.4306,-1.4326,-1.4319,-1.4333,-1.4319,-1.4312,-1.4312,-1.4306,-1.4299,-1.4173,-1.4173,-1.4173,-1.4091,-1.3965,-1.3736,-1.3546,-1.3502,-1.3274,-1.3053,-1.3008,-1.2837,-1.2829,-1.2302,-1.1075,-0.9572,-0.7646,-0.6739,-0.5427,-1.0695,-1.0695,-1.0695,-1.0695,-1.0695,-1.0695,-1.0695,-1.0695,-1.0695,-1.0695,-1.056,-0.9132,-0.8518,-0.8518,-0.8518,-0.856,-0.856,-0.8807,-0.8971,-0.8976,-0.9219,-0.9362,-0.9367,-0.953,-0.9591,-0.9633,-1.0596,-1.1015,-1.1297,-1.2222,-1.289,-1.3147,-1.3196,-1.3229,-1.3287,-1.3365,-1.3454,-1.3461,-1.372,-1.3766,-1.3578,-1.35,-1.35,-1.3585,-1.3826,-1.394,-1.3947,-1.4183,-1.4299,-1.4299,-1.4299,-1.4258,-1.417,-1.4163,-1.4207,-1.4214,-1.4251,-1.4299,-1.4299,-1.4299,-1.4299,-1.4299,-1.4299,-1.4299,-1.4299,-1.4299,-1.4299,-1.4299,-1.4299,-1.4299,-1.4299,-1.4299,-1.4299,-1.4299,-1.4299,-1.4299,-1.4299,-1.4299,-1.4299,-1.4299,-1.4299,-1.4299,-1.4299,-1.4299,-1.4299,-1.4299,-1.4299,-1.434,-1.4407,-1.4428,-1.4462,-1.4536,-1.4563,-1.4475,-1.4353,-1.4299,-1.4333,-1.4401,-1.4428,-1.4428,-1.4383,-1.4332,-1.4133,-1.4009,-1.3832,-1.3699,-1.3768,-1.3458,-1.335,-1.3164,-1.2833,-1.1441,-1.0535,-0.9418,-0.8133,-1.0695,-1.0695,-1.0695,-1.0695,-1.0737,-1.0862,-1.0904,-1.0909,-1.1062,-1.1121,-1.1126,-1.1196,-1.1213,-1.116,-1.102,-1.0945,-1.1112,-1.1445,-1.1611,-1.1617,-1.198,-1.2124,-1.2172,-1.2334,-1.2388,-1.243,-1.2478,-1.2613,-1.2756,-1.3143,-1.3515,-1.3856,-1.3905,-1.3926,-1.3973,-1.4082,-1.4136,-1.4143,-1.4251,-1.4299,-1.4285,-1.419,-1.419,-1.4285,-1.4299,-1.4299,-1.4299,-1.4299,-1.4299,-1.4299,-1.4299,-1.4251,-1.4143,-1.418,-1.4136,-1.4143,-1.4238,-1.4299,-1.4299,-1.4299,-1.4299,-1.4299,-1.4299,-1.4299,-1.4299,-1.4299,-1.4319,-1.436,-1.436,-1.4353,-1.4299,-1.4299,-1.4299,-1.4299,-1.4299,-1.4299,-1.4299,-1.4299,-1.4299,-1.4299,-1.4299,-1.4319,-1.4353,-1.4367,-1.438,-1.4428,-1.4434,-1.4403,-1.4543,-1.4577,-1.4618,-1.4674,-1.4687,-1.4613,-1.4462,-1.4441,-1.4437,-1.4478,-1.4525,-1.4577,-1.4577,-1.4577,-1.457,-1.433,-1.4397,-1.4383,-1.4296,-1.4046,-1.3905,-1.3886,-1.3579,-1.3175,-1.2855,-1.1848,-1.0755,-1.0695,-1.0737,-1.0695,-1.0779,-1.0737,-1.1201,-1.1367,-1.1438,-1.1957,-1.218,-1.2198,-1.2301,-1.2399,-1.2331,-1.1729,-1.1617,-1.1992,-1.2045,-1.2093,-1.2105,-1.2251,-1.2306,-1.2361,-1.2862,-1.3126,-1.3143,-1.3393,-1.3633,-1.366,-1.3716,-1.3876,-1.4098,-1.4061,-1.4136,-1.4238,-1.4265,-1.4285,-1.4278,-1.4292,-1.4299,-1.4299,-1.4292,-1.4285,-1.4299,-1.4299,-1.4299,-1.4299,-1.4299,-1.4299,-1.4299,-1.4299,-1.4292,-1.4285,-1.4285,-1.4278,-1.4285,-1.4292,-1.4299,-1.4299,-1.4299,-1.4306,-1.4306,-1.4319,-1.4306,-1.434,-1.434,-1.4394,-1.4489,-1.4502,-1.4455,-1.4353,-1.4353,-1.434,-1.4333,-1.4319,-1.4319,-1.4312,-1.4346,-1.4306,-1.4319,-1.434,-1.4394,-1.4444,-1.4502,-1.4563,-1.4606,-1.466,-1.4667,-1.4674,-1.4687,-1.4701,-1.4721,-1.4728,-1.4694,-1.4674,-1.4606,-1.4633,-1.4681,-1.4726,-1.4726,-1.4687,-1.4681,-1.4674,-1.466,-1.462,-1.4613,-1.4654,-1.4681,-1.4655,-1.4538,-1.4284,-1.4068,-1.3938,-1.3507,-1.2586,-1.132,-1.1611,-1.1611,-1.1658,-1.1735,-1.1903,-1.2035,-1.2113,-1.2332,-1.2441,-1.2447,-1.249,-1.268,-1.2931,-1.2666,-1.2489,-1.2404,-1.2665,-1.2792,-1.2841,-1.3098,-1.3252,-1.3301,-1.3475,-1.3581,-1.3623,-1.3716,-1.3849,-1.3994,-1.4082,-1.4163,-1.4204,-1.4217,-1.4251,-1.4292,-1.4299,-1.4299,-1.4299,-1.4299,-1.4299,-1.4299,-1.4299,-1.4299,-1.4299,-1.4299,-1.4299,-1.4299,-1.4299,-1.4299,-1.4299,-1.4299,-1.4299,-1.4299,-1.4299,-1.4299,-1.4299,-1.4299,-1.4299,-1.4299,-1.4299,-1.434,-1.4428,-1.4434,-1.4475,-1.4557,-1.4539,-1.4559,-1.4599,-1.4613,-1.4624,-1.4559,-1.4539,-1.4539,-1.4539,-1.4577,-1.4525,-1.4532,-1.4539,-1.4584,-1.4584,-1.4584,-1.4559,-1.4586,-1.4613,-1.4633,-1.4681,-1.4694,-1.4741,-1.4869,-1.4889,-1.4909,-1.4997,-1.5025,-1.5025,-1.5025,-1.4835,-1.4714,-1.4848,-1.4889,-1.4889,-1.4889,-1.4882,-1.4875,-1.4748,-1.4741,-1.4741,-1.4755,-1.4801,-1.4848,-1.4796,-1.456,-1.452,-1.4493,-1.4198,-1.3711,-1.1843,-1.2136,-1.2178,-1.2251,-1.2374,-1.2507,-1.2642,-1.273,-1.2945,-1.3008,-1.3014,-1.3052,-1.3251,-1.3511,-1.3554,-1.3381,-1.3108,-1.3333,-1.3409,-1.3416,-1.3763,-1.3912,-1.3926,-1.3923,-1.3944,-1.395,-1.3944,-1.4048,-1.4143,-1.4251,-1.4299,-1.4299,-1.4299,-1.4299,-1.4299,-1.4299,-1.4299,-1.4299,-1.4299,-1.4299,-1.4299,-1.4299,-1.4299,-1.4299,-1.4299,-1.4299,-1.4299,-1.4299,-1.4299,-1.4299,-1.4299,-1.4299,-1.4299,-1.4299,-1.4299,-1.4299,-1.4346,-1.4367,-1.4373,-1.4414,-1.4489,-1.4525,-1.4584,-1.4593,-1.4681,-1.4694,-1.4714,-1.4748,-1.4769,-1.4821,-1.4829,-1.4882,-1.4796,-1.4721,-1.4694,-1.4694,-1.4694,-1.4687,-1.4687,-1.4674,-1.4674,-1.4701,-1.4801,-1.4808,-1.4796,-1.4875,-1.4836,-1.4936,-1.5011,-1.5091,-1.5112,-1.516,-1.516,-1.5153,-1.514,-1.5004,-1.4936,-1.5004,-1.5018,-1.5025,-1.5071,-1.5071,-1.5044,-1.4909,-1.4829,-1.4875,-1.4882,-1.4882,-1.4875,-1.4823,-1.479,-1.4778,-1.4817,-1.489,-1.4461,-1.2196,-1.2342,-1.2319,-1.2477,-1.2674,-1.303,-1.3202,-1.3339,-1.3797,-1.3938,-1.3914,-1.4123,-1.4156,-1.4228,-1.42,-1.4228,-1.4079,-1.387,-1.3763,-1.3813,-1.4014,-1.4119,-1.4119,-1.4197,-1.4251,-1.4251,-1.4278,-1.4278,-1.4278,-1.4292,-1.4299,-1.4299,-1.4299,-1.4299,-1.4299,-1.4299,-1.4299,-1.4299,-1.4299,-1.4299,-1.4299,-1.4299,-1.4299,-1.4299,-1.4299,-1.4299,-1.4299,-1.4299,-1.4299,-1.4299,-1.4299,-1.4299,-1.4299,-1.4312,-1.4312,-1.434,-1.4441,-1.4509,-1.4529,-1.4586,-1.4654,-1.4694,-1.4694,-1.4753,-1.4748,-1.4741,-1.4835,-1.4943,-1.5023,-1.5064,-1.512,-1.514,-1.5045,-1.4762,-1.4794,-1.4748,-1.4728,-1.4708,-1.4708,-1.4728,-1.4741,-1.4775,-1.4923,-1.497,-1.5004,-1.5092,-1.5126,-1.5126,-1.514,-1.5147,-1.5167,-1.5181,-1.5181,-1.5181,-1.5181,-1.5174,-1.5167,-1.5167,-1.5147,-1.514,-1.5126,-1.5166,-1.516,-1.5052,-1.5045,-1.5045,-1.5045,-1.5045,-1.5065,-1.5059,-1.5031,-1.4991,-1.5025,-1.5112,-1.5139,-1.3166,-1.3219,-1.3268,-1.3436,-1.3597,-1.3784,-1.3881,-1.3974,-1.4167,-1.4231,-1.4238,-1.4278,-1.4299,-1.4299,-1.4299,-1.4299,-1.4292,-1.4197,-1.4156,-1.4156,-1.4204,-1.4224,-1.4238,-1.4278,-1.4299,-1.4299,-1.4299,-1.4299,-1.4299,-1.4299,-1.4299,-1.4299,-1.4299,-1.4299,-1.4299,-1.4299,-1.4299,-1.4299,-1.4299,-1.4299,-1.4299,-1.4299,-1.4299,-1.4299,-1.4299,-1.4299,-1.4299,-1.4299,-1.4299,-1.4299,-1.4299,-1.4299,-1.4312,-1.4394,-1.4441,-1.4462,-1.459,-1.462,-1.4626,-1.4674,-1.4755,-1.4869,-1.4896,-1.495,-1.5031,-1.5038,-1.5052,-1.5106,-1.512,-1.5194,-1.5174,-1.5181,-1.5133,-1.5052,-1.5045,-1.5031,-1.5018,-1.5031,-1.5045,-1.5045,-1.5045,-1.5072,-1.5146,-1.5113,-1.5126,-1.5167,-1.5181,-1.5181,-1.5181,-1.5181,-1.5181,-1.5181,-1.5181,-1.5181,-1.5181,-1.5181,-1.5181,-1.5181,-1.5181,-1.5181,-1.5181,-1.5181,-1.5181,-1.5181,-1.5181,-1.5181,-1.5181,-1.5181,-1.5181,-1.5181,-1.512,-1.5126,-1.516,-1.5187,-1.5208,-1.3653,-1.3797,-1.3892,-1.4014,-1.415,-1.4156,-1.4211,-1.4292,-1.4299,-1.4299,-1.4299,-1.4299,-1.4299,-1.4299,-1.4299,-1.4299,-1.4299,-1.4299,-1.4299,-1.4299,-1.4299,-1.4299,-1.4299,-1.4299,-1.4299,-1.4299,-1.4299,-1.4299,-1.4299,-1.4299,-1.4299,-1.4299,-1.4299,-1.4299,-1.4299,-1.4299,-1.4299,-1.4299,-1.4299,-1.4299,-1.4299,-1.4299,-1.4299,-1.4299,-1.4299,-1.4299,-1.4299,-1.4299,-1.4299,-1.4306,-1.4346,-1.438,-1.4394,-1.4516,-1.4552,-1.4624,-1.4726,-1.4828,-1.4828,-1.4882,-1.4936,-1.5031,-1.5098,-1.5132,-1.516,-1.5181,-1.5181,-1.5181,-1.5181,-1.5181,-1.5181,-1.5181,-1.5181,-1.5181,-1.5167,-1.5181,-1.5181,-1.5181,-1.5174,-1.516,-1.5167,-1.5181,-1.5181,-1.5181,-1.5181,-1.5181,-1.5181,-1.5181,-1.5181,-1.5181,-1.5181,-1.5181,-1.5181,-1.5181,-1.5181,-1.5181,-1.5181,-1.5181,-1.5181,-1.5181,-1.5181,-1.5181,-1.5181,-1.5181,-1.5181,-1.5181,-1.5181,-1.5181,-1.5181,-1.5181,-1.5201,-1.5221,-1.5242,-1.5282,-1.5316,-1.3817,-1.4105,-1.4125,-1.4163,-1.4278,-1.4285,-1.4285,-1.4299,-1.4299,-1.4299,-1.4299,-1.4299,-1.4299,-1.4299,-1.4299,-1.4299,-1.4299,-1.4299,-1.4299,-1.4299,-1.4299,-1.4299,-1.4299,-1.4299,-1.4299,-1.4299,-1.4299,-1.4299,-1.4299,-1.4299,-1.4299,-1.4299,-1.4299,-1.4299,-1.4299,-1.4299,-1.4299,-1.4299,-1.4299,-1.4299,-1.4299,-1.4299,-1.4299,-1.4299,-1.4299,-1.4306,-1.4333,-1.4353,-1.4346,-1.4333,-1.4455,-1.4484,-1.455,-1.462,-1.4708,-1.4714,-1.4896,-1.497,-1.5057,-1.5065,-1.514,-1.5153,-1.5207,-1.5181,-1.5181,-1.5181,-1.5181,-1.5181,-1.5181,-1.5181,-1.5181,-1.5181,-1.5181,-1.5181,-1.5181,-1.5181,-1.5181,-1.5181,-1.5181,-1.5181,-1.5181,-1.5181,-1.5181,-1.5181,-1.5181,-1.5181,-1.5181,-1.5181,-1.5181,-1.5181,-1.5187,-1.5208,-1.5242,-1.5289,-1.5323,-1.535,-1.535,-1.535,-1.5323,-1.5296,-1.5269,-1.5269,-1.5289,-1.5276,-1.5242,-1.5228,-1.5242,-1.5289,-1.5269,-1.5255,-1.5276,-1.5289,-1.5296,-1.5303,-1.5364,-1.4044,-1.4125,-1.419,-1.4265,-1.4299,-1.4299,-1.4299,-1.4299,-1.4299,-1.4299,-1.4299,-1.4299,-1.4299,-1.4299,-1.4299,-1.4299,-1.4299,-1.4299,-1.4299,-1.4299,-1.4299,-1.4299,-1.4299,-1.4299,-1.4299,-1.4299,-1.4299,-1.4299,-1.4299,-1.4299,-1.4299,-1.4299,-1.4299,-1.4299,-1.4299,-1.4299,-1.4299,-1.4299,-1.4299,-1.4299,-1.4299,-1.4299,-1.4299,-1.4299,-1.4299,-1.436,-1.4455,-1.457,-1.4563,-1.4475,-1.4552,-1.4633,-1.4647,-1.4821,-1.4909,-1.493,-1.5031,-1.5173,-1.518,-1.5153,-1.5181,-1.5181,-1.5181,-1.5181,-1.5181,-1.5181,-1.5181,-1.5181,-1.5181,-1.5181,-1.5181,-1.5187,-1.5187,-1.5181,-1.5208,-1.5201,-1.5194,-1.5181,-1.5181,-1.5181,-1.5194,-1.5208,-1.5208,-1.5208,-1.5208,-1.5208,-1.5215,-1.5215,-1.5242,-1.5242,-1.5269,-1.533,-1.5377,-1.5438,-1.5486,-1.552,-1.5492,-1.5506,-1.5479,-1.5431,-1.5466,-1.5452,-1.5499,-1.5485,-1.5466,-1.5432,-1.5486,-1.5485,-1.5418,-1.5357,-1.5371,-1.5391,-1.5269,-1.5282,-1.5323,-1.4153,-1.4221,-1.4258,-1.4299,-1.4299,-1.4299,-1.4299,-1.4299,-1.4299,-1.4299,-1.4299,-1.4299,-1.4299,-1.4299,-1.4299,-1.4299,-1.4299,-1.4299,-1.4299,-1.4299,-1.4299,-1.4299,-1.4299,-1.4299,-1.4299,-1.4299,-1.4299,-1.4299,-1.4299,-1.4299,-1.4299,-1.4299,-1.4299,-1.4299,-1.4299,-1.4299,-1.4299,-1.4299,-1.4299,-1.4299,-1.4299,-1.4299,-1.4299,-1.4312,-1.4353,-1.4455,-1.4559,-1.4753,-1.4767,-1.4626,-1.4746,-1.4835,-1.4848,-1.4977,-1.5059,-1.5065,-1.514,-1.5181,-1.5181,-1.5181,-1.5181,-1.5181,-1.5181,-1.5181,-1.5181,-1.5181,-1.5181,-1.5181,-1.5181,-1.5181,-1.5194,-1.5235,-1.5276,-1.5296,-1.5337,-1.5343,-1.5289,-1.5282,-1.5316,-1.535,-1.5371,-1.5371,-1.5371,-1.5371,-1.5371,-1.5384,-1.5404,-1.5404,-1.5398,-1.5377,-1.5384,-1.5466,-1.5513,-1.5512,-1.5588,-1.5622,-1.56,-1.5621,-1.571,-1.5669,-1.5587,-1.5615,-1.5573,-1.56,-1.5593,-1.56,-1.5627,-1.5621,-1.5539,-1.552,-1.5513,-1.5479,-1.5391,-1.5309,-1.5384,-1.4177,-1.4299,-1.4299,-1.4299,-1.4299,-1.4299,-1.4299,-1.4299,-1.4299,-1.4299,-1.4299,-1.4299,-1.4299,-1.4299,-1.4299,-1.4299,-1.4299,-1.4299,-1.4299,-1.4299,-1.4299,-1.4299,-1.4299,-1.4299,-1.4299,-1.4299,-1.4299,-1.4299,-1.4299,-1.4299,-1.4299,-1.4299,-1.4299,-1.4299,-1.4299,-1.4299,-1.4299,-1.4299,-1.4299,-1.4299,-1.4299,-1.4299,-1.4299,-1.4319,-1.4475,-1.4604,-1.476,-1.4896,-1.493,-1.4748,-1.4916,-1.4984,-1.5057,-1.512,-1.5167,-1.5167,-1.5174,-1.5181,-1.5181,-1.5181,-1.5181,-1.5181,-1.5181,-1.5181,-1.5181,-1.5181,-1.5181,-1.5181,-1.5181,-1.5194,-1.5242,-1.533,-1.5398,-1.5432,-1.5506,-1.5506,-1.5493,-1.5445,-1.5445,-1.5566,-1.558,-1.5587,-1.5587,-1.5587,-1.5573,-1.5513,-1.5485,-1.5479,-1.5479,-1.552,-1.556,-1.5635,-1.5662,-1.5627,-1.5648,-1.5716,-1.5737,-1.5715,-1.5845,-1.5845,-1.5784,-1.5757,-1.5681,-1.5681,-1.5798,-1.5805,-1.5771,-1.5737,-1.5703,-1.5669,-1.5655,-1.5642,-1.5615,-1.5533,-1.5499,-1.4272,-1.4299,-1.4299,-1.4299,-1.4299,-1.4299,-1.4299,-1.4299,-1.4299,-1.4299,-1.4299,-1.4299,-1.4299,-1.4299,-1.4299,-1.4299,-1.4299,-1.4299,-1.4299,-1.4299,-1.4299,-1.4299,-1.4299,-1.4299,-1.4299,-1.4299,-1.4299,-1.4299,-1.4299,-1.4299,-1.4299,-1.4299,-1.4299,-1.4299,-1.4299,-1.4299,-1.4299,-1.4299,-1.4299,-1.4299,-1.4299,-1.4299,-1.4306,-1.4346,-1.4557,-1.476,-1.4916,-1.5065,-1.512,-1.5106,-1.5106,-1.5166,-1.5126,-1.5153,-1.5181,-1.5181,-1.5181,-1.5181,-1.5181,-1.5181,-1.5181,-1.5181,-1.5181,-1.5181,-1.5181,-1.5181,-1.5181,-1.5181,-1.5181,-1.5228,-1.533,-1.5384,-1.5479,-1.5519,-1.5587,-1.5689,-1.5716,-1.5655,-1.5622,-1.5593,-1.5614,-1.5593,-1.56,-1.5621,-1.5621,-1.56,-1.56,-1.5593,-1.5607,-1.5627,-1.573,-1.5805,-1.5811,-1.5825,-1.5866,-1.5872,-1.5872,-1.5879,-1.594,-1.603,-1.5927,-1.5913,-1.5886,-1.5927,-1.5995,-1.5967,-1.5893,-1.5927,-1.592,-1.5866,-1.5798,-1.5778,-1.5744,-1.5654,-1.5648,-1.4299,-1.4299,-1.4299,-1.4299,-1.4299,-1.4299,-1.4299,-1.4299,-1.4299,-1.4299,-1.4299,-1.4299,-1.4299,-1.4299,-1.4299,-1.4299,-1.4299,-1.4299,-1.4299,-1.4299,-1.4299,-1.4299,-1.4299,-1.4299,-1.4299,-1.4299,-1.4299,-1.4299,-1.4299,-1.4299,-1.4299,-1.4299,-1.4299,-1.4299,-1.4299,-1.4299,-1.4299,-1.4299,-1.4299,-1.4299,-1.4299,-1.4299,-1.4401,-1.4509,-1.4726,-1.4916,-1.5065,-1.5133,-1.5174,-1.5181,-1.5181,-1.5181,-1.5181,-1.5181,-1.5181,-1.5181,-1.5181,-1.5181,-1.5181,-1.5181,-1.5181,-1.5181,-1.5181,-1.5181,-1.5181,-1.5181,-1.5181,-1.5181,-1.5194,-1.5242,-1.5391,-1.5445,-1.5533,-1.5716,-1.5805,-1.5872,-1.5913,-1.5832,-1.5778,-1.5818,-1.5866,-1.5859,-1.5852,-1.5805,-1.5832,-1.5866,-1.5879,-1.5872,-1.5886,-1.5906,-1.5906,-1.5947,-1.5961,-1.603,-1.6078,-1.6092,-1.6071,-1.6015,-1.6022,-1.6092,-1.6022,-1.6085,-1.6105,-1.6119,-1.6112,-1.6119,-1.6022,-1.6069,-1.6069,-1.6058,-1.594,-1.5906,-1.5886,-1.5886,-1.5893,-1.4299,-1.4299,-1.4299,-1.4299,-1.4299,-1.4299,-1.4299,-1.4299,-1.4299,-1.4299,-1.4299,-1.4299,-1.4299,-1.4299,-1.4299,-1.4299,-1.4299,-1.4299,-1.4299,-1.4299,-1.4299,-1.4299,-1.4299,-1.4299,-1.4299,-1.4299,-1.4299,-1.4299,-1.4299,-1.4299,-1.4299,-1.4299,-1.4299,-1.4299,-1.4299,-1.4299,-1.4299,-1.4299,-1.4299,-1.4299,-1.4299,-1.4306,-1.4434,-1.4679,-1.4855,-1.5011,-1.5126,-1.5174,-1.5181,-1.5181,-1.5181,-1.5181,-1.5181,-1.5181,-1.5181,-1.5181,-1.5181,-1.5181,-1.5181,-1.5181,-1.5181,-1.5181,-1.5181,-1.5181,-1.5181,-1.5181,-1.5181,-1.5181,-1.5194,-1.5242,-1.5398,-1.5479,-1.5683,-1.5874,-1.603,-1.6119,-1.6105,-1.601,-1.601,-1.6064,-1.6008,-1.5988,-1.6015,-1.6001,-1.6098,-1.6133,-1.6133,-1.6133,-1.6133,-1.6126,-1.6042,-1.6029,-1.6078,-1.6078,-1.6119,-1.6133,-1.6133,-1.6133,-1.6133,-1.6133,-1.6133,-1.6133,-1.6133,-1.6133,-1.6126,-1.6133,-1.6133,-1.6126,-1.6126,-1.6133,-1.6112,-1.6001,-1.6022,-1.6126,-1.6105,-1.4299,-1.4299,-1.4299,-1.4299,-1.4299,-1.4299,-1.4299,-1.4299,-1.4299,-1.4299,-1.4299,-1.4299,-1.4299,-1.4299,-1.4299,-1.4299,-1.4299,-1.4299,-1.4299,-1.4299,-1.4299,-1.4299,-1.4299,-1.4299,-1.4299,-1.4299,-1.4299,-1.4299,-1.4299,-1.4299,-1.4299,-1.4299,-1.4299,-1.4299,-1.4299,-1.4299,-1.4299,-1.4299,-1.4299,-1.4299,-1.4299,-1.4353,-1.4475,-1.4701,-1.4916,-1.5045,-1.5147,-1.5181,-1.5181,-1.5181,-1.5181,-1.5181,-1.5181,-1.5181,-1.5181,-1.5181,-1.5181,-1.5181,-1.5181,-1.5181,-1.5181,-1.5181,-1.5181,-1.5181,-1.5181,-1.5181,-1.5181,-1.5181,-1.5194,-1.5242,-1.5398,-1.5499,-1.5696,-1.5839,-1.603,-1.6126,-1.6076,-1.6056,-1.6029,-1.6126,-1.6133,-1.6133,-1.6133,-1.6133,-1.6133,-1.6133,-1.6133,-1.6133,-1.6133,-1.6133,-1.6119,-1.6119,-1.6119,-1.6119,-1.6133,-1.6133,-1.6133,-1.6133,-1.6133,-1.6133,-1.6133,-1.6133,-1.6133,-1.6133,-1.6133,-1.6133,-1.6133,-1.6133,-1.6133,-1.6133,-1.6133,-1.6133,-1.6133,-1.6133,-1.6133,-1.5175,-1.4343,-1.4299,-1.4299,-1.4299,-1.4299,-1.4299,-1.4299,-1.4299,-1.4299,-1.4299,-1.4299,-1.4299,-1.4299,-1.4299,-1.4299,-1.4299,-1.4299,-1.4299,-1.4299,-1.4299,-1.4299,-1.4299,-1.4299,-1.4299,-1.4299,-1.4299,-1.4299,-1.4299,-1.4299,-1.4299,-1.4299,-1.4299,-1.4299,-1.4299,-1.4299,-1.4299,-1.4299,-1.4299,-1.4299,-1.4326,-1.4428,-1.4606,-1.4828,-1.4991,-1.5106,-1.5153,-1.5181,-1.5181,-1.5181,-1.5181,-1.5181,-1.5181,-1.5181,-1.5181,-1.5181,-1.5181,-1.5181,-1.5181,-1.5181,-1.5181,-1.5181,-1.5181,-1.5181,-1.5181,-1.5181,-1.5181,-1.5181,-1.5187,-1.5248,-1.5398,-1.5499,-1.5696,-1.5888,-1.6037,-1.6119,-1.6133,-1.6133,-1.6133,-1.6133,-1.6133,-1.6133,-1.6133,-1.6133,-1.6133,-1.6133,-1.6133,-1.6133,-1.6133,-1.6133,-1.6133,-1.6133,-1.6133,-1.6133,-1.6133,-1.6133,-1.6133,-1.6133,-1.6133,-1.6133,-1.6133,-1.6133,-1.6133,-1.6133,-1.6133,-1.6133,-1.6133,-1.6133,-1.6133,-1.6133,-1.6133,-1.6133,-1.6133,-1.6133,-1.6133,-1.6005,-1.4299,-1.4299,-1.4299,-1.4299,-1.4299,-1.4299,-1.4299,-1.4299,-1.4299,-1.4299,-1.4299,-1.4299,-1.4299,-1.4299,-1.4299,-1.4299,-1.4299,-1.4299,-1.4299,-1.4299,-1.4299,-1.4299,-1.4299,-1.4299,-1.4299,-1.4299,-1.4299,-1.4299,-1.4299,-1.4299,-1.4299,-1.4299,-1.4299,-1.4299,-1.4299,-1.4299,-1.4299,-1.4299,-1.4306,-1.4401,-1.4552,-1.4814,-1.501,-1.5153,-1.5181,-1.5181,-1.5181,-1.5181,-1.5181,-1.5181,-1.5181,-1.5181,-1.5181,-1.5181,-1.5181,-1.5181,-1.5181,-1.5181,-1.5181,-1.5181,-1.5181,-1.5181,-1.5181,-1.5181,-1.5181,-1.5181,-1.5181,-1.5187,-1.5221,-1.5343,-1.5479,-1.5669,-1.5798,-1.6003,-1.6133,-1.6133,-1.6133,-1.6133,-1.6133,-1.6133,-1.6133,-1.6133,-1.6133,-1.6133,-1.6133,-1.6133,-1.6133,-1.6133,-1.6133,-1.6133,-1.6133,-1.6133,-1.6133,-1.6133,-1.6133,-1.6133,-1.6133,-1.6133,-1.6133,-1.6133,-1.6133,-1.6133,-1.6133,-1.6133,-1.6133,-1.6133,-1.6133,-1.6133,-1.6133,-1.6133,-1.6133,-1.6133,-1.6133,-1.6133,-1.6005,-1.4343,-1.4343,-1.4299,-1.4476,-1.4476,-1.4343,-1.4387,-1.4387,-1.4299,-1.4299,-1.4299,-1.4299,-1.4299,-1.4299,-1.4299,-1.4299,-1.4299,-1.4299,-1.4299,-1.4299,-1.4299,-1.4299,-1.4299,-1.4299,-1.4299,-1.4299,-1.4299,-1.4299,-1.4299,-1.4299,-1.4299,-1.4299,-1.4299,-1.4299,-1.4299,-1.4299,-1.4299,-1.4306,-1.4367,-1.4496,-1.462,-1.4828,-1.5023,-1.5146,-1.5181,-1.5181,-1.5181,-1.5181,-1.5181,-1.5181,-1.5181,-1.5181,-1.5181,-1.5181,-1.5181,-1.5181,-1.5181,-1.5181,-1.5181,-1.5181,-1.5181,-1.5181,-1.5181,-1.5181,-1.5181,-1.5181,-1.5181,-1.5181,-1.5194,-1.5276,-1.5479,-1.556,-1.5757,-1.5927,-1.6092,-1.6133,-1.6133,-1.6133,-1.6133,-1.6133,-1.6133,-1.6133,-1.6133,-1.6133,-1.6133,-1.6133,-1.6133,-1.6133,-1.6133,-1.6133,-1.6133,-1.6133,-1.6133,-1.6133,-1.6133,-1.6133,-1.6133,-1.6133,-1.6133,-1.6133,-1.6133,-1.6133,-1.6133,-1.6133,-1.6133,-1.6133,-1.6133,-1.6133,-1.6133,-1.6133,-1.6133,-1.6133,-1.6133,-1.6133,-1.9134,-1.7395,-1.6305,-1.6525,-1.7263,-1.6349,-1.5873,-1.5653,-1.4778,-1.4299,-1.4299,-1.4299,-1.4299,-1.4299,-1.4299,-1.4299,-1.4299,-1.4299,-1.4299,-1.4299,-1.4299,-1.4299,-1.4299,-1.4299,-1.4299,-1.4299,-1.4299,-1.4299,-1.4299,-1.4299,-1.4299,-1.4299,-1.4299,-1.4299,-1.4299,-1.4299,-1.4299,-1.4319,-1.438,-1.4496,-1.4638,-1.4787,-1.4936,-1.5126,-1.5147,-1.5174,-1.5181,-1.5181,-1.5181,-1.5181,-1.5181,-1.5181,-1.5181,-1.5181,-1.5181,-1.5181,-1.5181,-1.5181,-1.5181,-1.5181,-1.5181,-1.5181,-1.5181,-1.5181,-1.5181,-1.5181,-1.5181,-1.5181,-1.5181,-1.5181,-1.5235,-1.5466,-1.5533,-1.5675,-1.5906,-1.6008,-1.6133,-1.6133,-1.6133,-1.6133,-1.6133,-1.6133,-1.6133,-1.6133,-1.6133,-1.6133,-1.6133,-1.6133,-1.6133,-1.6133,-1.6133,-1.6133,-1.6133,-1.6133,-1.6133,-1.6133,-1.6133,-1.6133,-1.6133,-1.6133,-1.6133,-1.6133,-1.6133,-1.6133,-1.6133,-1.6133,-1.6133,-1.6133,-1.6133,-1.6133,-1.6133,-1.6133,-1.6133,-1.6133,-1.6133,-2.2083,-2.1045,-1.8785,-1.861,-1.9743,-1.8348,-1.7789,-1.7613,-1.6437,-1.5521,-1.4911,-1.4601,-1.4299,-1.4299,-1.4299,-1.4299,-1.4299,-1.4299,-1.4299,-1.4299,-1.4299,-1.4299,-1.4299,-1.4299,-1.4299,-1.4299,-1.4299,-1.4299,-1.4299,-1.4299,-1.4299,-1.4299,-1.4299,-1.4299,-1.4299,-1.4299,-1.4299,-1.4312,-1.4428,-1.457,-1.4726,-1.4882,-1.5025,-1.5133,-1.5181,-1.5181,-1.5181,-1.5181,-1.5181,-1.5181,-1.5181,-1.5181,-1.5181,-1.5181,-1.5181,-1.5181,-1.5181,-1.5181,-1.5181,-1.5181,-1.5181,-1.5181,-1.5181,-1.5181,-1.5181,-1.5181,-1.5181,-1.5181,-1.5181,-1.5181,-1.5242,-1.5459,-1.5546,-1.5681,-1.59,-1.6001,-1.6133,-1.6133,-1.6133,-1.6133,-1.6133,-1.6133,-1.6133,-1.6133,-1.6133,-1.6133,-1.6133,-1.6133,-1.6133,-1.6133,-1.6133,-1.6133,-1.6133,-1.6133,-1.6133,-1.6133,-1.6133,-1.6133,-1.6133,-1.6133,-1.6133,-1.6133,-1.6133,-1.6133,-1.6133,-1.6133,-1.6133,-1.6133,-1.6133,-1.6133,-1.6133,-1.6133,-1.6133,-1.6133,-1.6133,-2.3557,-2.4738,-2.1218,-1.9917,-2.0091,-1.9786,-1.97,-1.9656,-1.9438,-1.8226,-1.6481,-1.5175,-1.4299,-1.4299,-1.4299,-1.4299,-1.4299,-1.4299,-1.4299,-1.4299,-1.4299,-1.4299,-1.4299,-1.4299,-1.4299,-1.4299,-1.4299,-1.4299,-1.4299,-1.4299,-1.4299,-1.4299,-1.4299,-1.4299,-1.4299,-1.4299,-1.4299,-1.4333,-1.4462,-1.4604,-1.4746,-1.4903,-1.5052,-1.5147,-1.5181,-1.5181,-1.5181,-1.5181,-1.5181,-1.5181,-1.5181,-1.5181,-1.5181,-1.5181,-1.5181,-1.5181,-1.5181,-1.5181,-1.5181,-1.5181,-1.5181,-1.5181,-1.5181,-1.5181,-1.5181,-1.5181,-1.5181,-1.5181,-1.5181,-1.5181,-1.5269,-1.5432,-1.556,-1.5675,-1.5872,-1.6022,-1.6133,-1.6133,-1.6133,-1.6133,-1.6133,-1.6133,-1.6133,-1.6133,-1.6133,-1.6133,-1.6133,-1.6133,-1.6133,-1.6133,-1.6133,-1.6133,-1.6133,-1.6133,-1.6133,-1.6133,-1.6133,-1.6133,-1.6133,-1.6133,-1.6133,-1.6133,-1.6133,-1.6133,-1.6133,-1.6133,-1.6133,-1.6133,-1.6133,-1.6133,-1.6133,-1.6133,-1.6133,-1.6133,-1.6133,-2.4909,-2.5677,-2.4286,-2.3557,-2.317,-2.204,-2.1564,-2.1348,-2.0395,-1.8828,-1.7052,-1.5219,-1.4299,-1.4299,-1.4299,-1.4299,-1.4299,-1.4299,-1.4299,-1.4299,-1.4299,-1.4299,-1.4299,-1.4299,-1.4299,-1.4299,-1.4299,-1.4299,-1.4299,-1.4299,-1.4299,-1.4299,-1.4299,-1.4299,-1.4299,-1.4299,-1.4299,-1.4367,-1.4516,-1.4647,-1.4714,-1.4977,-1.5126,-1.5167,-1.5181,-1.5181,-1.5181,-1.5181,-1.5181,-1.5181,-1.5181,-1.5181,-1.5181,-1.5181,-1.5181,-1.5181,-1.5181,-1.5181,-1.5181,-1.5181,-1.5181,-1.5181,-1.5181,-1.5181,-1.5181,-1.5181,-1.5181,-1.5181,-1.5181,-1.5181,-1.5221,-1.5445,-1.56,-1.5668,-1.5832,-1.6001,-1.6133,-1.6133,-1.6133,-1.6133,-1.6133,-1.6133,-1.6133,-1.6133,-1.6133,-1.6133,-1.6133,-1.6133,-1.6133,-1.6133,-1.6133,-1.6133,-1.6133,-1.6133,-1.6133,-1.6133,-1.6133,-1.6133,-1.6133,-1.6133,-1.6133,-1.6133,-1.6133,-1.6133,-1.6133,-1.6133,-1.6133,-1.6133,-1.6133,-1.6133,-1.6133,-1.6133,-1.6133,-1.6133,-1.6133,-2.603,-2.6273,-2.6316,-2.6116,-2.5647,-2.4426,-2.3772,-2.3428,-2.2428,-2.0221,-1.7789,-1.5565,-1.4299,-1.4299,-1.4299,-1.4299,-1.4299,-1.4299,-1.4299,-1.4299,-1.4299,-1.4299,-1.4299,-1.4299,-1.4299,-1.4299,-1.4299,-1.4299,-1.4299,-1.4299,-1.4299,-1.4299,-1.4299,-1.4299,-1.4299,-1.4299,-1.4299,-1.4367,-1.4518,-1.4687,-1.4735,-1.5018,-1.5174,-1.5181,-1.5181,-1.5181,-1.5181,-1.5181,-1.5181,-1.5181,-1.5181,-1.5181,-1.5181,-1.5181,-1.5181,-1.5181,-1.5181,-1.5181,-1.5181,-1.5181,-1.5181,-1.5181,-1.5181,-1.5181,-1.5181,-1.5181,-1.5181,-1.5181,-1.5181,-1.5181,-1.5194,-1.5404,-1.5539,-1.5607,-1.5818,-1.603,-1.6105,-1.6133,-1.6133,-1.6133,-1.6133,-1.6133,-1.6133,-1.6133,-1.6133,-1.6133,-1.6133,-1.6133,-1.6133,-1.6133,-1.6133,-1.6133,-1.6133,-1.6133,-1.6133,-1.6133,-1.6133,-1.6133,-1.6133,-1.6133,-1.6133,-1.6133,-1.6133,-1.6133,-1.6133,-1.6133,-1.6133,-1.6133,-1.6133,-1.6133,-1.6133,-1.6133,-1.6133,-1.6133,-1.6133,-2.6753,-2.6783,-2.6796,-2.6796,-2.6753,-2.6698,-2.6273,-2.558,-2.5184,-2.3073,-1.9308,-1.6086,-1.4387,-1.4343,-1.4299,-1.4299,-1.4299,-1.4299,-1.4299,-1.4299,-1.4299,-1.4299,-1.4299,-1.4299,-1.4299,-1.4299,-1.4299,-1.4299,-1.4299,-1.4299,-1.4299,-1.4299,-1.4299,-1.4299,-1.4299,-1.4299,-1.4299,-1.434,-1.4552,-1.4667,-1.4755,-1.5025,-1.516,-1.5181,-1.5181,-1.5181,-1.5181,-1.5181,-1.5181,-1.5181,-1.5181,-1.5181,-1.5181,-1.5181,-1.5181,-1.5181,-1.5181,-1.5181,-1.5181,-1.5181,-1.5181,-1.5181,-1.5181,-1.5181,-1.5181,-1.5181,-1.5181,-1.5181,-1.5181,-1.5181,-1.5235,-1.5337,-1.5458,-1.56,-1.5818,-1.601,-1.6092,-1.6133,-1.6133,-1.6133,-1.6133,-1.6133,-1.6133,-1.6133,-1.6133,-1.6133,-1.6133,-1.6133,-1.6133,-1.6133,-1.6133,-1.6133,-1.6133,-1.6133,-1.6133,-1.6133,-1.6133,-1.6133,-1.6133,-1.6133,-1.6133,-1.6133,-1.6133,-1.6133,-1.6133,-1.6133,-1.6133,-1.6133,-1.6133,-1.6133,-1.6133,-1.6133,-1.6133,-1.6133,-1.6133,-2.6965,-2.7262,-2.7262,-2.7431,-2.7601,-2.7037,-2.6528,-2.5835,-2.4415,-2.2341,-1.983,-1.7132,-1.5344,-1.469,-1.4476,-1.452,-1.4387,-1.4299,-1.4299,-1.4299,-1.4299,-1.4299,-1.4299,-1.4299,-1.4299,-1.4299,-1.4299,-1.4299,-1.4299,-1.4299,-1.4299,-1.4299,-1.4299,-1.4299,-1.4299,-1.4299,-1.4299,-1.4353,-1.4563,-1.4701,-1.4728,-1.5018,-1.5181,-1.5181,-1.5181,-1.5181,-1.5181,-1.5181,-1.5181,-1.5181,-1.5181,-1.5181,-1.5181,-1.5181,-1.5181,-1.5181,-1.5181,-1.5181,-1.5181,-1.5181,-1.5181,-1.5181,-1.5181,-1.5181,-1.5181,-1.5181,-1.5181,-1.5181,-1.5181,-1.5181,-1.5208,-1.5432,-1.5553,-1.5627,-1.5825,-1.5988,-1.6076,-1.6126,-1.6133,-1.6133,-1.6133,-1.6133,-1.6133,-1.6133,-1.6133,-1.6133,-1.6133,-1.6133,-1.6133,-1.6133,-1.6133,-1.6133,-1.6133,-1.6133,-1.6133,-1.6133,-1.6133,-1.6133,-1.6133,-1.6133,-1.6133,-1.6133,-1.6133,-1.6133,-1.6133,-1.6133,-1.6133,-1.6133,-1.6133,-1.6133,-1.6133,-1.6133,-1.6133,-1.6133,-1.6133,-2.7474,-2.7728,-2.7728,-2.7897,-2.8052,-2.7545,-2.691,-2.5963,-2.3729,-2.191,-2.0655,-1.8916,-1.7526,-1.6569,-1.6217,-1.5609,-1.5389,-1.53,-1.452,-1.4476,-1.4299,-1.4299,-1.4299,-1.4299,-1.4299,-1.4299,-1.4299,-1.4299,-1.4299,-1.4299,-1.4299,-1.4299,-1.4299,-1.4299,-1.4299,-1.4299,-1.4333,-1.4428,-1.4579,-1.4774,-1.4875,-1.5038,-1.5181,-1.5181,-1.5181,-1.5181,-1.5181,-1.5181,-1.5181,-1.5181,-1.5181,-1.5181,-1.5181,-1.5181,-1.5181,-1.5181,-1.5181,-1.5181,-1.5181,-1.5181,-1.5181,-1.5181,-1.5181,-1.5181,-1.5181,-1.5181,-1.5181,-1.5181,-1.5181,-1.5181,-1.5228,-1.5472,-1.5594,-1.5669,-1.5818,-1.5974,-1.6076,-1.6133,-1.6133,-1.6133,-1.6133,-1.6133,-1.6133,-1.6133,-1.6133,-1.6133,-1.6133,-1.6133,-1.6133,-1.6133,-1.6133,-1.6133,-1.6133,-1.6133,-1.6133,-1.6133,-1.6133,-1.6133,-1.6133,-1.6133,-1.6133,-1.6133,-1.6133,-1.6133,-1.6133,-1.6133,-1.6133,-1.6133,-1.6133,-1.6133,-1.6133,-1.6133,-1.6133,-1.6133,-1.6133,-2.8192,-2.8192,-2.8192,-2.8192,-2.8179,-2.8052,-2.7588,-2.6613,-2.3986,-2.2783,-2.2481,-2.0742,-1.97,-1.9656,-1.9656,-1.8698,-1.7438,-1.7219,-1.6086,-1.5087,-1.4911,-1.4646,-1.4387,-1.4299,-1.4387,-1.4343,-1.4387,-1.4431,-1.4387,-1.4431,-1.4431,-1.4343,-1.4343,-1.4343,-1.4299,-1.4306,-1.4367,-1.4489,-1.4593,-1.4794,-1.4936,-1.5086,-1.5167,-1.5181,-1.5181,-1.5181,-1.5181,-1.5181,-1.5181,-1.5181,-1.5181,-1.5181,-1.5181,-1.5181,-1.5181,-1.5181,-1.5181,-1.5181,-1.5181,-1.5181,-1.5181,-1.5181,-1.5181,-1.5181,-1.5181,-1.5181,-1.5181,-1.5181,-1.5181,-1.5181,-1.5221,-1.5377,-1.5527,-1.5655,-1.5805,-1.5934,-1.6098,-1.6133,-1.6133,-1.6133,-1.6133,-1.6133,-1.6133,-1.6133,-1.6133,-1.6133,-1.6133,-1.6133,-1.6133,-1.6133,-1.6133,-1.6133,-1.6133,-1.6133,-1.6133,-1.6133,-1.6133,-1.6133,-1.6133,-1.6133,-1.6133,-1.6133,-1.6133,-1.6133,-1.6133,-1.6133,-1.6133,-1.6133,-1.6133,-1.6133,-1.6133,-1.6133,-1.6133,-1.6133,-1.6133,-2.8192,-2.8192,-2.8192,-2.8192,-2.8136,-2.7854,-2.7529,-2.705,-2.5623,-2.45,-2.3105,-2.2934,-2.19,-1.9994,-2.0158,-1.9864,-1.9429,-1.8872,-1.7832,-1.6956,-1.6437,-1.5477,-1.4822,-1.4557,-1.4557,-1.4557,-1.4564,-1.4564,-1.5043,-1.4955,-1.4778,-1.4778,-1.4564,-1.4431,-1.4387,-1.4343,-1.4445,-1.4523,-1.4672,-1.4828,-1.4977,-1.512,-1.516,-1.5181,-1.5181,-1.5181,-1.5181,-1.5181,-1.5181,-1.5181,-1.5181,-1.5181,-1.5181,-1.5181,-1.5181,-1.5181,-1.5181,-1.5181,-1.5181,-1.5181,-1.5181,-1.5181,-1.5181,-1.5181,-1.5181,-1.5181,-1.5181,-1.5181,-1.5181,-1.5181,-1.5248,-1.5391,-1.552,-1.5649,-1.5811,-1.5981,-1.6133,-1.6133,-1.6133,-1.6133,-1.6133,-1.6133,-1.6133,-1.6133,-1.6133,-1.6133,-1.6133,-1.6133,-1.6133,-1.6133,-1.6133,-1.6133,-1.6133,-1.6133,-1.6133,-1.6133,-1.6133,-1.6133,-1.6133,-1.6133,-1.6133,-1.6133,-1.6133,-1.6133,-1.6133,-1.6133,-1.6133,-1.6133,-1.6133,-1.6133,-1.6133,-1.6133,-1.6133,-1.6133,-1.6133,-2.8192,-2.8192,-2.8192,-2.8192,-2.8094,-2.7685,-2.7571,-2.7558,-2.6783,-2.5665,-2.4788,-2.4959,-2.4189,-2.3105,-2.3063,-2.2622,-2.164,-2.1501,-2.0592,-1.9202,-1.8689,-1.7605,-1.6561,-1.569,-1.5381,-1.5168,-1.469,-1.452,-1.5087,-1.5219,-1.5043,-1.5264,-1.4962,-1.4873,-1.4822,-1.4799,-1.4733,-1.4789,-1.4849,-1.4908,-1.5004,-1.5133,-1.5167,-1.5181,-1.5181,-1.5181,-1.5181,-1.5181,-1.5181,-1.5181,-1.5181,-1.5181,-1.5181,-1.5181,-1.5181,-1.5181,-1.5181,-1.5181,-1.5181,-1.5181,-1.5181,-1.5181,-1.5181,-1.5181,-1.5181,-1.5181,-1.5181,-1.5181,-1.5181,-1.5201,-1.5316,-1.5425,-1.5533,-1.5593,-1.5845,-1.6105,-1.6133,-1.6133,-1.6133,-1.6133,-1.6133,-1.6133,-1.6133,-1.6133,-1.6133,-1.6133,-1.6133,-1.6133,-1.6133,-1.6133,-1.6133,-1.6133,-1.6133,-1.6133,-1.6133,-1.6133,-1.6133,-1.6133,-1.6133,-1.6133,-1.6133,-1.6133,-1.6133,-1.6133,-1.6133,-1.6133,-1.6133,-1.6133,-1.6133,-1.6133,-1.6133,-1.6133,-1.6133,-1.6133,-1.6133,-2.8192,-2.8192,-2.8192,-2.8192,-2.815,-2.777,-2.7812,-2.8094,-2.7292,-2.6868,-2.6753,-2.6838,-2.6613,-2.5793,-2.5921,-2.5257,-2.4403,-2.3964,-2.2966,-2.1437,-2.1221,-2.0192,-1.8854,-1.8244,-1.7597,-1.6034,-1.508,-1.5212,-1.4778,-1.5043,-1.5521,-1.5749,-1.5624,-1.5491,-1.5396,-1.5086,-1.5043,-1.5164,-1.5055,-1.5041,-1.5139,-1.5181,-1.5181,-1.5181,-1.5181,-1.5181,-1.5181,-1.5181,-1.5181,-1.5181,-1.5181,-1.5181,-1.5181,-1.5181,-1.5181,-1.5181,-1.5181,-1.5181,-1.5181,-1.5181,-1.5181,-1.5181,-1.5181,-1.5181,-1.5181,-1.5181,-1.5181,-1.5181,-1.5181,-1.5181,-1.5262,-1.5452,-1.5553,-1.5661,-1.5872,-1.6022,-1.6133,-1.6133,-1.6133,-1.6133,-1.6133,-1.6133,-1.6133,-1.6133,-1.6133,-1.6133,-1.6133,-1.6133,-1.6133,-1.6133,-1.6133,-1.6133,-1.6133,-1.6133,-1.6133,-1.6133,-1.6133,-1.6133,-1.6133,-1.6133,-1.6133,-1.6133,-1.6133,-1.6133,-1.6133,-1.6133,-1.6133,-1.6133,-1.6133,-1.6133,-1.6133,-1.6133,-1.6133,-1.6133,-1.6133,-2.8192,-2.8192,-2.8192,-2.8192,-2.8192,-2.8094,-2.8108,-2.8179,-2.7968,-2.7643,-2.7431,-2.7643,-2.7461,-2.6995,-2.722,-2.6741,-2.6261,-2.5823,-2.4916,-2.3952,-2.3427,-2.2514,-2.0919,-2.0486,-1.9932,-1.9289,-1.8078,-1.6254,-1.5565,-1.5741,-1.6049,-1.6181,-1.6013,-1.5837,-1.5808,-1.5432,-1.5397,-1.5553,-1.5452,-1.5294,-1.5287,-1.5228,-1.5181,-1.5181,-1.5181,-1.5181,-1.5181,-1.5181,-1.5181,-1.5181,-1.5181,-1.5181,-1.5181,-1.5181,-1.5181,-1.5181,-1.5181,-1.5181,-1.5181,-1.5181,-1.5181,-1.5181,-1.5181,-1.5181,-1.5181,-1.5181,-1.5181,-1.5181,-1.5181,-1.5181,-1.5248,-1.5466,-1.5607,-1.5722,-1.5893,-1.5988,-1.6133,-1.6133,-1.6133,-1.6133,-1.6133,-1.6133,-1.6133,-1.6133,-1.6133,-1.6133,-1.6133,-1.6133,-1.6133,-1.6133,-1.6133,-1.6133,-1.6133,-1.6133,-1.6133,-1.6133,-1.6133,-1.6133,-1.6133,-1.6133,-1.6133,-1.6133,-1.6133,-1.6133,-1.6133,-1.6133,-1.6133,-1.6133,-1.6133,-1.6133,-1.6133,-1.6133,-1.6133,-1.6133,-1.6133,-2.8192,-2.8192,-2.8192,-2.8192,-2.8192,-2.8192,-2.8192,-2.8192,-2.8192,-2.8065,-2.7854,-2.8023,-2.7883,-2.7418,-2.7728,-2.7685,-2.7389,-2.7418,-2.6855,-2.6109,-2.5416,-2.4679,-2.3727,-2.2783,-2.1879,-2.1241,-1.9202,-1.743,-1.6225,-1.6181,-1.6357,-1.6577,-1.6365,-1.6285,-1.6264,-1.6046,-1.5905,-1.606,-1.5901,-1.5642,-1.5502,-1.5462,-1.5368,-1.5321,-1.5181,-1.5181,-1.5181,-1.5181,-1.5181,-1.5181,-1.5181,-1.5181,-1.5181,-1.5181,-1.5181,-1.5181,-1.5181,-1.5181,-1.5181,-1.5181,-1.5181,-1.5181,-1.5181,-1.5181,-1.5181,-1.5181,-1.5181,-1.5181,-1.5181,-1.5181,-1.5262,-1.5445,-1.5539,-1.5661,-1.5893,-1.6098,-1.6133,-1.6133,-1.6133,-1.6133,-1.6133,-1.6133,-1.6133,-1.6133,-1.6133,-1.6133,-1.6133,-1.6133,-1.6133,-1.6133,-1.6133,-1.6133,-1.6133,-1.6133,-1.6133,-1.6133,-1.6133,-1.6133,-1.6133,-1.6133,-1.6133,-1.6133,-1.6133,-1.6133,-1.6133,-1.6133,-1.6133,-1.6133,-1.6133,-1.6133,-1.6133,-1.6133,-1.6133,-1.6139,-1.613,-2.8192,-2.8192,-2.8192,-2.8192,-2.8192,-2.8192,-2.8192,-2.8192,-2.8192,-2.8192,-2.815,-2.8179,-2.8192,-2.8192,-2.8192,-2.8192,-2.815,-2.7926,-2.7926,-2.7926,-2.7841,-2.6758,-2.5896,-2.5245,-2.3824,-2.2019,-2.0081,-1.8086,-1.6357,-1.6533,-1.6753,-1.7024,-1.7112,-1.7068,-1.7037,-1.6871,-1.6663,-1.659,-1.6383,-1.6028,-1.5928,-1.5845,-1.5509,-1.5275,-1.5181,-1.5181,-1.5181,-1.5181,-1.5181,-1.5181,-1.5181,-1.5181,-1.5181,-1.5181,-1.5181,-1.5181,-1.5181,-1.5181,-1.5181,-1.5181,-1.5181,-1.5181,-1.5181,-1.5181,-1.5181,-1.5181,-1.5181,-1.5181,-1.5181,-1.5208,-1.5289,-1.5425,-1.5512,-1.5641,-1.59,-1.6126,-1.6133,-1.6133,-1.6133,-1.6133,-1.6133,-1.6133,-1.6133,-1.6133,-1.6133,-1.6133,-1.6133,-1.6133,-1.6133,-1.6133,-1.6133,-1.6133,-1.6133,-1.6133,-1.6133,-1.6133,-1.6133,-1.6133,-1.6133,-1.6133,-1.6133,-1.6133,-1.6133,-1.6133,-1.6133,-1.6133,-1.6133,-1.6133,-1.6133,-1.6133,-1.6133,-1.6133,-1.6133,-1.6153,-1.6191,-2.8192,-2.8192,-2.8192,-2.8192,-2.8192,-2.8192,-2.8192,-2.8192,-2.8192,-2.8192,-2.8192,-2.8192,-2.8192,-2.8192,-2.8192,-2.8192,-2.8192,-2.8192,-2.8192,-2.8179,-2.8192,-2.7926,-2.7405,-2.6418,-2.4947,-2.288,-2.0862,-1.9351,-1.7052,-1.6805,-1.698,-1.7068,-1.7112,-1.7084,-1.7081,-1.6955,-1.6929,-1.6917,-1.6965,-1.669,-1.5903,-1.5704,-1.5368,-1.5228,-1.5181,-1.5181,-1.5181,-1.5181,-1.5181,-1.5181,-1.5181,-1.5181,-1.5181,-1.5181,-1.5181,-1.5181,-1.5181,-1.5181,-1.5181,-1.5181,-1.5181,-1.5181,-1.5181,-1.5181,-1.5181,-1.5181,-1.5181,-1.5181,-1.5181,-1.5181,-1.5269,-1.5486,-1.5593,-1.5702,-1.592,-1.6029,-1.6133,-1.6133,-1.6133,-1.6133,-1.6133,-1.6133,-1.6133,-1.6133,-1.6133,-1.6133,-1.6133,-1.6133,-1.6133,-1.6133,-1.6133,-1.6133,-1.6133,-1.6133,-1.6133,-1.6133,-1.6133,-1.6133,-1.6133,-1.6133,-1.6133,-1.6133,-1.6133,-1.6133,-1.6133,-1.6133,-1.6133,-1.6133,-1.6133,-1.6133,-1.6133,-1.6133,-1.6133,-1.6167,-1.6198]},{"header":{"parameterUnit":"m.s-1","parameterCategory":1,"la1":31.0,"la2":29.5877,"lo1":-88.7671,"lo2":-86.6584,"dy":0.0162,"dx":0.0185,"nx":115,"ny":88,"refTime":"2023-10-20T06:00:00:Z","depth":0,"parameterNumber":3,"parameterNumberName":"V-component_of_WINDS"},"data":[0.0,0.0,0.0,0.0,0.0,0.0,0.0,0.0,0.0,0.0,0.0,0.0,0.0,0.0,0.0,0.0,0.0,0.0,0.0,0.0,0.0,0.0,0.0,0.0,0.0,0.0,0.0,0.0,0.0,0.0,0.0,0.0,0.0,0.0,0.0,0.0,0.0,0.0,0.0,0.0,0.0,0.0,0.0,0.0,0.0,0.0,0.0,0.0,0.0,0.0,0.0,0.0,0.0,0.0,0.0,0.0,0.0,0.0,0.0,0.0,0.0,0.0,0.0,0.0,0.0,0.0,0.0,0.0,0.0,0.0,0.0,0.0,0.0,0.0,0.0,0.0,0.0,0.0,0.0,0.0,0.0,0.0,0.0,0.0,0.0,0.0,0.0,0.0,0.0,0.0,0.0,0.0,0.0,0.0,0.0,0.0,0.0,0.0,0.0,0.0,0.0,0.0,0.0,0.0,0.0,0.0,0.0,0.0,0.0,0.0,0.0,0.0,0.0,0.0,0.0,0.0,0.0,0.0,0.0,0.0,0.0,0.0,0.0,0.0,0.0,0.0,0.0,0.0,0.0,0.0,0.0,0.0,0.0,0.0,0.0,0.0,0.0,0.0,0.0,0.0,0.0,0.0,0.0,0.0,0.0,0.0,0.0,0.0,0.0,0.0,0.0,0.0,0.0,0.0,0.0,0.0,0.0,0.0,0.0,0.0,0.0,0.0,0.0,0.0,0.0,0.0,0.0,0.0,0.0,0.0,0.0,0.0,0.0,0.0,0.0,0.0,0.0,0.0,0.0,0.0,0.0,0.0,0.0,0.0,0.0,0.0,0.0,0.0,0.0,0.0,0.0,0.0,0.0,0.0,0.0,0.0,0.0,0.0,0.0,0.0,0.0,0.0,0.0,0.0,0.0,0.0,0.0,0.0,0.0,0.0,0.0,0.0,0.0,0.0,0.0,0.0,0.0,0.0,0.0,0.0,0.0,0.0,0.0,0.0,0.0,0.0,0.0,0.0,0.0,0.0,0.0,0.0,0.0,0.0,0.0,0.0,0.0,0.0,0.0,0.0,0.0,0.0,0.0,0.0,0.0,0.0,0.0,0.0,0.0,0.0,0.0,0.0,0.0,0.0,0.0,0.0,0.0,0.0,0.0,0.0,0.0,0.0,0.0,0.0,0.0,0.0,0.0,0.0,0.0,0.0,0.0,0.0,0.0,0.0,0.0,0.0,0.0,0.0,0.0,0.0,0.0,0.0,0.0,0.0,0.0,0.0,0.0,0.0,0.0,0.0,0.0,0.0,0.0,0.0,0.0,0.0,0.0,0.0,0.0,0.0,0.0,0.0,0.0,0.0,0.0,0.0,0.0,0.0,0.0,0.0,0.0,0.0,0.0,0.0,0.0,0.0,0.0,0.0,0.0,0.0,0.0,0.0,0.0,0.0,0.0,0.0,0.0,0.0,0.0,0.0,0.0,0.0,0.0,0.0,0.0,0.0,0.0,0.0,0.0,0.0,0.0,0.0,0.0,0.0,0.0,0.0,0.0,0.0,0.0,0.0,0.0,0.0,0.0,0.0,0.0,0.0,0.0,0.0,0.0,0.0,0.0,0.0,0.0,0.0,0.0,0.0,0.0,0.0,0.0,0.0,0.0,0.0,0.0,0.0,0.0,0.0,0.0,0.0,0.0,0.0,0.0,0.0,0.0,0.0,0.0,0.0,0.0,0.0,0.0,0.0,0.0,0.0,0.0,0.0,0.0,0.0,0.0,0.0,0.0,0.0,0.0,0.0,0.0,0.0,0.0,0.0,0.0,0.0,0.0,0.0,0.0,0.0,0.0,0.0,0.0,0.0,0.0,0.0,0.0,0.0,0.0,0.0,0.0,0.0,0.0,0.0,0.0,0.0,0.0,0.0,0.0,0.0,0.0,0.0,0.0,0.0,0.0,0.0,0.0,0.0,0.0,0.0,0.0,0.0,0.0,0.0,0.0,0.0,0.0,0.0,0.0,0.0,0.0,0.0,0.0,0.0,0.0,0.0,0.0,0.0,0.0,0.0,0.0,0.0,0.0,0.0,0.0,0.0,0.0,0.0,0.0,0.0,0.0,0.0,0.0,0.0,0.0,0.0,0.0,0.0,0.0,0.0,0.0,0.0,0.0,0.0,0.0,0.0,0.0,0.0,0.0,0.0,0.0,0.0,0.0,0.0,0.0,0.0,0.0,0.0,0.0,0.0,0.0,0.0,0.0,0.0,0.0,0.0,0.0,0.0,0.0,0.0,0.0,0.0,0.0,0.0,0.0,0.0,0.0,0.0,0.0,0.0,0.0,0.0,0.0,0.0,0.0,0.0,0.0,0.0,0.0,0.0,0.0,0.0,0.0,0.0,0.0,0.0,0.0,0.0,0.0,0.0,0.0,0.0,0.0,0.0,0.0,0.0,0.0,0.0,0.0,0.0,0.0,0.0,0.0,0.0,0.0,0.0,0.0,0.0,0.0,0.0,0.0,0.0,0.0,0.0,0.0,0.0,0.0,0.0,0.0,0.0,0.0,0.0,0.0,0.0,0.0,0.0,0.0,0.0,0.0,0.0,0.0,0.0,0.0,0.0,0.0,0.0,0.0,0.0,0.0,0.0,0.0,0.0,0.0,0.0,0.0,0.0,0.0,0.0,0.0,0.0,0.0,0.0,0.0,0.0,0.0,0.0,0.0,0.0,0.0,0.0,0.0,0.0,0.0,0.0,0.0,0.0,0.0,0.0,0.0,0.0,0.0,0.0,0.0,0.0,0.0,0.0,0.0,0.0,0.0,0.0,0.0,0.0,0.0,0.0,0.0,0.0,0.0,0.0,0.0,0.0,0.0,0.0,0.0,0.0,0.0,0.0,0.0,0.0,0.0,0.0,0.0,0.0,0.0,0.0,0.0,0.0,0.0,0.0,0.0,0.0,0.0,0.0,0.0,0.0,0.0,0.0,0.0,0.0,0.0,0.0,0.0,0.0,0.0,0.0,0.0,0.0,0.0,0.0,0.0,0.0,0.0,0.0,0.0,0.0,0.0,0.0,0.0,0.0,0.0,0.0,0.0,0.0,0.0,0.0,0.0,0.0,0.0,0.0,0.0,0.0,0.0,0.0,0.0,0.0,0.0,0.0,0.0,0.0,0.0,0.0,0.0,0.0,0.0,0.0,0.0,0.0,0.0,0.0,0.0,0.0,0.0,0.0,0.0,0.0,0.0,0.0,0.0,0.0,0.0,0.0,0.0,0.0,0.0,0.0,0.0,0.0,0.0,0.0,0.0,0.0,0.0,0.0,0.0,0.0,0.0,0.0,0.0,0.0,0.0,0.0,0.0,0.0,0.0,0.0,0.0,0.0,0.0,0.0,0.0,0.0,0.0,0.0,0.0,0.0,0.0,0.0,0.0,0.0,0.0,0.0,0.0,0.0,0.0,0.0,0.0,0.0,0.0,0.0,0.0,0.0,0.0,0.0,0.0,0.0,0.0,0.0,0.0,0.0,0.0,0.0,0.0,0.0,0.0,0.0,0.0,0.0,0.0,0.0,0.0,0.0,0.0,0.0,0.0,0.0,0.0,0.0,0.0,0.0,0.0,0.0,0.0,0.0,0.0,0.0,0.0,0.0,0.0,0.0,0.0,0.0,0.0,0.0,0.0,0.0,0.0,0.0,0.0,0.0,0.0,0.0,0.0,0.0,0.0,0.0,0.0,0.0,0.0,0.0,0.0,0.0,0.0,0.0,0.0,0.0,0.0,0.0,0.0,0.0,0.0,0.0,0.0,0.0,0.0,0.0,0.0,0.0,0.0,0.0,0.0,0.0,0.0,0.0,0.0,0.0,0.0,0.0,0.0,0.0,0.0,0.0,0.0,0.0,0.0,0.0,0.0,0.0,0.0,0.0,0.0,0.0,0.0,0.0,0.0,0.0,0.0,0.0,0.0,0.0,0.0,0.0,0.0,0.0,0.0,0.0,0.0,0.0,0.0,0.0,0.0,0.0,0.0,0.0,0.0,0.0,0.0,0.0,0.0,0.0,0.0,0.0,0.0,0.0,0.0,0.0,0.0,0.0,0.0,0.0,0.0,0.0,0.0,0.0,0.0,0.0,0.0,0.0,0.0,0.0,0.0,0.0,0.0,0.0,0.0,0.0,0.0,0.0,0.0,0.0,0.0,0.0,0.0,0.0,0.0,0.0,0.0,0.0,0.0,0.0,0.0,0.0,0.0,0.0,0.0,0.0,0.0,0.0,0.0,0.0,0.0,0.0,0.0,0.0,0.0,0.0,4.59,0.0,0.0,0.0,0.0,0.0,0.0,0.0,0.0,0.0,0.0,0.0,0.0,0.0,0.0,0.0,0.0,0.0,0.0,0.0,0.0,0.0,0.0,0.0,0.0,0.0,0.0,0.0,0.0,0.0,0.0,0.0,0.0,0.0,0.0,0.0,0.0,0.0,0.0,0.0,0.0,0.0,0.0,0.0,0.0,0.0,0.0,0.0,0.0,0.0,0.0,0.0,0.0,0.0,0.0,0.0,0.0,0.0,0.0,0.0,0.0,0.0,0.0,0.0,0.0,0.0,0.0,0.0,0.0,0.0,0.0,0.0,0.0,0.0,0.0,0.0,0.0,0.0,0.0,0.0,0.0,0.0,0.0,0.0,0.0,0.0,0.0,0.0,0.0,0.0,0.0,0.0,0.0,0.0,0.0,0.0,0.0,0.0,0.0,0.0,0.0,0.0,0.0,0.0,0.0,0.0,0.0,0.0,0.0,0.0,0.0,4.5975,4.5961,4.5997,4.5983,4.5953,0.0,0.0,0.0,0.0,0.0,0.0,0.0,0.0,0.0,0.0,0.0,0.0,0.0,0.0,0.0,0.0,0.0,0.0,0.0,0.0,0.0,0.0,0.0,0.0,0.0,0.0,0.0,0.0,0.0,0.0,0.0,0.0,0.0,0.0,0.0,0.0,0.0,0.0,0.0,0.0,0.0,0.0,0.0,0.0,0.0,0.0,0.0,0.0,0.0,0.0,0.0,0.0,0.0,0.0,0.0,0.0,0.0,0.0,0.0,0.0,0.0,0.0,0.0,0.0,0.0,0.0,0.0,0.0,0.0,0.0,0.0,0.0,0.0,0.0,0.0,0.0,0.0,0.0,0.0,0.0,0.0,0.0,0.0,0.0,0.0,0.0,0.0,0.0,0.0,0.0,0.0,0.0,0.0,0.0,0.0,0.0,0.0,0.0,0.0,0.0,0.0,0.0,0.0,0.0,0.0,0.0,0.0,0.0,0.0,0.0,0.0,0.0,4.598,4.6003,4.5994,0.0,0.0,0.0,0.0,0.0,0.0,0.0,0.0,0.0,0.0,0.0,0.0,0.0,0.0,0.0,0.0,0.0,0.0,0.0,0.0,0.0,0.0,0.0,0.0,0.0,0.0,0.0,0.0,0.0,0.0,0.0,0.0,0.0,0.0,0.0,0.0,0.0,0.0,0.0,0.0,0.0,0.0,0.0,0.0,0.0,0.0,0.0,0.0,0.0,0.0,0.0,0.0,0.0,0.0,0.0,0.0,0.0,0.0,0.0,0.0,0.0,0.0,0.0,0.0,0.0,0.0,0.0,0.0,0.0,0.0,0.0,0.0,0.0,0.0,0.0,0.0,0.0,0.0,0.0,0.0,0.0,0.0,0.0,0.0,0.0,0.0,0.0,0.0,0.0,0.0,0.0,0.0,0.0,0.0,0.0,0.0,0.0,0.0,0.0,0.0,0.0,0.0,0.0,0.0,0.0,0.0,0.0,0.0,0.0,0.0,4.6002,4.6002,4.5997,0.0,4.5997,0.0,0.0,0.0,0.0,0.0,0.0,0.0,0.0,0.0,0.0,0.0,0.0,0.0,0.0,0.0,0.0,0.0,0.0,0.0,0.0,0.0,0.0,0.0,0.0,0.0,0.0,0.0,0.0,0.0,0.0,0.0,0.0,0.0,0.0,0.0,0.0,0.0,0.0,0.0,0.0,0.0,0.0,0.0,0.0,0.0,0.0,0.0,0.0,0.0,0.0,0.0,0.0,0.0,0.0,0.0,0.0,0.0,0.0,0.0,0.0,0.0,0.0,0.0,0.0,0.0,0.0,0.0,0.0,0.0,0.0,0.0,0.0,0.0,0.0,0.0,0.0,0.0,0.0,0.0,0.0,0.0,0.0,0.0,0.0,0.0,0.0,0.0,0.0,0.0,0.0,0.0,0.0,0.0,0.0,0.0,0.0,0.0,0.0,0.0,0.0,0.0,0.0,0.0,0.0,0.0,0.0,0.0,0.0,0.0,0.0,4.6002,4.6002,4.6002,4.5986,0.0,0.0,0.0,0.0,0.0,0.0,0.0,0.0,0.0,0.0,0.0,0.0,0.0,0.0,0.0,0.0,0.0,0.0,0.0,0.0,0.0,0.0,0.0,0.0,0.0,0.0,0.0,0.0,0.0,0.0,0.0,0.0,0.0,0.0,0.0,0.0,0.0,0.0,0.0,0.0,0.0,0.0,0.0,0.0,0.0,0.0,0.0,0.0,0.0,0.0,0.0,0.0,0.0,0.0,0.0,0.0,0.0,0.0,0.0,0.0,0.0,0.0,0.0,0.0,0.0,0.0,0.0,0.0,0.0,0.0,0.0,0.0,0.0,0.0,0.0,0.0,0.0,0.0,0.0,0.0,0.0,0.0,0.0,0.0,0.0,0.0,0.0,0.0,0.0,0.0,0.0,0.0,0.0,0.0,0.0,0.0,0.0,0.0,0.0,0.0,0.0,0.0,0.0,0.0,0.0,0.0,0.0,0.0,0.0,0.0,4.6698,4.6621,4.6349,4.6116,4.6108,4.6316,0.0,0.0,0.0,0.0,0.0,0.0,0.0,0.0,0.0,0.0,0.0,0.0,0.0,0.0,0.0,0.0,0.0,0.0,0.0,0.0,0.0,0.0,0.0,0.0,0.0,0.0,0.0,0.0,0.0,0.0,0.0,0.0,0.0,0.0,0.0,0.0,0.0,0.0,0.0,0.0,0.0,0.0,0.0,0.0,0.0,0.0,0.0,0.0,0.0,0.0,0.0,0.0,0.0,0.0,0.0,0.0,0.0,0.0,0.0,0.0,0.0,0.0,0.0,0.0,0.0,0.0,0.0,0.0,0.0,0.0,0.0,0.0,0.0,0.0,0.0,0.0,0.0,0.0,0.0,0.0,0.0,0.0,0.0,0.0,0.0,0.0,0.0,0.0,0.0,0.0,0.0,0.0,0.0,0.0,0.0,0.0,0.0,0.0,0.0,0.0,0.0,0.0,0.0,0.0,0.0,0.0,0.0,0.0,4.8444,4.8444,4.8094,4.7276,4.6427,4.6385,0.0,0.0,0.0,0.0,0.0,0.0,0.0,0.0,0.0,0.0,0.0,0.0,0.0,0.0,0.0,0.0,0.0,0.0,0.0,0.0,0.0,0.0,0.0,0.0,0.0,0.0,0.0,0.0,0.0,0.0,0.0,0.0,0.0,0.0,0.0,0.0,0.0,0.0,0.0,0.0,0.0,0.0,0.0,0.0,0.0,0.0,0.0,0.0,0.0,0.0,0.0,0.0,0.0,0.0,0.0,0.0,0.0,0.0,0.0,0.0,0.0,0.0,0.0,0.0,0.0,0.0,0.0,0.0,0.0,0.0,0.0,0.0,0.0,0.0,0.0,0.0,0.0,0.0,0.0,0.0,0.0,0.0,0.0,0.0,0.0,0.0,0.0,0.0,0.0,0.0,0.0,0.0,0.0,0.0,0.0,0.0,0.0,0.0,0.0,0.0,0.0,0.0,0.0,0.0,0.0,0.0,0.0,0.0,0.0,4.8599,4.8599,4.8444,4.8133,4.7822,4.7825,0.0,0.0,0.0,0.0,0.0,0.0,0.0,0.0,0.0,0.0,0.0,0.0,0.0,0.0,0.0,0.0,0.0,0.0,0.0,0.0,0.0,0.0,0.0,0.0,0.0,0.0,0.0,0.0,0.0,0.0,0.0,0.0,0.0,0.0,0.0,0.0,0.0,0.0,0.0,0.0,0.0,0.0,0.0,0.0,0.0,0.0,0.0,0.0,0.0,0.0,0.0,0.0,0.0,0.0,0.0,0.0,0.0,0.0,0.0,0.0,0.0,0.0,0.0,0.0,0.0,0.0,0.0,0.0,0.0,0.0,0.0,0.0,0.0,0.0,0.0,0.0,0.0,0.0,0.0,0.0,0.0,0.0,0.0,0.0,0.0,0.0,0.0,0.0,0.0,0.0,0.0,0.0,0.0,0.0,0.0,0.0,0.0,0.0,0.0,0.0,0.0,0.0,0.0,0.0,0.0,0.0,0.0,0.0,0.0,4.9415,0.0,4.8991,4.8991,4.8755,4.8758,0.0,0.0,0.0,0.0,0.0,0.0,0.0,0.0,0.0,0.0,0.0,0.0,0.0,0.0,0.0,0.0,0.0,0.0,0.0,0.0,0.0,0.0,0.0,0.0,0.0,0.0,0.0,0.0,0.0,0.0,0.0,0.0,0.0,0.0,0.0,0.0,0.0,0.0,0.0,0.0,0.0,0.0,0.0,0.0,0.0,0.0,0.0,0.0,0.0,0.0,0.0,0.0,0.0,0.0,0.0,0.0,0.0,0.0,0.0,0.0,0.0,0.0,0.0,0.0,0.0,0.0,0.0,0.0,0.0,0.0,0.0,0.0,0.0,0.0,0.0,0.0,0.0,0.0,0.0,0.0,0.0,0.0,0.0,0.0,0.0,0.0,0.0,0.0,0.0,0.0,0.0,0.0,0.0,0.0,0.0,0.0,0.0,0.0,0.0,0.0,0.0,0.0,0.0,0.0,0.0,0.0,0.0,0.0,5.116,5.1122,5.0348,4.9926,4.9887,4.9146,4.9068,0.0,0.0,0.0,0.0,0.0,0.0,0.0,0.0,0.0,0.0,0.0,0.0,0.0,0.0,0.0,0.0,0.0,0.0,0.0,0.0,0.0,0.0,0.0,0.0,0.0,0.0,0.0,0.0,0.0,0.0,0.0,0.0,0.0,0.0,0.0,0.0,0.0,0.0,0.0,0.0,0.0,0.0,0.0,0.0,0.0,0.0,0.0,0.0,0.0,0.0,0.0,0.0,0.0,0.0,0.0,0.0,0.0,0.0,0.0,0.0,0.0,0.0,0.0,0.0,0.0,0.0,0.0,0.0,0.0,0.0,0.0,0.0,0.0,0.0,0.0,0.0,0.0,0.0,0.0,0.0,0.0,0.0,0.0,0.0,0.0,0.0,0.0,0.0,0.0,0.0,0.0,0.0,0.0,0.0,0.0,0.0,0.0,0.0,0.0,0.0,0.0,0.0,0.0,0.0,0.0,0.0,0.0,0.0,0.0,5.1199,5.093,5.0814,5.0775,5.0542,5.0503,0.0,0.0,0.0,0.0,0.0,0.0,0.0,0.0,0.0,0.0,0.0,0.0,0.0,0.0,0.0,0.0,0.0,0.0,0.0,0.0,0.0,0.0,0.0,0.0,0.0,0.0,0.0,0.0,0.0,0.0,0.0,0.0,0.0,0.0,0.0,0.0,0.0,0.0,0.0,0.0,0.0,0.0,0.0,0.0,0.0,0.0,0.0,0.0,0.0,0.0,0.0,0.0,0.0,0.0,0.0,0.0,0.0,0.0,0.0,0.0,0.0,0.0,0.0,0.0,0.0,0.0,0.0,0.0,0.0,0.0,0.0,0.0,0.0,0.0,0.0,0.0,0.0,0.0,0.0,0.0,0.0,0.0,0.0,0.0,0.0,0.0,0.0,0.0,0.0,0.0,0.0,0.0,0.0,0.0,0.0,0.0,0.0,0.0,0.0,0.0,0.0,0.0,0.0,0.0,0.0,0.0,0.0,0.0,0.0,5.163,5.1358,5.1199,5.1199,5.1199,5.1199,5.1199,0.0,0.0,0.0,0.0,0.0,0.0,0.0,0.0,0.0,0.0,0.0,0.0,0.0,0.0,0.0,0.0,0.0,0.0,0.0,0.0,0.0,0.0,0.0,0.0,0.0,0.0,0.0,0.0,0.0,0.0,0.0,0.0,0.0,0.0,0.0,0.0,0.0,0.0,0.0,0.0,0.0,0.0,0.0,0.0,0.0,0.0,0.0,0.0,0.0,0.0,0.0,0.0,0.0,0.0,0.0,0.0,0.0,0.0,0.0,0.0,0.0,0.0,0.0,0.0,0.0,0.0,0.0,0.0,0.0,0.0,0.0,0.0,0.0,0.0,0.0,0.0,0.0,0.0,0.0,0.0,0.0,0.0,0.0,0.0,0.0,0.0,0.0,0.0,0.0,0.0,0.0,0.0,0.0,0.0,0.0,0.0,0.0,0.0,0.0,0.0,0.0,0.0,0.0,0.0,0.0,0.0,0.0,0.0,5.2484,5.1746,5.1319,5.1199,5.1199,5.1199,0.0,0.0,0.0,0.0,0.0,0.0,0.0,0.0,0.0,0.0,0.0,0.0,0.0,0.0,0.0,0.0,0.0,0.0,0.0,0.0,0.0,0.0,0.0,0.0,0.0,0.0,0.0,0.0,0.0,0.0,0.0,0.0,0.0,0.0,0.0,0.0,0.0,0.0,0.0,0.0,0.0,0.0,0.0,0.0,0.0,0.0,0.0,0.0,0.0,0.0,0.0,0.0,0.0,0.0,0.0,0.0,0.0,0.0,0.0,0.0,0.0,0.0,0.0,0.0,0.0,0.0,0.0,0.0,0.0,0.0,0.0,0.0,0.0,0.0,0.0,0.0,0.0,0.0,0.0,0.0,0.0,0.0,0.0,0.0,0.0,0.0,0.0,0.0,0.0,0.0,0.0,0.0,0.0,0.0,0.0,0.0,0.0,0.0,0.0,0.0,0.0,0.0,0.0,0.0,0.0,0.0,0.0,0.0,0.0,5.3342,5.3148,5.2448,5.1277,5.1199,5.1199,0.0,0.0,0.0,0.0,0.0,0.0,0.0,0.0,0.0,0.0,0.0,0.0,0.0,0.0,0.0,0.0,0.0,0.0,0.0,0.0,0.0,0.0,0.0,0.0,0.0,0.0,0.0,0.0,0.0,0.0,0.0,0.0,0.0,0.0,0.0,0.0,0.0,0.0,0.0,0.0,0.0,0.0,0.0,0.0,0.0,0.0,0.0,0.0,0.0,0.0,0.0,0.0,0.0,0.0,0.0,0.0,0.0,0.0,0.0,0.0,0.0,0.0,0.0,0.0,0.0,0.0,0.0,0.0,0.0,0.0,0.0,0.0,0.0,0.0,0.0,0.0,0.0,0.0,0.0,0.0,0.0,0.0,0.0,0.0,0.0,0.0,0.0,0.0,0.0,0.0,0.0,0.0,0.0,0.0,0.0,0.0,0.0,0.0,0.0,0.0,0.0,0.0,0.0,0.0,0.0,0.0,0.0,0.0,5.4235,5.4274,5.4235,5.3611,5.229,5.2251,5.2251,0.0,0.0,0.0,0.0,0.0,0.0,0.0,0.0,0.0,0.0,0.0,0.0,0.0,0.0,0.0,0.0,0.0,0.0,0.0,0.0,0.0,0.0,0.0,0.0,0.0,0.0,0.0,0.0,0.0,0.0,0.0,0.0,0.0,0.0,0.0,0.0,0.0,0.0,0.0,0.0,0.0,0.0,0.0,0.0,0.0,0.0,0.0,0.0,0.0,0.0,0.0,0.0,0.0,0.0,0.0,0.0,0.0,0.0,0.0,0.0,0.0,0.0,0.0,0.0,0.0,0.0,0.0,0.0,0.0,0.0,0.0,0.0,0.0,0.0,0.0,0.0,0.0,0.0,0.0,0.0,0.0,0.0,0.0,0.0,0.0,0.0,0.0,0.0,0.0,0.0,0.0,0.0,0.0,0.0,0.0,0.0,0.0,0.0,0.0,0.0,0.0,0.0,0.0,0.0,0.0,0.0,0.0,0.0,5.5126,5.5126,5.5126,5.4737,5.4002,5.3808,5.3695,0.0,0.0,0.0,0.0,0.0,0.0,0.0,0.0,0.0,0.0,0.0,0.0,0.0,0.0,0.0,0.0,0.0,0.0,0.0,0.0,0.0,0.0,0.0,0.0,0.0,0.0,0.0,0.0,0.0,0.0,0.0,0.0,0.0,0.0,0.0,0.0,0.0,0.0,0.0,0.0,0.0,0.0,0.0,0.0,0.0,0.0,0.0,0.0,0.0,0.0,0.0,0.0,0.0,0.0,0.0,0.0,0.0,0.0,0.0,0.0,0.0,0.0,0.0,0.0,0.0,0.0,0.0,0.0,0.0,0.0,0.0,0.0,0.0,0.0,0.0,0.0,0.0,0.0,0.0,0.0,0.0,0.0,0.0,0.0,0.0,0.0,0.0,0.0,0.0,0.0,0.0,0.0,0.0,0.0,0.0,0.0,0.0,0.0,0.0,0.0,0.0,0.0,0.0,0.0,0.0,0.0,0.0,0.0,5.6019,5.6019,5.6019,5.5945,5.5747,5.4433,5.3695,0.0,0.0,0.0,0.0,0.0,0.0,0.0,0.0,0.0,0.0,0.0,0.0,0.0,0.0,0.0,0.0,0.0,0.0,0.0,0.0,0.0,0.0,0.0,0.0,0.0,0.0,0.0,0.0,0.0,0.0,0.0,0.0,0.0,0.0,0.0,0.0,0.0,0.0,0.0,0.0,0.0,0.0,0.0,0.0,0.0,0.0,0.0,0.0,5.1199,0.0,0.0,0.0,0.0,0.0,0.0,0.0,0.0,0.0,0.0,0.0,0.0,0.0,0.0,0.0,0.0,0.0,0.0,0.0,0.0,0.0,0.0,0.0,0.0,0.0,0.0,0.0,0.0,0.0,0.0,0.0,0.0,0.0,0.0,0.0,0.0,0.0,0.0,0.0,0.0,0.0,0.0,0.0,0.0,0.0,0.0,0.0,0.0,0.0,0.0,0.0,0.0,0.0,0.0,0.0,0.0,0.0,0.0,0.0,5.6295,5.6295,5.6295,5.6295,5.6256,5.5401,5.4935,0.0,0.0,0.0,0.0,0.0,0.0,0.0,0.0,0.0,0.0,0.0,0.0,0.0,0.0,0.0,0.0,0.0,0.0,0.0,0.0,0.0,0.0,0.0,0.0,0.0,0.0,0.0,0.0,0.0,0.0,0.0,0.0,0.0,0.0,0.0,0.0,0.0,0.0,0.0,0.0,0.0,0.0,0.0,0.0,0.0,0.0,0.0,0.0,0.0,0.0,0.0,0.0,0.0,0.0,0.0,0.0,0.0,0.0,0.0,0.0,0.0,0.0,0.0,0.0,0.0,0.0,0.0,0.0,0.0,0.0,0.0,0.0,0.0,0.0,0.0,0.0,0.0,0.0,0.0,0.0,0.0,0.0,0.0,0.0,0.0,0.0,0.0,0.0,0.0,0.0,0.0,0.0,0.0,0.0,0.0,0.0,0.0,0.0,0.0,0.0,0.0,0.0,0.0,0.0,0.0,0.0,0.0,5.6644,5.668,5.668,5.668,5.668,5.6683,5.6563,5.6567,5.6683,0.0,0.0,0.0,0.0,0.0,0.0,0.0,0.0,0.0,0.0,0.0,0.0,0.0,0.0,0.0,0.0,0.0,0.0,0.0,0.0,0.0,0.0,0.0,0.0,0.0,0.0,0.0,0.0,0.0,0.0,0.0,0.0,0.0,0.0,0.0,0.0,0.0,0.0,5.1358,5.1513,0.0,0.0,0.0,0.0,0.0,0.0,0.0,0.0,5.2018,0.0,0.0,0.0,0.0,0.0,0.0,0.0,0.0,0.0,0.0,0.0,0.0,0.0,0.0,0.0,0.0,0.0,0.0,0.0,0.0,0.0,0.0,0.0,0.0,0.0,0.0,0.0,0.0,0.0,0.0,0.0,0.0,0.0,0.0,0.0,0.0,0.0,0.0,0.0,0.0,0.0,0.0,0.0,0.0,0.0,0.0,0.0,0.0,0.0,0.0,0.0,0.0,0.0,0.0,0.0,0.0,5.7386,5.804,5.8389,5.8389,5.8389,5.8389,5.835,5.7732,5.7693,5.8273,0.0,0.0,0.0,0.0,0.0,0.0,0.0,0.0,0.0,0.0,0.0,0.0,0.0,0.0,0.0,0.0,0.0,0.0,0.0,0.0,0.0,0.0,0.0,0.0,0.0,0.0,0.0,0.0,0.0,0.0,0.0,0.0,0.0,0.0,0.0,0.0,0.0,0.0,0.0,5.2837,5.3303,0.0,0.0,0.0,0.0,0.0,0.0,0.0,0.0,5.3264,0.0,0.0,0.0,0.0,0.0,0.0,0.0,0.0,0.0,0.0,0.0,0.0,0.0,0.0,0.0,0.0,0.0,0.0,0.0,0.0,0.0,0.0,0.0,0.0,0.0,0.0,0.0,0.0,0.0,0.0,0.0,0.0,0.0,0.0,0.0,0.0,0.0,0.0,0.0,0.0,0.0,0.0,0.0,0.0,0.0,0.0,0.0,0.0,0.0,0.0,0.0,0.0,0.0,0.0,0.0,5.8234,5.8622,5.8817,5.8817,5.8817,5.8817,5.8817,5.8428,5.8389,0.0,0.0,0.0,0.0,0.0,0.0,0.0,0.0,0.0,0.0,0.0,0.0,0.0,0.0,0.0,0.0,0.0,0.0,0.0,0.0,0.0,0.0,0.0,0.0,0.0,0.0,0.0,0.0,0.0,0.0,0.0,0.0,0.0,0.0,0.0,0.0,0.0,0.0,0.0,0.0,5.342,5.3724,5.3709,0.0,0.0,0.0,0.0,0.0,0.0,5.4002,5.385,0.0,0.0,0.0,0.0,0.0,0.0,0.0,0.0,0.0,0.0,0.0,0.0,0.0,0.0,0.0,0.0,0.0,0.0,0.0,0.0,0.0,0.0,0.0,0.0,0.0,0.0,0.0,0.0,0.0,0.0,0.0,0.0,0.0,0.0,0.0,0.0,0.0,0.0,0.0,0.0,0.0,0.0,0.0,0.0,0.0,0.0,0.0,0.0,0.0,0.0,0.0,0.0,0.0,0.0,0.0,5.9046,5.924,5.9318,5.9318,5.9318,5.9318,5.9318,5.9166,5.9163,0.0,0.0,0.0,0.0,0.0,0.0,0.0,0.0,0.0,0.0,0.0,0.0,0.0,0.0,0.0,0.0,0.0,0.0,0.0,0.0,0.0,0.0,0.0,0.0,0.0,0.0,0.0,0.0,0.0,0.0,0.0,0.0,0.0,0.0,0.0,0.0,0.0,0.0,0.0,0.0,0.0,5.4223,5.4226,5.4213,0.0,0.0,0.0,0.0,5.5165,5.4663,0.0,0.0,0.0,0.0,0.0,0.0,0.0,0.0,0.0,0.0,0.0,0.0,0.0,0.0,0.0,0.0,0.0,0.0,0.0,0.0,0.0,0.0,0.0,0.0,0.0,0.0,0.0,0.0,0.0,0.0,0.0,0.0,0.0,0.0,0.0,0.0,0.0,0.0,0.0,0.0,0.0,0.0,0.0,0.0,0.0,0.0,0.0,0.0,0.0,0.0,0.0,0.0,0.0,0.0,0.0,0.0,5.9985,6.0717,6.1105,6.1105,6.1102,6.1105,6.1105,6.037,6.0289,0.0,0.0,0.0,0.0,0.0,0.0,0.0,0.0,0.0,0.0,0.0,0.0,0.0,0.0,0.0,0.0,0.0,0.0,0.0,0.0,0.0,0.0,0.0,0.0,0.0,0.0,0.0,0.0,0.0,0.0,0.0,0.0,0.0,0.0,0.0,0.0,0.0,0.0,0.0,0.0,0.0,5.5971,5.5934,5.5961,5.5971,0.0,0.0,5.6023,5.6136,5.6058,0.0,0.0,0.0,0.0,0.0,0.0,0.0,0.0,0.0,0.0,0.0,0.0,0.0,0.0,0.0,0.0,0.0,0.0,0.0,0.0,0.0,0.0,0.0,0.0,0.0,0.0,0.0,0.0,0.0,0.0,0.0,0.0,0.0,0.0,0.0,0.0,0.0,0.0,0.0,0.0,0.0,0.0,0.0,0.0,0.0,0.0,0.0,0.0,0.0,0.0,0.0,0.0,0.0,0.0,0.0,6.0837,6.0837,6.1183,6.1416,6.1416,6.1416,6.1416,6.1416,6.1027,6.1027,0.0,0.0,0.0,0.0,0.0,0.0,0.0,0.0,0.0,0.0,0.0,0.0,0.0,0.0,0.0,0.0,0.0,0.0,0.0,0.0,0.0,0.0,0.0,0.0,0.0,0.0,0.0,0.0,0.0,0.0,0.0,0.0,0.0,0.0,0.0,0.0,0.0,0.0,0.0,0.0,0.0,0.0,5.6209,5.6629,0.0,0.0,0.0,5.7722,5.7741,0.0,0.0,0.0,0.0,0.0,0.0,0.0,0.0,0.0,0.0,0.0,0.0,0.0,0.0,0.0,0.0,0.0,0.0,0.0,0.0,0.0,0.0,0.0,0.0,0.0,0.0,0.0,0.0,0.0,0.0,0.0,0.0,0.0,0.0,0.0,0.0,0.0,0.0,0.0,0.0,0.0,0.0,0.0,0.0,0.0,0.0,0.0,0.0,0.0,0.0,0.0,0.0,0.0,0.0,0.0,0.0,0.0,6.1416,6.161,6.1727,6.1727,6.1921,6.2037,6.2037,6.2037,0.0,0.0,0.0,0.0,0.0,0.0,0.0,0.0,0.0,0.0,0.0,0.0,0.0,0.0,0.0,0.0,0.0,0.0,0.0,0.0,0.0,0.0,0.0,0.0,0.0,0.0,0.0,5.532,0.0,0.0,0.0,0.0,0.0,0.0,0.0,0.0,0.0,0.0,0.0,0.0,0.0,0.0,5.6841,5.6792,5.7365,5.7753,0.0,0.0,5.8775,5.8788,5.8768,5.8789,0.0,0.0,0.0,0.0,0.0,0.0,0.0,0.0,0.0,0.0,0.0,0.0,0.0,0.0,0.0,0.0,0.0,0.0,0.0,0.0,0.0,0.0,0.0,0.0,0.0,0.0,0.0,0.0,0.0,0.0,0.0,0.0,0.0,0.0,0.0,0.0,0.0,0.0,0.0,0.0,0.0,0.0,0.0,0.0,0.0,0.0,0.0,0.0,0.0,0.0,0.0,0.0,0.0,0.0,6.1416,6.1416,6.2193,6.2624,6.2624,6.3401,6.3832,6.3832,6.3832,6.3789,0.0,0.0,0.0,0.0,0.0,0.0,0.0,0.0,0.0,0.0,0.0,0.0,0.0,0.0,0.0,0.0,0.0,0.0,0.0,0.0,0.0,0.0,0.0,0.0,0.0,0.0,0.0,0.0,0.0,0.0,0.0,0.0,0.0,0.0,0.0,0.0,0.0,0.0,0.0,0.0,0.0,5.8575,5.8458,5.8517,5.8602,0.0,5.8633,5.8696,5.8731,5.8734,5.8711,5.8795,0.0,0.0,0.0,0.0,0.0,0.0,0.0,0.0,0.0,0.0,0.0,0.0,0.0,0.0,0.0,0.0,0.0,0.0,0.0,0.0,0.0,0.0,0.0,0.0,0.0,0.0,0.0,0.0,0.0,0.0,0.0,0.0,0.0,0.0,0.0,0.0,0.0,0.0,0.0,0.0,0.0,0.0,0.0,0.0,0.0,0.0,0.0,0.0,0.0,0.0,0.0,0.0,0.0,6.3012,6.3012,6.3323,6.3482,6.3521,6.3832,6.3983,6.3983,6.3983,6.3983,0.0,0.0,0.0,0.0,0.0,0.0,0.0,0.0,0.0,0.0,0.0,0.0,0.0,0.0,0.0,0.0,0.0,0.0,0.0,0.0,0.0,0.0,0.0,0.0,0.0,0.0,0.0,0.0,5.8082,5.825,5.825,0.0,0.0,0.0,0.0,0.0,0.0,0.0,0.0,0.0,0.0,5.9447,5.9413,6.0351,0.0,0.0,6.144,6.1819,6.1793,6.1815,6.1836,6.1895,6.1949,0.0,0.0,0.0,0.0,0.0,0.0,0.0,0.0,0.0,0.0,0.0,0.0,0.0,0.0,0.0,0.0,0.0,0.0,0.0,0.0,0.0,0.0,0.0,0.0,0.0,0.0,0.0,0.0,0.0,0.0,0.0,0.0,0.0,0.0,0.0,0.0,0.0,0.0,0.0,0.0,0.0,0.0,0.0,0.0,0.0,0.0,0.0,0.0,0.0,0.0,0.0,0.0,6.3737,6.4014,6.4242,6.4372,6.4333,6.4605,6.4764,6.476,6.476,6.4757,0.0,0.0,0.0,0.0,0.0,0.0,0.0,0.0,0.0,0.0,0.0,0.0,0.0,0.0,0.0,0.0,0.0,0.0,0.0,0.0,0.0,0.0,0.0,0.0,0.0,0.0,0.0,0.0,5.8932,5.9055,5.9043,0.0,0.0,0.0,0.0,0.0,0.0,0.0,0.0,0.0,0.0,6.1027,6.1057,6.2102,6.2824,6.2786,6.3341,6.376,6.3728,6.3751,6.3778,6.3748,0.0,0.0,0.0,0.0,0.0,0.0,0.0,0.0,0.0,0.0,0.0,0.0,0.0,0.0,0.0,0.0,0.0,0.0,0.0,0.0,0.0,0.0,0.0,0.0,0.0,0.0,0.0,5.3954,0.0,0.0,5.6332,0.0,0.0,0.0,0.0,0.0,0.0,0.0,0.0,0.0,0.0,0.0,0.0,0.0,0.0,0.0,0.0,0.0,0.0,0.0,0.0,0.0,0.0,6.3204,6.4021,6.4795,6.5184,6.5219,6.6,6.6388,6.6388,6.6427,6.6408,6.6329,0.0,0.0,0.0,0.0,0.0,0.0,0.0,0.0,0.0,0.0,0.0,0.0,0.0,0.0,0.0,0.0,0.0,0.0,0.0,0.0,0.0,0.0,0.0,0.0,0.0,0.0,5.8804,5.943,5.9895,0.0,0.0,0.0,0.0,0.0,0.0,0.0,0.0,0.0,6.2172,6.3056,6.3612,6.3608,6.3642,6.3719,6.3719,6.3719,6.3719,6.3758,6.3724,6.3695,0.0,0.0,0.0,0.0,0.0,0.0,0.0,0.0,0.0,0.0,0.0,0.0,0.0,0.0,0.0,0.0,0.0,0.0,0.0,0.0,0.0,0.0,0.0,0.0,0.0,0.0,0.0,5.5891,5.6415,0.0,0.0,0.0,0.0,0.0,0.0,0.0,0.0,0.0,0.0,0.0,6.0002,6.0548,0.0,0.0,0.0,0.0,0.0,0.0,0.0,0.0,0.0,0.0,0.0,0.0,6.5477,6.5673,6.5923,6.6033,6.6001,6.6269,6.6424,6.6428,6.6428,6.642,6.6403,0.0,0.0,0.0,0.0,0.0,0.0,0.0,0.0,0.0,0.0,0.0,0.0,0.0,0.0,0.0,0.0,0.0,0.0,0.0,0.0,0.0,0.0,0.0,0.0,0.0,5.9956,0.0,0.0,0.0,0.0,0.0,0.0,0.0,0.0,0.0,0.0,0.0,6.296,6.3212,6.4,6.4585,6.4566,6.503,6.5378,0.0,0.0,0.0,0.0,0.0,0.0,0.0,0.0,0.0,0.0,0.0,0.0,0.0,0.0,6.2452,6.2459,6.2772,6.2999,6.2999,0.0,0.0,0.0,0.0,0.0,0.0,0.0,0.0,0.0,0.0,0.0,0.0,0.0,0.0,5.7648,5.8162,5.8201,0.0,0.0,0.0,0.0,0.0,0.0,0.0,0.0,6.0905,6.1298,6.1337,6.2199,6.2903,0.0,6.3454,6.314,0.0,0.0,0.0,0.0,0.0,0.0,0.0,0.0,6.6287,6.652,6.6494,6.6419,6.639,6.6424,6.6424,6.6424,6.6367,6.6397,6.6358,6.6358,6.6212,0.0,0.0,0.0,0.0,0.0,0.0,0.0,0.0,0.0,0.0,0.0,0.0,0.0,0.0,0.0,0.0,0.0,0.0,0.0,0.0,0.0,0.0,0.0,6.1658,0.0,0.0,0.0,0.0,0.0,0.0,0.0,0.0,0.0,6.414,6.414,6.4256,6.4527,6.5301,6.5876,6.5876,0.0,0.0,0.0,0.0,0.0,0.0,0.0,6.7114,6.7114,6.7188,6.7074,6.6563,6.6067,6.5713,6.5505,0.0,0.0,6.4357,6.4257,6.4293,6.4293,6.3824,6.3629,6.4176,6.3863,6.3629,0.0,0.0,0.0,0.0,0.0,0.0,0.0,0.0,5.9062,5.9056,0.0,5.9146,0.0,0.0,0.0,0.0,6.0588,6.1408,0.0,0.0,6.2632,6.3027,6.3067,6.3855,6.4288,6.4326,6.4358,6.4359,6.4365,6.4366,0.0,0.0,0.0,0.0,0.0,0.0,6.5706,6.6539,6.6482,6.6385,6.6376,6.6376,6.6415,6.6376,6.6331,6.6303,6.6303,6.6303,6.5915,6.5097,6.5928,0.0,0.0,0.0,0.0,0.0,0.0,0.0,0.0,0.0,0.0,0.0,0.0,0.0,0.0,0.0,0.0,0.0,0.0,0.0,0.0,6.3676,0.0,0.0,0.0,0.0,0.0,0.0,0.0,0.0,0.0,0.0,6.5185,6.5146,6.5378,6.6185,0.0,0.0,0.0,0.0,6.8772,6.8772,6.8772,6.8772,6.8772,6.8772,6.8772,6.8772,0.0,0.0,6.9035,6.9078,6.8787,6.8315,6.8123,6.738,6.4851,6.4485,6.4453,6.4453,6.4453,6.4375,6.4414,6.4531,6.4453,6.1362,0.0,0.0,0.0,0.0,5.906,5.9101,5.9121,5.9121,5.9467,6.0041,6.0041,0.0,0.0,0.0,0.0,0.0,0.0,6.3535,6.3568,6.3812,6.3934,6.3933,6.4169,6.46,6.5225,6.5228,6.5542,6.6129,6.617,6.5856,6.5261,0.0,0.0,0.0,0.0,6.6335,6.6521,6.6432,6.6373,6.6274,6.6235,6.6274,6.6235,6.6259,6.621,6.621,6.621,6.6148,6.5954,6.6167,0.0,0.0,0.0,0.0,0.0,0.0,0.0,0.0,0.0,0.0,0.0,0.0,0.0,0.0,0.0,0.0,0.0,0.0,0.0,6.3681,6.3676,6.3947,0.0,0.0,0.0,0.0,0.0,0.0,0.0,0.0,0.0,6.7694,6.7152,6.7114,0.0,0.0,6.8424,6.8424,6.8656,6.8772,6.8772,6.8772,0.0,6.8772,6.8772,6.8772,6.8772,6.8772,6.8819,6.8858,6.8876,6.8838,6.873,6.8778,6.8596,6.7968,6.6866,6.6211,6.6172,6.6133,6.6172,6.6133,6.6133,6.6172,6.3065,6.1129,6.1094,6.1132,6.1165,6.1165,6.1156,6.1174,6.1174,6.1449,6.1961,6.1958,6.2231,6.2742,6.3288,0.0,0.0,0.0,6.4285,6.432,6.464,6.4799,6.4838,6.5191,6.5582,6.609,6.613,6.6404,6.6913,6.6913,6.6639,6.6129,0.0,0.0,6.6869,6.6703,6.6603,6.6534,6.6383,6.6272,6.619,6.6533,6.6882,6.723,6.723,6.723,6.723,6.723,6.7245,6.7275,6.728,6.7097,0.0,0.0,0.0,0.0,0.0,0.0,0.0,0.0,0.0,0.0,0.0,6.4672,6.4682,0.0,0.0,0.0,6.4682,6.4682,6.4682,6.4991,0.0,0.0,0.0,0.0,0.0,0.0,0.0,6.7998,6.8738,6.9396,6.9744,6.9628,6.9473,6.928,6.9551,6.9938,7.0242,0.0,7.0822,7.0822,7.0822,7.0827,7.0822,7.0822,7.0827,7.0827,7.0822,7.0826,7.0869,7.0879,7.0795,7.0572,7.0598,7.0608,7.0341,6.9522,6.8672,6.8008,6.789,6.8008,6.832,6.8398,6.8476,6.4504,6.4474,6.4503,6.4418,6.4301,6.4301,6.4301,6.4301,6.4301,6.4307,6.4314,6.4306,6.4346,6.4393,6.4394,0.0,6.4522,6.4523,6.4523,6.4522,6.5309,6.5701,6.5741,6.6523,6.6914,6.6875,6.6913,6.6913,6.6914,6.6913,6.6952,6.6992,6.6991,6.699,6.6874,6.663,6.6576,6.6707,6.6424,6.6345,6.6417,6.7191,6.7998,6.8733,6.8772,6.8772,6.8772,6.8772,6.8772,6.8772,6.8772,6.8772,6.8772,0.0,0.0,0.0,0.0,0.0,0.0,0.0,0.0,0.0,0.0,0.0,0.0,0.0,0.0,6.6417,6.6417,0.0,6.6379,6.7152,0.0,0.0,0.0,6.881,6.8888,6.897,6.9048,6.9087,0.0,0.0,7.1407,7.2181,7.2142,7.0601,7.1026,7.1794,7.2607,7.3303,7.3877,7.369,7.38,7.3839,7.3535,7.3612,7.3568,7.3574,7.3877,7.3723,7.3757,7.3798,7.3643,7.299,7.3078,7.2901,7.2127,7.2014,7.1719,7.0273,6.9687,6.9726,7.0312,7.0508,7.0703,6.6207,6.6132,6.6244,6.5531,6.4321,6.4321,6.4321,6.4321,6.4321,6.4323,6.4285,6.4322,6.4673,6.5301,6.5306,6.5657,6.6279,6.6287,6.6288,6.6285,6.6522,6.6601,6.6601,6.6797,6.6914,6.6914,6.6914,6.6914,6.6914,6.6914,6.7226,6.7851,6.789,6.7539,6.6914,6.6691,6.687,6.7489,6.7316,6.7539,6.8153,6.8385,6.8578,6.8772,6.8772,6.8772,6.8772,6.8772,6.8772,6.8772,6.8772,6.8772,6.8772,6.8617,0.0,0.0,0.0,0.0,0.0,0.0,0.0,0.0,0.0,6.6495,6.7114,0.0,6.7462,0.0,6.8197,6.8192,6.8158,6.8346,0.0,0.0,6.8656,6.9048,6.9672,7.0286,7.0943,7.164,7.2452,7.3032,7.3264,7.3458,7.369,7.3839,7.3535,7.338,7.3612,7.3728,7.3877,7.3955,7.4038,7.3877,7.3993,7.3877,7.3955,7.3877,7.3916,7.39,7.3916,7.3922,7.3873,7.3782,7.3772,7.3723,7.3698,7.3715,7.3991,7.3958,7.222,7.043,7.0664,7.0781,7.1015,6.7966,6.7929,6.7966,6.7456,6.652,6.5773,6.5459,6.5459,6.5459,6.546,6.5463,6.5463,6.5736,6.6166,6.6169,6.6443,6.6872,6.6914,6.7109,6.746,6.7461,6.7656,6.8008,6.8008,6.8008,6.8047,6.8008,6.8008,6.8047,6.8047,6.8281,6.8711,6.875,6.8475,6.7997,6.7799,6.792,6.8385,6.817,6.8501,6.928,6.9357,6.9512,6.9899,6.9893,7.0092,7.0479,7.0479,7.0672,7.1021,7.0706,7.0667,7.1021,7.0324,7.0092,0.0,0.0,0.0,0.0,0.0,0.0,0.0,0.0,0.0,0.0,0.0,6.8269,6.8772,6.8772,6.8772,6.8772,6.912,6.9512,6.986,7.0247,7.0827,7.164,7.212,7.2606,7.307,7.42,7.4916,7.4916,7.5573,7.6191,7.6649,7.6307,7.5939,7.569,7.5895,7.6165,7.6165,7.6165,7.6165,7.6165,7.6165,7.6165,7.6165,7.6165,7.6165,7.6165,7.6165,7.6167,7.6209,7.6303,7.6316,7.6412,7.619,7.6156,7.5923,7.4818,7.3822,7.4101,7.418,7.4414,6.941,6.9374,6.9413,6.9413,6.9297,6.7847,6.7218,6.7218,6.7257,6.7221,6.7224,6.7224,6.7224,6.7224,6.7224,6.7226,6.7226,6.7226,6.7617,6.8359,6.8359,6.875,6.9414,6.9414,6.9414,6.9492,6.9414,6.9414,6.9414,6.9453,6.9492,6.957,6.957,6.9601,6.9603,6.9596,6.9448,6.9239,6.9268,6.9628,7.033,7.0446,7.0871,7.1606,7.1645,7.191,7.2568,7.2607,7.2916,7.3496,7.2839,7.2839,7.3651,7.2297,7.1833,0.0,7.2065,0.0,0.0,0.0,0.0,0.0,0.0,0.0,0.0,6.9125,6.9159,6.9275,6.9269,6.9303,6.9419,7.0076,7.0805,7.1656,7.2429,7.328,7.4203,7.4316,7.4318,7.4396,7.5652,7.6539,7.6584,7.7812,7.8699,7.8552,7.8636,7.8444,7.8161,7.8423,7.87,7.8977,7.8983,7.8602,7.868,7.8834,7.8796,7.8912,7.8757,7.9028,7.8834,7.8834,7.8912,7.8897,7.8845,7.9,7.9165,7.8579,7.8054,7.7623,7.742,7.7422,7.7773,7.793,7.875,6.9412,6.9356,6.9374,6.9414,6.9453,6.9101,6.8945,6.9023,6.9023,6.9023,6.8984,6.8945,6.8945,6.9023,6.9023,6.8984,6.8945,6.8906,6.9023,6.9258,6.9219,6.9258,6.9453,6.9414,6.9414,6.9414,6.9414,6.9414,6.9492,6.9414,6.9765,7.043,7.0417,7.0708,7.1318,0.0,0.0,0.0,7.118,7.1949,7.2142,7.28,7.3226,7.338,7.3419,0.0,7.2645,7.2607,7.2336,7.1833,7.164,0.0,0.0,0.0,0.0,0.0,0.0,0.0,0.0,0.0,0.0,0.0,7.1949,7.1562,7.0905,7.0827,7.1098,7.1789,7.186,7.2102,7.2803,7.2948,7.3336,7.4108,7.434,7.5073,7.6578,7.6804,7.7028,7.7716,7.805,7.8198,7.823,7.8507,7.8731,7.8847,7.9317,7.9678,7.9589,7.9218,7.8947,7.8953,7.9101,7.906,7.9028,7.906,7.9176,7.9028,7.9028,7.9067,7.9105,7.9067,7.9028,7.9067,7.9025,7.9105,7.9066,7.9005,7.9118,7.9656,7.9806,7.9427,7.7812,7.8047,7.875,7.0564,7.0497,7.053,7.0543,0.0,7.0607,7.0614,7.0576,6.9804,6.9453,6.9492,6.9414,6.9414,6.9453,6.9453,6.9453,6.9453,6.9414,6.9648,7.0078,7.0078,7.0312,7.0742,7.0703,7.0664,7.0703,7.0664,7.0703,7.0742,7.1133,7.1522,7.1862,7.2272,7.2613,7.2902,7.3186,7.2874,7.1955,7.28,7.3226,7.3264,7.3645,7.3877,7.3877,7.3877,0.0,0.0,0.0,0.0,0.0,0.0,0.0,0.0,7.4077,0.0,7.5044,7.516,7.5314,7.574,7.5749,7.5731,7.5693,7.5276,7.4111,7.2053,7.2633,7.3278,7.3712,7.4095,7.45,7.4925,7.4932,7.5259,7.6038,7.6192,7.6693,7.7851,7.8055,7.822,7.8599,7.9001,7.9242,7.9249,7.9627,7.9866,7.9897,8.0251,8.0521,8.0528,8.0306,8.0066,8.0073,8.0099,8.0164,8.0126,8.0158,8.0177,8.0177,8.0202,8.0221,8.0221,8.0221,8.0221,8.0221,8.0227,8.0221,8.0194,7.998,7.9854,8.0352,8.0535,8.0326,7.9193,7.9674,8.0422,7.2165,7.2126,7.2165,7.2128,7.2134,7.2215,7.2203,7.2091,7.0541,0.0,0.0,6.9883,6.9883,6.9883,6.9883,6.9883,6.9922,6.9883,7.0234,7.0937,7.1094,7.1523,7.2226,7.2383,7.2461,7.2461,7.2421,7.242,7.2459,7.312,7.3379,7.3373,7.3981,7.4269,7.4187,7.4126,7.4193,7.4347,7.4193,7.411,7.4115,7.427,7.4347,7.4347,7.4491,7.4788,7.5291,7.5434,7.5782,7.6323,7.5666,7.5666,7.6523,7.5937,7.5892,7.6716,7.6832,7.7141,7.7831,7.782,7.8059,7.8638,7.7929,7.6334,7.3566,7.4493,7.5285,7.535,7.6018,7.6467,7.6621,7.6615,7.6955,7.7817,7.7894,7.8234,7.8967,7.9071,7.9105,7.9097,7.9669,8.0046,8.0054,8.06,8.1093,8.1093,8.1031,8.1093,8.1108,8.1106,8.1123,8.1137,8.1074,8.1214,8.126,8.1224,8.1374,8.1226,8.1343,8.1459,8.1459,8.1472,8.1478,8.1356,8.1485,8.142,8.142,8.0891,8.0556,8.0723,8.0808,8.0827,8.1039,8.1581,8.1997,7.3829,7.387,7.3868,7.3868,7.387,7.3849,7.3854,7.3756,7.229,7.164,7.164,7.164,7.164,7.164,7.164,7.164,7.164,7.164,7.168,7.1875,7.2578,7.3008,7.3164,7.3906,7.4258,7.4219,7.4085,7.4066,7.406,7.4078,7.4065,7.4038,7.4056,7.4355,7.4873,7.4939,7.527,7.6016,7.5314,7.4922,7.496,7.5662,7.6055,7.6088,7.6692,7.6777,7.6159,7.6797,7.6874,7.625,7.6134,7.6443,7.7267,7.7189,7.7537,7.8309,7.8386,7.8463,7.854,7.8565,7.8295,7.7748,7.7587,7.7279,7.6861,7.6314,7.6346,7.7041,7.7249,7.7523,7.8132,7.8204,7.8522,7.9315,7.9469,7.9815,8.06,8.0662,8.0654,8.0616,8.0831,8.0862,8.0862,8.0977,8.1093,8.1093,8.1093,8.1093,8.1108,8.1169,8.1212,8.127,8.1284,8.1284,8.127,8.1291,8.1305,8.1305,8.1319,8.1333,8.134,8.138,8.1407,8.1407,8.1446,8.1485,8.1485,8.142,8.1282,8.1292,8.1388,8.1501,8.1643,8.1923,8.2097,7.4049,7.4049,7.401,7.4049,7.4054,7.4071,7.4113,7.4146,7.3503,7.3223,7.3184,7.3184,7.3184,7.3184,7.3223,7.3184,7.3184,7.3184,7.3182,7.3221,7.3574,7.3808,7.3808,7.4199,7.4396,7.4392,7.432,7.4296,7.4331,7.4661,7.482,7.4767,7.5022,7.5353,7.5677,7.6166,7.6597,7.699,7.6171,7.5957,7.646,7.6816,7.7183,7.7647,7.8033,7.802,7.7634,7.7948,7.7966,7.7574,7.7535,7.7535,7.7504,7.7465,7.7658,7.8005,7.8044,7.8429,7.9355,7.9822,7.9895,7.9512,7.9466,7.9466,7.9466,7.8686,7.8346,7.8734,7.9121,7.953,7.9915,7.9923,8.0054,8.0431,8.0516,8.0669,8.1016,8.1093,8.1093,8.1093,8.1093,8.1093,8.1093,8.1093,8.1093,8.1093,8.1093,8.1093,8.1093,8.1124,8.1162,8.1199,8.1199,8.1199,8.1207,8.1244,8.122,8.1227,8.1263,8.1284,8.1284,8.1319,8.1371,8.134,8.1367,8.138,8.1387,8.142,8.1452,8.1536,8.1639,8.1739,8.1789,8.1906,8.2019,7.4463,7.4463,7.4463,7.4463,7.448,7.4528,7.4593,7.4707,7.4707,7.4711,7.464,7.4382,7.4179,7.4179,7.4179,7.4179,7.4179,7.4179,7.4179,7.4218,7.4413,7.4491,7.453,7.4644,7.4758,7.4749,7.4717,7.4696,7.4767,7.53,7.5625,7.5767,7.6236,7.6578,7.6771,7.7426,7.7774,7.7742,7.7157,7.7145,7.7821,7.7807,7.8082,7.8661,7.8879,7.8949,7.8987,7.9166,7.9229,7.9229,7.9229,7.896,7.8381,7.8304,7.8304,7.8304,7.8304,7.8844,8.0116,8.0836,8.1162,8.11,8.1093,8.1093,8.1054,8.0531,8.0161,8.0177,8.0631,8.1016,8.1016,8.1054,8.1093,8.1093,8.1093,8.1054,8.1093,8.1093,8.1093,8.1093,8.1093,8.1093,8.1093,8.1093,8.1093,8.1093,8.1093,8.1093,8.1093,8.1093,8.1093,8.1093,8.1093,8.11,8.1093,8.1147,8.1184,8.1184,8.1191,8.122,8.1227,8.1241,8.1263,8.1263,8.1284,8.1298,8.1298,8.1333,8.1524,8.1755,8.199,8.2063,8.2427,8.2574,8.2401,7.6127,7.6165,7.6094,7.6171,7.6094,7.6123,7.6112,7.6129,7.6201,7.6195,7.5978,7.4806,7.4248,7.4179,7.4248,7.4281,7.4284,7.4215,7.4248,7.4323,7.5,7.539,7.5411,7.6063,7.645,7.6377,7.6177,7.6075,7.6143,7.6177,7.6508,7.7203,7.7363,7.7728,7.8352,7.8538,7.8584,7.8584,7.8444,7.8451,7.859,7.8584,7.8622,7.8699,7.9408,7.9796,7.9789,8.05,8.0885,8.0885,8.0808,8.0808,8.0693,8.0731,8.0731,8.0693,8.0693,8.0885,8.0962,8.107,8.11,8.1093,8.1093,8.1093,8.1093,8.1023,8.0985,8.0977,8.1016,8.1093,8.1093,8.1093,8.1093,8.1093,8.1093,8.1093,8.1093,8.1093,8.1093,8.1093,8.1093,8.1093,8.1093,8.1093,8.1093,8.1093,8.1093,8.1131,8.1246,8.1208,8.1285,8.1208,8.117,8.117,8.1131,8.1093,8.1154,8.1154,8.1154,8.1208,8.127,8.1269,8.1222,8.1229,8.1227,8.1263,8.127,8.1337,8.1575,8.2012,8.2384,8.2808,8.3714,8.387,8.3496,7.6403,7.6403,7.6403,7.6403,7.6403,7.6403,7.6403,7.6403,7.6403,7.6403,7.6343,7.574,7.5497,7.5497,7.5497,7.5493,7.5493,7.5464,7.5445,7.5484,7.5769,7.5909,7.5948,7.6242,7.6392,7.6387,7.6299,7.6555,7.7027,7.744,7.7807,7.8041,7.8072,7.8265,7.8611,7.9074,7.9336,7.9374,7.9845,8.0115,8.0068,7.9605,7.9605,8.0106,8.0461,8.06,8.0639,8.0954,8.1093,8.1093,8.1093,8.0862,8.0362,8.0323,8.0315,8.0354,8.0823,8.1093,8.1093,8.1093,8.1093,8.1093,8.1093,8.1093,8.1093,8.1093,8.1093,8.1093,8.1093,8.1093,8.1093,8.1093,8.1093,8.1093,8.1093,8.1093,8.1093,8.1093,8.1093,8.1093,8.1093,8.1093,8.1093,8.1093,8.1093,8.1093,8.1093,8.1323,8.1708,8.1823,8.2016,8.2439,8.2593,8.2093,8.14,8.1093,8.1285,8.167,8.1823,8.1823,8.1831,8.1801,8.1716,8.1262,8.1292,8.1315,8.1184,8.1236,8.1412,8.1957,8.1891,8.2058,8.2454,8.3061,8.304,7.6403,7.6403,7.6403,7.6403,7.6397,7.638,7.6374,7.6413,7.6588,7.6698,7.6736,7.6924,7.704,7.6968,7.6594,7.6368,7.6344,7.6295,7.6269,7.6308,7.645,7.6546,7.6578,7.6789,7.6859,7.6853,7.6884,7.7179,7.7789,7.8279,7.8652,7.883,7.8861,7.8977,7.9246,7.9862,8.0169,8.0208,8.0823,8.1093,8.1016,8.0477,8.0477,8.1016,8.1093,8.1093,8.1093,8.1093,8.1093,8.1093,8.1093,8.0823,8.0208,8.0162,8.0169,8.0208,8.0746,8.1093,8.1093,8.1093,8.1093,8.1093,8.1093,8.1093,8.1093,8.1093,8.1208,8.1439,8.1439,8.14,8.1093,8.1093,8.1093,8.1093,8.1093,8.1093,8.1093,8.1093,8.1093,8.1093,8.1093,8.1208,8.14,8.1477,8.1554,8.1823,8.1862,8.1947,8.2477,8.267,8.2901,8.3486,8.3563,8.3139,8.2016,8.19,8.2139,8.237,8.2639,8.267,8.267,8.267,8.2631,8.2317,8.1908,8.1831,8.2124,8.2009,8.1993,8.2155,8.2246,8.2311,8.2916,8.2986,8.3096,7.6403,7.6397,7.6403,7.6392,7.6397,7.637,7.6346,7.6533,7.7125,7.7446,7.7562,7.8218,7.8559,7.8411,7.7042,7.6308,7.625,7.6321,7.6353,7.643,7.7079,7.7426,7.7497,7.8167,7.844,7.8279,7.8197,7.8314,7.8468,7.8538,7.8946,7.97,7.9746,8.0169,8.0746,8.09,8.1016,8.0977,8.1054,8.1093,8.1093,8.1054,8.1016,8.1093,8.1093,8.1093,8.1093,8.1093,8.1093,8.1093,8.1093,8.1054,8.1016,8.1016,8.0977,8.1016,8.1054,8.1093,8.1093,8.1093,8.1131,8.1131,8.1208,8.1131,8.1323,8.1323,8.1631,8.217,8.2247,8.1977,8.14,8.14,8.1323,8.1285,8.1208,8.1208,8.117,8.1362,8.1131,8.1208,8.1323,8.1631,8.2178,8.2247,8.2593,8.3101,8.3409,8.3447,8.3486,8.3563,8.364,8.3755,8.3793,8.3601,8.3486,8.3101,8.3255,8.3524,8.3516,8.3516,8.3563,8.3524,8.3486,8.3409,8.3178,8.3139,8.337,8.3524,8.3648,8.3787,8.395,8.4065,8.3572,8.3801,8.3905,7.6313,7.6269,7.6269,7.6578,7.708,7.7055,7.735,7.7852,7.8134,7.8275,7.8314,7.8584,7.8672,7.8591,7.8041,7.7753,7.7767,7.7764,7.7744,7.7775,7.8009,7.8142,7.8173,7.8421,7.8522,7.8514,7.8538,7.8792,7.9361,7.9862,8.0323,8.0554,8.0631,8.0823,8.1054,8.1093,8.1093,8.1093,8.1093,8.1093,8.1093,8.1093,8.1093,8.1093,8.1093,8.1093,8.1093,8.1093,8.1093,8.1093,8.1093,8.1093,8.1093,8.1093,8.1093,8.1093,8.1093,8.1093,8.1093,8.1093,8.1323,8.1823,8.1862,8.2093,8.2554,8.2716,8.2832,8.3062,8.3139,8.2939,8.2832,8.2716,8.2716,8.2716,8.267,8.2639,8.2678,8.2716,8.2708,8.2708,8.2708,8.2832,8.2986,8.3139,8.3255,8.3524,8.3601,8.387,8.4324,8.4439,8.4555,8.5055,8.5209,8.5209,8.5209,8.4132,8.3717,8.4209,8.4439,8.4439,8.4439,8.4401,8.4362,8.3909,8.387,8.387,8.3947,8.3939,8.4209,8.4178,8.4457,8.4504,8.4072,8.4281,8.448,7.6392,7.6623,7.6616,7.7079,7.7851,7.7869,7.8164,7.8704,7.8945,7.9054,7.9093,7.9324,7.9449,7.9405,7.9398,7.9427,7.9394,7.8881,7.8551,7.8589,7.8807,7.89,7.8977,7.9215,7.9331,7.9369,7.9331,7.9669,8.0208,8.0823,8.1093,8.1093,8.1093,8.1093,8.1093,8.1093,8.1093,8.1093,8.1093,8.1093,8.1093,8.1093,8.1093,8.1093,8.1093,8.1093,8.1093,8.1093,8.1093,8.1093,8.1093,8.1093,8.1093,8.1093,8.1093,8.1093,8.1362,8.1477,8.1516,8.1747,8.217,8.2639,8.2708,8.3024,8.3524,8.3601,8.3717,8.3909,8.4024,8.4055,8.4371,8.4401,8.4178,8.3755,8.3601,8.3601,8.3601,8.3563,8.3563,8.3486,8.3486,8.364,8.3939,8.3978,8.4178,8.4362,8.4409,8.4709,8.5132,8.5316,8.5431,8.5978,8.5978,8.594,8.5863,8.5093,8.4709,8.5093,8.517,8.5209,8.5201,8.5201,8.5047,8.4555,8.4371,8.4362,8.4401,8.4401,8.4362,8.4332,8.4417,8.4618,8.4571,8.4717,8.4989,7.6732,7.7381,7.7504,7.7953,7.8633,7.8654,7.8626,7.8919,7.9515,7.9808,7.9931,8.0608,8.08,8.0946,8.0793,8.0946,8.0616,7.9423,7.8807,7.8838,7.9477,7.9815,7.9815,8.0516,8.0823,8.0823,8.0977,8.0977,8.0977,8.1054,8.1093,8.1093,8.1093,8.1093,8.1093,8.1093,8.1093,8.1093,8.1093,8.1093,8.1093,8.1093,8.1093,8.1093,8.1093,8.1093,8.1093,8.1093,8.1093,8.1093,8.1093,8.1093,8.1093,8.117,8.117,8.1323,8.19,8.2285,8.2401,8.2986,8.337,8.3601,8.3601,8.367,8.3909,8.387,8.4132,8.4747,8.4931,8.5162,8.5747,8.5863,8.5324,8.3986,8.3901,8.3909,8.3793,8.3678,8.3678,8.3793,8.387,8.4063,8.4632,8.4901,8.5093,8.5593,8.5786,8.5786,8.5863,8.5901,8.6017,8.6094,8.6094,8.6094,8.6094,8.6055,8.6017,8.6017,8.5901,8.5863,8.5786,8.5739,8.5701,8.5363,8.5324,8.5324,8.5324,8.5324,8.544,8.5401,8.5247,8.5016,8.5209,8.5431,8.5585,7.7126,7.7434,7.7981,7.8705,7.9391,7.9438,7.9738,8.0277,8.06,8.0708,8.0746,8.0977,8.1093,8.1093,8.1093,8.1093,8.1054,8.0516,8.0285,8.0285,8.0554,8.0669,8.0746,8.0977,8.1093,8.1093,8.1093,8.1093,8.1093,8.1093,8.1093,8.1093,8.1093,8.1093,8.1093,8.1093,8.1093,8.1093,8.1093,8.1093,8.1093,8.1093,8.1093,8.1093,8.1093,8.1093,8.1093,8.1093,8.1093,8.1093,8.1093,8.1093,8.117,8.1631,8.19,8.2016,8.2747,8.3178,8.3216,8.3486,8.3947,8.4324,8.4478,8.4786,8.5247,8.5286,8.5363,8.567,8.5747,8.5893,8.6055,8.6094,8.5824,8.5363,8.5324,8.5247,8.517,8.5247,8.5324,8.5324,8.5324,8.5478,8.5624,8.5709,8.5786,8.6017,8.6094,8.6094,8.6094,8.6094,8.6094,8.6094,8.6094,8.6094,8.6094,8.6094,8.6094,8.6094,8.6094,8.6094,8.6094,8.6094,8.6094,8.6094,8.6094,8.6094,8.6094,8.6094,8.6094,8.6094,8.5747,8.5786,8.5978,8.6132,8.6247,7.7676,7.8246,7.8784,7.9477,8.0246,8.0285,8.0592,8.1054,8.1093,8.1093,8.1093,8.1093,8.1093,8.1093,8.1093,8.1093,8.1093,8.1093,8.1093,8.1093,8.1093,8.1093,8.1093,8.1093,8.1093,8.1093,8.1093,8.1093,8.1093,8.1093,8.1093,8.1093,8.1093,8.1093,8.1093,8.1093,8.1093,8.1093,8.1093,8.1093,8.1093,8.1093,8.1093,8.1093,8.1093,8.1093,8.1093,8.1093,8.1093,8.1131,8.1362,8.1554,8.1631,8.2324,8.2793,8.2939,8.3516,8.4093,8.4093,8.4401,8.4709,8.5247,8.5354,8.5547,8.5978,8.6094,8.6094,8.6094,8.6094,8.6094,8.6094,8.6094,8.6094,8.6094,8.6017,8.6094,8.6094,8.6094,8.6055,8.5978,8.6017,8.6094,8.6094,8.6094,8.6094,8.6094,8.6094,8.6094,8.6094,8.6094,8.6094,8.6094,8.6094,8.6094,8.6094,8.6094,8.6094,8.6094,8.6094,8.6094,8.6094,8.6094,8.6094,8.6094,8.6094,8.6094,8.6094,8.6094,8.6094,8.6094,8.6209,8.6324,8.644,8.6671,8.6863,7.8361,7.9738,7.9854,8.0323,8.0977,8.1016,8.1016,8.1093,8.1093,8.1093,8.1093,8.1093,8.1093,8.1093,8.1093,8.1093,8.1093,8.1093,8.1093,8.1093,8.1093,8.1093,8.1093,8.1093,8.1093,8.1093,8.1093,8.1093,8.1093,8.1093,8.1093,8.1093,8.1093,8.1093,8.1093,8.1093,8.1093,8.1093,8.1093,8.1093,8.1093,8.1093,8.1093,8.1093,8.1093,8.1131,8.1285,8.14,8.1362,8.1285,8.1977,8.2408,8.2516,8.3178,8.3678,8.3717,8.4478,8.4901,8.5124,8.544,8.5863,8.594,8.597,8.6094,8.6094,8.6094,8.6094,8.6094,8.6094,8.6094,8.6094,8.6094,8.6094,8.6094,8.6094,8.6094,8.6094,8.6094,8.6094,8.6094,8.6094,8.6094,8.6094,8.6094,8.6094,8.6094,8.6094,8.6094,8.6094,8.6094,8.6132,8.6247,8.644,8.6709,8.6901,8.7055,8.7055,8.7055,8.6901,8.6748,8.6594,8.6594,8.6709,8.6632,8.644,8.6363,8.644,8.6709,8.6594,8.6517,8.6632,8.6709,8.6748,8.6786,8.7132,7.9392,7.9854,8.0477,8.09,8.1093,8.1093,8.1093,8.1093,8.1093,8.1093,8.1093,8.1093,8.1093,8.1093,8.1093,8.1093,8.1093,8.1093,8.1093,8.1093,8.1093,8.1093,8.1093,8.1093,8.1093,8.1093,8.1093,8.1093,8.1093,8.1093,8.1093,8.1093,8.1093,8.1093,8.1093,8.1093,8.1093,8.1093,8.1093,8.1093,8.1093,8.1093,8.1093,8.1093,8.1093,8.1439,8.1977,8.2631,8.2593,8.2093,8.2793,8.3255,8.3332,8.4055,8.4555,8.467,8.5247,8.5778,8.5816,8.594,8.6094,8.6094,8.6094,8.6094,8.6094,8.6094,8.6094,8.6094,8.6094,8.6094,8.6094,8.6132,8.6132,8.6094,8.6247,8.6209,8.617,8.6094,8.6094,8.6094,8.617,8.6247,8.6247,8.6247,8.6247,8.6247,8.6286,8.6286,8.644,8.644,8.6594,8.694,8.7209,8.7555,8.7825,8.8017,8.8141,8.8218,8.8064,8.7795,8.7709,8.7632,8.7902,8.8102,8.7709,8.7517,8.7825,8.8102,8.7718,8.7094,8.7171,8.7286,8.6594,8.6393,8.6901,8.0008,8.0392,8.0862,8.1093,8.1093,8.1093,8.1093,8.1093,8.1093,8.1093,8.1093,8.1093,8.1093,8.1093,8.1093,8.1093,8.1093,8.1093,8.1093,8.1093,8.1093,8.1093,8.1093,8.1093,8.1093,8.1093,8.1093,8.1093,8.1093,8.1093,8.1093,8.1093,8.1093,8.1093,8.1093,8.1093,8.1093,8.1093,8.1093,8.1093,8.1093,8.1093,8.1093,8.117,8.14,8.1977,8.2832,8.367,8.3747,8.3216,8.3632,8.4132,8.4209,8.4939,8.5401,8.544,8.5863,8.6094,8.6094,8.6094,8.6094,8.6094,8.6094,8.6094,8.6094,8.6094,8.6094,8.6094,8.6094,8.6094,8.617,8.6401,8.6632,8.6748,8.6978,8.7017,8.6709,8.6671,8.6863,8.7055,8.7171,8.7171,8.7171,8.7171,8.7171,8.7248,8.7363,8.7363,8.7325,8.7209,8.7248,8.7709,8.7979,8.8256,8.8402,8.8594,8.8756,8.8872,8.9094,8.8863,8.8679,8.8556,8.8603,8.8756,8.8718,8.8756,8.891,8.8872,8.841,8.8017,8.7979,8.7786,8.7286,8.6824,8.7248,8.04,8.1093,8.1093,8.1093,8.1093,8.1093,8.1093,8.1093,8.1093,8.1093,8.1093,8.1093,8.1093,8.1093,8.1093,8.1093,8.1093,8.1093,8.1093,8.1093,8.1093,8.1093,8.1093,8.1093,8.1093,8.1093,8.1093,8.1093,8.1093,8.1093,8.1093,8.1093,8.1093,8.1093,8.1093,8.1093,8.1093,8.1093,8.1093,8.1093,8.1093,8.1093,8.1093,8.1208,8.2093,8.2824,8.3708,8.4478,8.467,8.3909,8.4593,8.4978,8.5124,8.5747,8.6017,8.6017,8.6055,8.6094,8.6094,8.6094,8.6094,8.6094,8.6094,8.6094,8.6094,8.6094,8.6094,8.6094,8.6094,8.617,8.644,8.694,8.7325,8.7517,8.8218,8.8218,8.7863,8.7594,8.7872,8.8564,8.8641,8.8679,8.8679,8.8679,8.8603,8.7979,8.8102,8.8064,8.8064,8.8017,8.8248,8.8671,8.8825,8.891,8.9026,8.9133,8.9248,8.941,8.9863,8.9863,8.9517,8.9363,8.9218,8.9218,8.9594,8.9633,8.944,8.9248,8.9056,8.8863,8.8786,8.8709,8.8556,8.8094,8.8179,8.0939,8.1093,8.1093,8.1093,8.1093,8.1093,8.1093,8.1093,8.1093,8.1093,8.1093,8.1093,8.1093,8.1093,8.1093,8.1093,8.1093,8.1093,8.1093,8.1093,8.1093,8.1093,8.1093,8.1093,8.1093,8.1093,8.1093,8.1093,8.1093,8.1093,8.1093,8.1093,8.1093,8.1093,8.1093,8.1093,8.1093,8.1093,8.1093,8.1093,8.1093,8.1093,8.1131,8.1362,8.2554,8.3708,8.4593,8.544,8.5747,8.567,8.567,8.5739,8.5786,8.594,8.6094,8.6094,8.6094,8.6094,8.6094,8.6094,8.6094,8.6094,8.6094,8.6094,8.6094,8.6094,8.6094,8.6094,8.6094,8.6363,8.694,8.7248,8.7786,8.8295,8.8679,8.8979,8.9133,8.8786,8.8594,8.8718,8.8833,8.8718,8.8756,8.8872,8.8872,8.8756,8.8756,8.8718,8.8795,8.891,8.921,8.9633,8.9671,8.9748,8.9979,9.0017,9.0017,9.0056,9.0402,9.0624,9.0325,9.0248,9.0094,9.0325,9.071,9.0556,9.0133,9.0325,9.0287,8.9979,8.9594,8.9479,8.9286,8.9064,8.9026,8.1093,8.1093,8.1093,8.1093,8.1093,8.1093,8.1093,8.1093,8.1093,8.1093,8.1093,8.1093,8.1093,8.1093,8.1093,8.1093,8.1093,8.1093,8.1093,8.1093,8.1093,8.1093,8.1093,8.1093,8.1093,8.1093,8.1093,8.1093,8.1093,8.1093,8.1093,8.1093,8.1093,8.1093,8.1093,8.1093,8.1093,8.1093,8.1093,8.1093,8.1093,8.1093,8.167,8.2285,8.3516,8.4593,8.544,8.5824,8.6055,8.6094,8.6094,8.6094,8.6094,8.6094,8.6094,8.6094,8.6094,8.6094,8.6094,8.6094,8.6094,8.6094,8.6094,8.6094,8.6094,8.6094,8.6094,8.6094,8.617,8.644,8.7286,8.7872,8.8372,8.9133,8.9633,9.0017,9.0248,8.9787,8.9479,8.971,8.9979,8.994,8.9902,8.9633,8.9787,8.9979,9.0056,9.0017,9.0094,9.021,9.021,9.0441,9.0517,9.0624,9.0893,9.097,9.0855,9.0825,9.0864,9.097,9.0864,9.0932,9.1047,9.1124,9.1086,9.1124,9.0864,9.1133,9.1133,9.0778,9.0402,9.021,9.0094,9.0094,9.0133,8.1093,8.1093,8.1093,8.1093,8.1093,8.1093,8.1093,8.1093,8.1093,8.1093,8.1093,8.1093,8.1093,8.1093,8.1093,8.1093,8.1093,8.1093,8.1093,8.1093,8.1093,8.1093,8.1093,8.1093,8.1093,8.1093,8.1093,8.1093,8.1093,8.1093,8.1093,8.1093,8.1093,8.1093,8.1093,8.1093,8.1093,8.1093,8.1093,8.1093,8.1093,8.1131,8.1862,8.3247,8.4247,8.5132,8.5786,8.6055,8.6094,8.6094,8.6094,8.6094,8.6094,8.6094,8.6094,8.6094,8.6094,8.6094,8.6094,8.6094,8.6094,8.6094,8.6094,8.6094,8.6094,8.6094,8.6094,8.6094,8.617,8.644,8.7325,8.8064,8.894,8.9739,9.0624,9.1124,9.1047,9.0509,9.0509,9.0816,9.0787,9.0671,9.0825,9.0748,9.1009,9.1201,9.1201,9.1201,9.1201,9.1163,9.0979,9.0902,9.0893,9.0893,9.1124,9.1201,9.1201,9.1201,9.1201,9.1201,9.1201,9.1201,9.1201,9.1201,9.1163,9.1201,9.1201,9.1163,9.1163,9.1201,9.1086,9.0748,9.0864,9.1163,9.1047,8.1093,8.1093,8.1093,8.1093,8.1093,8.1093,8.1093,8.1093,8.1093,8.1093,8.1093,8.1093,8.1093,8.1093,8.1093,8.1093,8.1093,8.1093,8.1093,8.1093,8.1093,8.1093,8.1093,8.1093,8.1093,8.1093,8.1093,8.1093,8.1093,8.1093,8.1093,8.1093,8.1093,8.1093,8.1093,8.1093,8.1093,8.1093,8.1093,8.1093,8.1093,8.14,8.2093,8.364,8.4593,8.5324,8.5901,8.6094,8.6094,8.6094,8.6094,8.6094,8.6094,8.6094,8.6094,8.6094,8.6094,8.6094,8.6094,8.6094,8.6094,8.6094,8.6094,8.6094,8.6094,8.6094,8.6094,8.6094,8.617,8.644,8.7325,8.8179,8.9017,8.9825,9.0624,9.1163,9.1171,9.1056,9.0902,9.1163,9.1201,9.1201,9.1201,9.1201,9.1201,9.1201,9.1201,9.1201,9.1201,9.1201,9.1124,9.1124,9.1124,9.1124,9.1201,9.1201,9.1201,9.1201,9.1201,9.1201,9.1201,9.1201,9.1201,9.1201,9.1201,9.1201,9.1201,9.1201,9.1201,9.1201,9.1201,9.1201,9.1201,9.1201,9.1201,8.0893,8.1085,8.1093,8.1093,8.1093,8.1093,8.1093,8.1093,8.1093,8.1093,8.1093,8.1093,8.1093,8.1093,8.1093,8.1093,8.1093,8.1093,8.1093,8.1093,8.1093,8.1093,8.1093,8.1093,8.1093,8.1093,8.1093,8.1093,8.1093,8.1093,8.1093,8.1093,8.1093,8.1093,8.1093,8.1093,8.1093,8.1093,8.1093,8.1093,8.1246,8.1823,8.3101,8.4093,8.5016,8.567,8.594,8.6094,8.6094,8.6094,8.6094,8.6094,8.6094,8.6094,8.6094,8.6094,8.6094,8.6094,8.6094,8.6094,8.6094,8.6094,8.6094,8.6094,8.6094,8.6094,8.6094,8.6094,8.6132,8.6478,8.7325,8.8179,8.9017,8.9816,9.0663,9.1124,9.1201,9.1201,9.1201,9.1201,9.1201,9.1201,9.1201,9.1201,9.1201,9.1201,9.1201,9.1201,9.1201,9.1201,9.1201,9.1201,9.1201,9.1201,9.1201,9.1201,9.1201,9.1201,9.1201,9.1201,9.1201,9.1201,9.1201,9.1201,9.1201,9.1201,9.1201,9.1201,9.1201,9.1201,9.1201,9.1201,9.1201,9.1201,9.1201,8.0693,8.1093,8.1093,8.1093,8.1093,8.1093,8.1093,8.1093,8.1093,8.1093,8.1093,8.1093,8.1093,8.1093,8.1093,8.1093,8.1093,8.1093,8.1093,8.1093,8.1093,8.1093,8.1093,8.1093,8.1093,8.1093,8.1093,8.1093,8.1093,8.1093,8.1093,8.1093,8.1093,8.1093,8.1093,8.1093,8.1093,8.1093,8.1093,8.1131,8.167,8.2793,8.4016,8.4854,8.5662,8.6094,8.6094,8.6094,8.6094,8.6094,8.6094,8.6094,8.6094,8.6094,8.6094,8.6094,8.6094,8.6094,8.6094,8.6094,8.6094,8.6094,8.6094,8.6094,8.6094,8.6094,8.6094,8.6094,8.6132,8.6324,8.7017,8.8064,8.8863,8.9594,9.047,9.1201,9.1201,9.1201,9.1201,9.1201,9.1201,9.1201,9.1201,9.1201,9.1201,9.1201,9.1201,9.1201,9.1201,9.1201,9.1201,9.1201,9.1201,9.1201,9.1201,9.1201,9.1201,9.1201,9.1201,9.1201,9.1201,9.1201,9.1201,9.1201,9.1201,9.1201,9.1201,9.1201,9.1201,9.1201,9.1201,9.1201,9.1201,9.1201,9.1201,8.0693,8.1085,8.1085,8.1093,8.1061,8.1061,8.1085,8.1077,8.1077,8.1093,8.1093,8.1093,8.1093,8.1093,8.1093,8.1093,8.1093,8.1093,8.1093,8.1093,8.1093,8.1093,8.1093,8.1093,8.1093,8.1093,8.1093,8.1093,8.1093,8.1093,8.1093,8.1093,8.1093,8.1093,8.1093,8.1093,8.1093,8.1093,8.1131,8.1477,8.2208,8.3178,8.4093,8.4931,8.5624,8.6094,8.6094,8.6094,8.6094,8.6094,8.6094,8.6094,8.6094,8.6094,8.6094,8.6094,8.6094,8.6094,8.6094,8.6094,8.6094,8.6094,8.6094,8.6094,8.6094,8.6094,8.6094,8.6094,8.6094,8.617,8.6632,8.7786,8.8526,8.9363,9.0325,9.097,9.1201,9.1201,9.1201,9.1201,9.1201,9.1201,9.1201,9.1201,9.1201,9.1201,9.1201,9.1201,9.1201,9.1201,9.1201,9.1201,9.1201,9.1201,9.1201,9.1201,9.1201,9.1201,9.1201,9.1201,9.1201,9.1201,9.1201,9.1201,9.1201,9.1201,9.1201,9.1201,9.1201,9.1201,9.1201,9.1201,9.1201,9.1201,9.1201,7.9889,8.0325,8.0593,8.0549,8.0354,8.0585,8.072,8.0763,8.0967,8.1093,8.1093,8.1093,8.1093,8.1093,8.1093,8.1093,8.1093,8.1093,8.1093,8.1093,8.1093,8.1093,8.1093,8.1093,8.1093,8.1093,8.1093,8.1093,8.1093,8.1093,8.1093,8.1093,8.1093,8.1093,8.1093,8.1093,8.1093,8.1208,8.1554,8.2208,8.3016,8.3862,8.4709,8.5508,8.5901,8.6055,8.6094,8.6094,8.6094,8.6094,8.6094,8.6094,8.6094,8.6094,8.6094,8.6094,8.6094,8.6094,8.6094,8.6094,8.6094,8.6094,8.6094,8.6094,8.6094,8.6094,8.6094,8.6094,8.6094,8.6094,8.6401,8.7709,8.8372,8.918,9.021,9.0787,9.1201,9.1201,9.1201,9.1201,9.1201,9.1201,9.1201,9.1201,9.1201,9.1201,9.1201,9.1201,9.1201,9.1201,9.1201,9.1201,9.1201,9.1201,9.1201,9.1201,9.1201,9.1201,9.1201,9.1201,9.1201,9.1201,9.1201,9.1201,9.1201,9.1201,9.1201,9.1201,9.1201,9.1201,9.1201,9.1201,9.1201,9.1201,9.1201,7.9125,7.9407,7.9972,8.0012,7.9741,8.0073,8.0239,8.0278,8.0567,8.0788,8.0943,8.0999,8.1093,8.1093,8.1093,8.1093,8.1093,8.1093,8.1093,8.1093,8.1093,8.1093,8.1093,8.1093,8.1093,8.1093,8.1093,8.1093,8.1093,8.1093,8.1093,8.1093,8.1093,8.1093,8.1093,8.1093,8.1093,8.117,8.1823,8.2631,8.3516,8.4401,8.5209,8.5824,8.6094,8.6094,8.6094,8.6094,8.6094,8.6094,8.6094,8.6094,8.6094,8.6094,8.6094,8.6094,8.6094,8.6094,8.6094,8.6094,8.6094,8.6094,8.6094,8.6094,8.6094,8.6094,8.6094,8.6094,8.6094,8.6094,8.644,8.7671,8.8449,8.9218,9.0171,9.0748,9.1201,9.1201,9.1201,9.1201,9.1201,9.1201,9.1201,9.1201,9.1201,9.1201,9.1201,9.1201,9.1201,9.1201,9.1201,9.1201,9.1201,9.1201,9.1201,9.1201,9.1201,9.1201,9.1201,9.1201,9.1201,9.1201,9.1201,9.1201,9.1201,9.1201,9.1201,9.1201,9.1201,9.1201,9.1201,9.1201,9.1201,9.1201,9.1201,7.8739,7.8458,7.9361,7.9697,7.9654,7.973,7.9751,7.9762,7.9815,8.0141,8.0558,8.0893,8.1093,8.1093,8.1093,8.1093,8.1093,8.1093,8.1093,8.1093,8.1093,8.1093,8.1093,8.1093,8.1093,8.1093,8.1093,8.1093,8.1093,8.1093,8.1093,8.1093,8.1093,8.1093,8.1093,8.1093,8.1093,8.1285,8.2016,8.2824,8.3632,8.4516,8.5363,8.5901,8.6094,8.6094,8.6094,8.6094,8.6094,8.6094,8.6094,8.6094,8.6094,8.6094,8.6094,8.6094,8.6094,8.6094,8.6094,8.6094,8.6094,8.6094,8.6094,8.6094,8.6094,8.6094,8.6094,8.6094,8.6094,8.6094,8.6594,8.7517,8.8526,8.918,9.0017,9.0864,9.1201,9.1201,9.1201,9.1201,9.1201,9.1201,9.1201,9.1201,9.1201,9.1201,9.1201,9.1201,9.1201,9.1201,9.1201,9.1201,9.1201,9.1201,9.1201,9.1201,9.1201,9.1201,9.1201,9.1201,9.1201,9.1201,9.1201,9.1201,9.1201,9.1201,9.1201,9.1201,9.1201,9.1201,9.1201,9.1201,9.1201,9.1201,9.1201,7.8404,7.8155,7.8517,7.8739,7.8854,7.9137,7.9267,7.9326,7.9576,7.9961,8.0439,8.0885,8.1093,8.1093,8.1093,8.1093,8.1093,8.1093,8.1093,8.1093,8.1093,8.1093,8.1093,8.1093,8.1093,8.1093,8.1093,8.1093,8.1093,8.1093,8.1093,8.1093,8.1093,8.1093,8.1093,8.1093,8.1093,8.1477,8.2324,8.3332,8.3717,8.4939,8.5786,8.6017,8.6094,8.6094,8.6094,8.6094,8.6094,8.6094,8.6094,8.6094,8.6094,8.6094,8.6094,8.6094,8.6094,8.6094,8.6094,8.6094,8.6094,8.6094,8.6094,8.6094,8.6094,8.6094,8.6094,8.6094,8.6094,8.6094,8.6324,8.7594,8.8756,8.9141,8.9787,9.0748,9.1201,9.1201,9.1201,9.1201,9.1201,9.1201,9.1201,9.1201,9.1201,9.1201,9.1201,9.1201,9.1201,9.1201,9.1201,9.1201,9.1201,9.1201,9.1201,9.1201,9.1201,9.1201,9.1201,9.1201,9.1201,9.1201,9.1201,9.1201,9.1201,9.1201,9.1201,9.1201,9.1201,9.1201,9.1201,9.1201,9.1201,9.1201,9.1201,7.808,7.7957,7.7943,7.8051,7.8207,7.8515,7.8674,7.8777,7.9027,7.9621,8.0239,8.078,8.1093,8.1093,8.1093,8.1093,8.1093,8.1093,8.1093,8.1093,8.1093,8.1093,8.1093,8.1093,8.1093,8.1093,8.1093,8.1093,8.1093,8.1093,8.1093,8.1093,8.1093,8.1093,8.1093,8.1093,8.1093,8.1477,8.2601,8.3563,8.3832,8.517,8.6055,8.6094,8.6094,8.6094,8.6094,8.6094,8.6094,8.6094,8.6094,8.6094,8.6094,8.6094,8.6094,8.6094,8.6094,8.6094,8.6094,8.6094,8.6094,8.6094,8.6094,8.6094,8.6094,8.6094,8.6094,8.6094,8.6094,8.6094,8.617,8.7363,8.841,8.8795,8.971,9.0624,9.1047,9.1201,9.1201,9.1201,9.1201,9.1201,9.1201,9.1201,9.1201,9.1201,9.1201,9.1201,9.1201,9.1201,9.1201,9.1201,9.1201,9.1201,9.1201,9.1201,9.1201,9.1201,9.1201,9.1201,9.1201,9.1201,9.1201,9.1201,9.1201,9.1201,9.1201,9.1201,9.1201,9.1201,9.1201,9.1201,9.1201,9.1201,9.1201,7.7835,7.7783,7.782,7.782,7.7835,7.7813,7.7957,7.8146,7.8234,7.8841,7.9847,8.0638,8.1077,8.1085,8.1093,8.1093,8.1093,8.1093,8.1093,8.1093,8.1093,8.1093,8.1093,8.1093,8.1093,8.1093,8.1093,8.1093,8.1093,8.1093,8.1093,8.1093,8.1093,8.1093,8.1093,8.1093,8.1093,8.1323,8.2793,8.3447,8.3947,8.5209,8.5978,8.6094,8.6094,8.6094,8.6094,8.6094,8.6094,8.6094,8.6094,8.6094,8.6094,8.6094,8.6094,8.6094,8.6094,8.6094,8.6094,8.6094,8.6094,8.6094,8.6094,8.6094,8.6094,8.6094,8.6094,8.6094,8.6094,8.6094,8.6401,8.6978,8.7948,8.8756,8.971,9.0509,9.097,9.1201,9.1201,9.1201,9.1201,9.1201,9.1201,9.1201,9.1201,9.1201,9.1201,9.1201,9.1201,9.1201,9.1201,9.1201,9.1201,9.1201,9.1201,9.1201,9.1201,9.1201,9.1201,9.1201,9.1201,9.1201,9.1201,9.1201,9.1201,9.1201,9.1201,9.1201,9.1201,9.1201,9.1201,9.1201,9.1201,9.1201,9.1201,7.7762,7.7658,7.7658,7.7599,7.7539,7.7695,7.7871,7.8062,7.8477,7.9052,7.9719,8.0382,8.0822,8.0983,8.1061,8.1053,8.1077,8.1093,8.1093,8.1093,8.1093,8.1093,8.1093,8.1093,8.1093,8.1093,8.1093,8.1093,8.1093,8.1093,8.1093,8.1093,8.1093,8.1093,8.1093,8.1093,8.1093,8.14,8.2593,8.364,8.3793,8.517,8.6094,8.6094,8.6094,8.6094,8.6094,8.6094,8.6094,8.6094,8.6094,8.6094,8.6094,8.6094,8.6094,8.6094,8.6094,8.6094,8.6094,8.6094,8.6094,8.6094,8.6094,8.6094,8.6094,8.6094,8.6094,8.6094,8.6094,8.6094,8.6247,8.7517,8.8487,8.891,8.9748,9.0671,9.1171,9.1163,9.1201,9.1201,9.1201,9.1201,9.1201,9.1201,9.1201,9.1201,9.1201,9.1201,9.1201,9.1201,9.1201,9.1201,9.1201,9.1201,9.1201,9.1201,9.1201,9.1201,9.1201,9.1201,9.1201,9.1201,9.1201,9.1201,9.1201,9.1201,9.1201,9.1201,9.1201,9.1201,9.1201,9.1201,9.1201,9.1201,9.1201,7.7584,7.7493,7.7493,7.7433,7.7335,7.7517,7.774,7.802,7.8687,7.9173,7.9509,7.9941,8.0297,8.054,8.0611,8.0771,8.0813,8.083,8.1053,8.1061,8.1093,8.1093,8.1093,8.1093,8.1093,8.1093,8.1093,8.1093,8.1093,8.1093,8.1093,8.1093,8.1093,8.1093,8.1093,8.1093,8.1285,8.1823,8.2947,8.3785,8.4362,8.5286,8.6094,8.6094,8.6094,8.6094,8.6094,8.6094,8.6094,8.6094,8.6094,8.6094,8.6094,8.6094,8.6094,8.6094,8.6094,8.6094,8.6094,8.6094,8.6094,8.6094,8.6094,8.6094,8.6094,8.6094,8.6094,8.6094,8.6094,8.6094,8.6363,8.7748,8.844,8.8863,8.971,9.0594,9.1171,9.1201,9.1201,9.1201,9.1201,9.1201,9.1201,9.1201,9.1201,9.1201,9.1201,9.1201,9.1201,9.1201,9.1201,9.1201,9.1201,9.1201,9.1201,9.1201,9.1201,9.1201,9.1201,9.1201,9.1201,9.1201,9.1201,9.1201,9.1201,9.1201,9.1201,9.1201,9.1201,9.1201,9.1201,9.1201,9.1201,9.1201,9.1201,7.7326,7.7326,7.7326,7.7326,7.7289,7.7335,7.7502,7.7842,7.8609,7.8966,7.9053,7.9487,7.9751,7.9762,7.9762,7.9992,8.0316,8.0363,8.0638,8.091,8.0943,8.0991,8.1077,8.1093,8.1077,8.1085,8.1077,8.1069,8.1077,8.1069,8.1069,8.1085,8.1085,8.1085,8.1093,8.1131,8.1477,8.217,8.3024,8.3901,8.4709,8.5555,8.6017,8.6094,8.6094,8.6094,8.6094,8.6094,8.6094,8.6094,8.6094,8.6094,8.6094,8.6094,8.6094,8.6094,8.6094,8.6094,8.6094,8.6094,8.6094,8.6094,8.6094,8.6094,8.6094,8.6094,8.6094,8.6094,8.6094,8.6094,8.6324,8.7209,8.8055,8.8786,8.9633,9.0364,9.1009,9.1201,9.1201,9.1201,9.1201,9.1201,9.1201,9.1201,9.1201,9.1201,9.1201,9.1201,9.1201,9.1201,9.1201,9.1201,9.1201,9.1201,9.1201,9.1201,9.1201,9.1201,9.1201,9.1201,9.1201,9.1201,9.1201,9.1201,9.1201,9.1201,9.1201,9.1201,9.1201,9.1201,9.1201,9.1201,9.1201,9.1201,9.1201,7.7326,7.7326,7.7326,7.7326,7.7304,7.7448,7.7605,7.7732,7.8132,7.8451,7.8791,7.8841,7.9135,7.9638,7.9556,7.967,7.9777,7.9951,8.0229,8.0419,8.0567,8.0796,8.0959,8.1007,8.1007,8.1007,8.1045,8.1045,8.0918,8.0934,8.0967,8.0967,8.1045,8.1069,8.1077,8.1085,8.1662,8.2362,8.3208,8.4093,8.4939,8.5747,8.5978,8.6094,8.6094,8.6094,8.6094,8.6094,8.6094,8.6094,8.6094,8.6094,8.6094,8.6094,8.6094,8.6094,8.6094,8.6094,8.6094,8.6094,8.6094,8.6094,8.6094,8.6094,8.6094,8.6094,8.6094,8.6094,8.6094,8.6094,8.6478,8.7286,8.8017,8.8748,8.9671,9.0633,9.1201,9.1201,9.1201,9.1201,9.1201,9.1201,9.1201,9.1201,9.1201,9.1201,9.1201,9.1201,9.1201,9.1201,9.1201,9.1201,9.1201,9.1201,9.1201,9.1201,9.1201,9.1201,9.1201,9.1201,9.1201,9.1201,9.1201,9.1201,9.1201,9.1201,9.1201,9.1201,9.1201,9.1201,9.1201,9.1201,9.1201,9.1201,9.1201,7.7326,7.7326,7.7326,7.7326,7.732,7.7508,7.759,7.7554,7.7783,7.8118,7.8319,7.8265,7.8506,7.8791,7.8804,7.8891,7.9206,7.9204,7.9445,7.9792,7.9954,8.024,8.0501,8.0716,8.0775,8.0855,8.0983,8.1053,8.091,8.0885,8.0918,8.0877,8.0973,8.0989,8.0959,8.1082,8.1729,8.2553,8.3415,8.4277,8.5093,8.5824,8.6017,8.6094,8.6094,8.6094,8.6094,8.6094,8.6094,8.6094,8.6094,8.6094,8.6094,8.6094,8.6094,8.6094,8.6094,8.6094,8.6094,8.6094,8.6094,8.6094,8.6094,8.6094,8.6094,8.6094,8.6094,8.6094,8.6094,8.6209,8.6863,8.7478,8.8094,8.8718,8.9863,9.1047,9.1201,9.1201,9.1201,9.1201,9.1201,9.1201,9.1201,9.1201,9.1201,9.1201,9.1201,9.1201,9.1201,9.1201,9.1201,9.1201,9.1201,9.1201,9.1201,9.1201,9.1201,9.1201,9.1201,9.1201,9.1201,9.1201,9.1201,9.1201,9.1201,9.1201,9.1201,9.1201,9.1201,9.1201,9.1201,9.1201,9.1201,9.1201,9.1201,7.7326,7.7326,7.7326,7.7326,7.7341,7.7478,7.7463,7.732,7.7607,7.7754,7.7835,7.7806,7.7842,7.8076,7.8034,7.8169,7.844,7.8534,7.8791,7.914,7.9198,7.9507,7.9875,8.0017,8.0201,8.0608,8.0871,8.0847,8.0967,8.0918,8.0788,8.0784,8.0848,8.0873,8.0852,8.1149,8.1911,8.308,8.3775,8.4492,8.5585,8.6094,8.6094,8.6094,8.6094,8.6094,8.6094,8.6094,8.6094,8.6094,8.6094,8.6094,8.6094,8.6094,8.6094,8.6094,8.6094,8.6094,8.6094,8.6094,8.6094,8.6094,8.6094,8.6094,8.6094,8.6094,8.6094,8.6094,8.6094,8.6094,8.6555,8.7632,8.8487,8.9103,9.0017,9.0864,9.1201,9.1201,9.1201,9.1201,9.1201,9.1201,9.1201,9.1201,9.1201,9.1201,9.1201,9.1201,9.1201,9.1201,9.1201,9.1201,9.1201,9.1201,9.1201,9.1201,9.1201,9.1201,9.1201,9.1201,9.1201,9.1201,9.1201,9.1201,9.1201,9.1201,9.1201,9.1201,9.1201,9.1201,9.1201,9.1201,9.1201,9.1201,9.1201,7.7326,7.7326,7.7326,7.7326,7.7326,7.732,7.7356,7.7289,7.7365,7.7524,7.7599,7.7524,7.7547,7.771,7.7673,7.7798,7.792,7.8025,7.8279,7.8497,7.8615,7.884,7.9279,7.9392,7.9573,7.9771,8.0094,8.0564,8.078,8.0745,8.0685,8.0658,8.0732,8.0767,8.0852,8.1282,8.2322,8.3406,8.414,8.4843,8.5876,8.6085,8.6094,8.6094,8.6094,8.6094,8.6094,8.6094,8.6094,8.6094,8.6094,8.6094,8.6094,8.6094,8.6094,8.6094,8.6094,8.6094,8.6094,8.6094,8.6094,8.6094,8.6094,8.6094,8.6094,8.6094,8.6094,8.6094,8.6094,8.6094,8.6478,8.7709,8.8795,8.9449,9.0133,9.0671,9.1201,9.1201,9.1201,9.1201,9.1201,9.1201,9.1201,9.1201,9.1201,9.1201,9.1201,9.1201,9.1201,9.1201,9.1201,9.1201,9.1201,9.1201,9.1201,9.1201,9.1201,9.1201,9.1201,9.1201,9.1201,9.1201,9.1201,9.1201,9.1201,9.1201,9.1201,9.1201,9.1201,9.1201,9.1201,9.1201,9.1201,9.1201,9.1201,7.7326,7.7326,7.7326,7.7326,7.7326,7.7326,7.7326,7.7326,7.7326,7.7372,7.7448,7.7387,7.7396,7.7562,7.7493,7.7508,7.7614,7.7562,7.7717,7.7889,7.8077,7.8272,7.8525,7.8804,7.906,7.9274,7.9792,8.0278,8.065,8.0658,8.0623,8.0578,8.0661,8.0717,8.0841,8.1601,8.2544,8.3349,8.4255,8.5177,8.5997,8.6043,8.606,8.6069,8.6094,8.6094,8.6094,8.6094,8.6094,8.6094,8.6094,8.6094,8.6094,8.6094,8.6094,8.6094,8.6094,8.6094,8.6094,8.6094,8.6094,8.6094,8.6094,8.6094,8.6094,8.6094,8.6094,8.6094,8.6094,8.6094,8.6555,8.7594,8.841,8.9103,9.0133,9.1009,9.1201,9.1201,9.1201,9.1201,9.1201,9.1201,9.1201,9.1201,9.1201,9.1201,9.1201,9.1201,9.1201,9.1201,9.1201,9.1201,9.1201,9.1201,9.1201,9.1201,9.1201,9.1201,9.1201,9.1201,9.1201,9.1201,9.1201,9.1201,9.1201,9.1201,9.1201,9.1201,9.1201,9.1201,9.1201,9.1201,9.1201,9.124,9.1479,7.7326,7.7326,7.7326,7.7326,7.7326,7.7326,7.7326,7.7326,7.7326,7.7326,7.7341,7.7289,7.7326,7.7326,7.7326,7.7326,7.7341,7.7381,7.7381,7.7381,7.7411,7.771,7.796,7.8132,7.8536,7.9061,7.9616,8.0133,8.0623,8.0587,8.0542,8.0525,8.0506,8.0515,8.0801,8.1554,8.2593,8.3405,8.4282,8.5185,8.568,8.6014,8.6035,8.6077,8.6094,8.6094,8.6094,8.6094,8.6094,8.6094,8.6094,8.6094,8.6094,8.6094,8.6094,8.6094,8.6094,8.6094,8.6094,8.6094,8.6094,8.6094,8.6094,8.6094,8.6094,8.6094,8.6094,8.6094,8.6094,8.6247,8.6709,8.7478,8.8256,8.8987,9.0171,9.1163,9.1201,9.1201,9.1201,9.1201,9.1201,9.1201,9.1201,9.1201,9.1201,9.1201,9.1201,9.1201,9.1201,9.1201,9.1201,9.1201,9.1201,9.1201,9.1201,9.1201,9.1201,9.1201,9.1201,9.1201,9.1201,9.1201,9.1201,9.1201,9.1201,9.1201,9.1201,9.1201,9.1201,9.1201,9.1201,9.1201,9.1201,9.1317,9.1825,7.7326,7.7326,7.7326,7.7326,7.7326,7.7326,7.7326,7.7326,7.7326,7.7326,7.7326,7.7326,7.7326,7.7326,7.7326,7.7326,7.7326,7.7326,7.7326,7.7289,7.7326,7.7381,7.7525,7.7826,7.8228,7.8816,7.9415,7.9836,8.0439,8.0571,8.0534,8.0515,8.0506,8.0592,8.0792,8.1736,8.2978,8.3618,8.4565,8.5615,8.5804,8.6039,8.606,8.6085,8.6094,8.6094,8.6094,8.6094,8.6094,8.6094,8.6094,8.6094,8.6094,8.6094,8.6094,8.6094,8.6094,8.6094,8.6094,8.6094,8.6094,8.6094,8.6094,8.6094,8.6094,8.6094,8.6094,8.6094,8.6094,8.6094,8.6594,8.7825,8.8718,8.9334,9.0287,9.0902,9.1201,9.1201,9.1201,9.1201,9.1201,9.1201,9.1201,9.1201,9.1201,9.1201,9.1201,9.1201,9.1201,9.1201,9.1201,9.1201,9.1201,9.1201,9.1201,9.1201,9.1201,9.1201,9.1201,9.1201,9.1201,9.1201,9.1201,9.1201,9.1201,9.1201,9.1201,9.1201,9.1201,9.1201,9.1201,9.1201,9.1201,9.1393,9.1864]}]]